Date StartTime U_cm/s V_cm/s W_cm/s Ustd_cm/s Vstd_cm/s Wstd_cm/s Uvar_(cm/s)^2 Vvar_(cm/s)^2 Wvar_(cm/s)^2 KE_(m/s)^2 TurbulentKE_(m/s)^2 HorizWindSpeed_cm/s FrictionSpeec_cm/s DragCoef SpeedOfSound_m/s SonicTemperature_C Pressure_mb 
01/08/2014  00:00:00     -421.752     -108.159      -19.327      133.152       99.328       57.997    17729.586     9865.961     3363.643       11.045        1.548      435.399       61.077        0.020      337.046        8.752      862.871
01/08/2014  00:01:00     -367.760     -167.533      -19.614      152.771      121.872       64.727    23338.994    14852.671     4189.588       10.303        2.119      404.122       68.296        0.029      337.003        8.679      862.856
01/08/2014  00:02:00     -503.023      -96.339      -34.105      218.380      191.163       77.987    47689.746    36543.150     6081.938       17.688        4.516      512.165       78.493        0.023      337.089        8.824      862.822
01/08/2014  00:03:00     -415.392     -111.153      -30.915      147.401      123.950       68.125    21726.930    15363.621     4640.952       11.379        2.087      430.006       70.763        0.027      336.992        8.662      862.827
01/08/2014  00:04:00     -394.482      -37.706      -26.217      179.595      152.545       69.560    32254.385    23270.047     4838.661       10.903        3.018      396.280       85.696        0.047      336.967        8.620      862.822
01/08/2014  00:05:00     -405.811      -69.411      -25.496      181.257      115.224       69.434    32853.968    13276.460     4821.121       11.054        2.548      411.705       86.108        0.044      336.965        8.617      862.824
01/08/2014  00:06:00     -456.153     -102.175      -20.001      170.447      124.739       71.744    29052.171    15559.882     5147.143       13.433        2.488      467.457       70.215        0.023      336.966        8.618      862.838
01/08/2014  00:07:00     -402.548      -49.583      -21.580      178.211      100.620       80.131    31759.128    10124.406     6420.989       10.663        2.415      405.591       96.727        0.057      336.950        8.592      862.828
01/08/2014  00:08:00     -495.731     -190.328      -16.198      199.975      184.450      101.026    39989.880    34021.787    10206.334       18.321        4.211      531.012      108.657        0.042      337.047        8.755      862.825
01/08/2014  00:09:00     -411.135     -113.068      -17.372      181.908      113.311       64.109    33090.514    12839.358     4109.988       11.607        2.502      426.399       77.376        0.033      337.004        8.682      862.831
01/08/2014  00:10:00     -275.742      -59.326      -16.337      134.850      109.285       52.345    18184.601    11943.233     2739.973        5.634        1.643      282.052       56.441        0.040      336.933        8.563      862.836
01/08/2014  00:11:00     -392.975     -177.360      -16.260      155.667      132.811       70.949    24232.197    17638.721     5033.795       11.652        2.345      431.145       54.428        0.016      337.011        8.694      862.820
01/08/2014  00:12:00     -457.291      -23.077      -42.859      178.708      152.427       89.477    31936.486    23233.952     8006.078       13.732        3.159      457.873       91.708        0.040      337.056        8.768      862.787
01/08/2014  00:13:00     -469.771      -50.445      -24.077      167.207      154.436       65.551    27958.040    23850.582     4296.892       13.995        2.805      472.472       69.309        0.022      337.070        8.793      862.804
01/08/2014  00:14:00     -378.389      -62.673      -13.052      194.825      144.185       72.734    37956.901    20789.402     5290.217       10.565        3.202      383.544       80.279        0.044      337.070        8.792      862.796
01/08/2014  00:15:00     -551.802      -87.606      -40.998      204.335      169.395       91.777    41752.794    28694.539     8423.099       19.634        3.944      558.713       90.712        0.026      337.156        8.936      862.769
01/08/2014  00:16:00     -447.913      -91.024      -12.720      147.930      178.911       76.617    21883.239    32009.256     5870.239       13.441        2.988      457.068       67.308        0.022      337.113        8.864      862.754
01/08/2014  00:17:00     -363.177      -97.200       -4.415      160.061      142.208       72.379    25619.440    20223.148     5238.714        9.621        2.554      375.959       68.752        0.033      337.077        8.804      862.760
01/08/2014  00:18:00     -475.671     -133.016      -15.304      187.630      135.214       75.816    35205.035    18282.754     5748.025       15.170        2.962      493.920       91.242        0.034      337.153        8.931      862.783
01/08/2014  00:19:00     -447.302      -62.925       -9.822      213.798      166.164       86.422    45709.540    27610.381     7468.722       14.245        4.039      451.706      100.444        0.049      337.093        8.829      862.797
01/08/2014  00:20:00     -576.347     -140.132      -28.133      189.331      163.000       78.064    35846.052    26569.072     6093.981       21.055        3.425      593.139       80.332        0.018      337.137        8.905      862.763
01/08/2014  00:21:00     -427.482      -70.336      -17.230      170.114      157.971       73.212    28938.864    24954.905     5359.967       12.361        2.963      433.229       73.113        0.028      337.085        8.817      862.733
01/08/2014  00:22:00     -537.286      -62.170      -21.852      256.396      169.303       93.747    65739.011    28663.356     8788.417       19.809        5.160      540.871      105.039        0.038      337.086        8.820      862.733
01/08/2014  00:23:00     -239.503     -109.455       -0.180      195.807      137.805       76.714    38340.186    18990.267     5885.011        6.627        3.161      263.329       92.260        0.123      337.002        8.679      862.720
01/08/2014  00:24:00     -456.901      -84.942      -35.021      182.833      123.805       91.955    33427.908    15327.737     8455.788       13.720        2.861      464.730       86.418        0.035      337.018        8.704      862.733
01/08/2014  00:25:00     -507.248      -79.264      -50.247      179.881      159.919       76.926    32357.347    25574.048     5917.605       16.497        3.192      513.404       46.944        0.008      337.047        8.753      862.742
01/08/2014  00:26:00     -386.709      -86.977      -19.241      164.034      138.630       81.653    26907.228    19218.296     6667.175       10.513        2.640      396.369       87.124        0.048      336.971        8.627      862.752
01/08/2014  00:27:00     -311.367     -110.996      -10.770      161.844      106.779       74.703    26193.461    11401.846     5580.575        7.627        2.159      330.559       74.631        0.051      336.935        8.567      862.755
01/08/2014  00:28:00     -284.990     -131.340      -16.458      112.712       95.705       61.191    12703.896     9159.389     3744.390        6.217        1.280      313.798       36.750        0.014      336.906        8.518      862.764
01/08/2014  00:29:00     -403.000     -138.316       -8.340      165.032      113.194       63.394    27235.571    12812.924     4018.860       11.283        2.203      426.075       65.458        0.024      336.884        8.482      862.744
01/08/2014  00:30:00     -454.433     -115.303      -28.765      198.288      134.269       82.092    39318.217    18028.093     6739.129       14.235        3.204      468.832       85.038        0.033      336.958        8.605      862.706
01/08/2014  00:31:00     -359.202      -37.162      -40.025      101.798      123.393       56.068    10362.799    15225.764     3143.627        8.037        1.437      361.120       43.038        0.014      336.897        8.503      862.730
01/08/2014  00:32:00     -327.979     -106.072      -29.308      120.301       70.799       44.994    14472.433     5012.446     2024.444        7.059        1.075      344.705       43.009        0.016      336.771        8.293      862.725
01/08/2014  00:33:00     -380.741     -129.100      -26.071      119.934      138.026       69.564    14384.248    19051.254     4839.210       10.029        1.914      402.033       61.859        0.024      336.746        8.252      862.719
01/08/2014  00:34:00     -296.125      -47.995      -27.170      130.277      101.910       57.975    16972.010    10385.655     3361.078        6.072        1.536      299.989       59.356        0.039      336.727        8.220      862.712
01/08/2014  00:35:00     -277.466      -81.463      -29.935      125.099      125.346       73.261    15649.658    15711.701     5367.189        6.062        1.836      289.178       46.790        0.026      336.773        8.298      862.695
01/08/2014  00:36:00     -311.198      -74.391      -23.479       97.790      107.184       65.230     9562.832    11488.381     4254.889        6.411        1.265      319.966       50.437        0.025      336.746        8.252      862.688
01/08/2014  00:37:00     -305.731      -36.759      -36.650       74.895       71.108       56.291     5609.194     5056.313     3168.653        5.500        0.692      307.933       36.436        0.014      336.644        8.081      862.695
01/08/2014  00:38:00     -249.910      -58.406      -19.461      117.297      108.164       64.125    13758.492    11699.420     4112.066        4.790        1.478      256.645       63.543        0.061      336.643        8.080      862.695
01/08/2014  00:39:00     -383.185     -117.382      -38.425       97.584      105.307       57.944     9522.561    11089.478     3357.497        9.302        1.198      400.761       37.987        0.009      336.641        8.078      862.658
01/08/2014  00:40:00     -307.510        2.049      -53.143       97.258      141.406       69.619     9459.174    19995.621     4846.871        6.584        1.715      307.517       47.371        0.024      336.685        8.151      862.653
01/08/2014  00:41:00     -342.784       21.273      -33.174      163.687      134.397       68.476    26793.379    18062.641     4688.911        8.429        2.477      343.443       67.018        0.038      336.815        8.367      862.640
01/08/2014  00:42:00     -310.845       11.015      -15.794      148.091      106.134       63.880    21930.881    11264.365     4080.668        6.713        1.864      311.040       68.087        0.048      336.772        8.295      862.638
01/08/2014  00:43:00     -360.058      -96.695      -23.148      185.896      117.381       77.744    34557.227    13778.258     6044.078        9.694        2.719      372.816       96.142        0.067      336.745        8.251      862.611
01/08/2014  00:44:00     -262.180     -137.078      -17.263      137.141      106.347       68.347    18807.775    11309.629     4671.370        6.130        1.739      295.853       72.091        0.059      336.735        8.233      862.594
01/08/2014  00:45:00     -356.721     -105.800      -34.265      105.619      112.113       60.617    11155.389    12569.372     3674.417        8.350        1.370      372.079       54.409        0.021      336.713        8.197      862.598
01/08/2014  00:46:00     -432.305      -98.002      -30.632      137.804      120.619       72.253    18990.024    14549.048     5220.542       11.809        1.938      443.274       79.608        0.032      336.721        8.210      862.573
01/08/2014  00:47:00     -321.285      -88.709      -16.265      130.796      116.016       63.694    17107.606    13459.639     4056.877        7.299        1.731      333.307       53.287        0.026      336.652        8.095      862.571
01/08/2014  00:48:00     -387.179      -83.988      -32.441      142.598      146.500       70.635    20334.308    21462.161     4989.277       10.239        2.339      396.184       67.212        0.029      336.720        8.210      862.584
01/08/2014  00:49:00     -337.609      -51.979      -20.867      133.716      123.290       60.912    17879.966    15200.312     3710.286        7.695        1.840      341.587       74.010        0.047      336.690        8.159      862.601
01/08/2014  00:50:00     -474.996      -21.292      -27.651      159.407      149.091       85.444    25410.676    22228.259     7300.757       14.088        2.747      475.473       72.407        0.023      336.788        8.322      862.562
01/08/2014  00:51:00     -456.471      -58.724      -36.649      148.216      138.448       75.868    21968.083    19167.727     5755.956       13.002        2.345      460.233       68.129        0.022      336.884        8.480      862.522
01/08/2014  00:52:00     -378.472      -88.303      -40.222      124.231       92.700       58.208    15433.306     8593.230     3388.178        9.003        1.371      388.637       32.319        0.007      336.759        8.272      862.520
01/08/2014  00:53:00     -515.022        0.506      -28.219      250.986      186.413      103.006    62993.769    34749.973    10610.313       18.718        5.418      515.022      121.901        0.056      336.871        8.460      862.498
01/08/2014  00:54:00     -361.844     -158.184       -3.995      157.124      146.812       74.344    24687.990    21553.829     5527.062       10.386        2.588      394.909       57.608        0.021      336.965        8.618      862.451
01/08/2014  00:55:00     -422.052     -163.495      -16.874      142.669      127.819       65.346    20354.317    16337.720     4270.139       12.305        2.048      452.613       68.061        0.023      336.827        8.388      862.474
01/08/2014  00:56:00     -439.965      -87.251      -29.460      178.782      122.948       80.659    31963.166    15116.189     6505.812       12.781        2.679      448.533       84.873        0.036      336.829        8.391      862.496
01/08/2014  00:57:00     -347.311      -65.779      -25.821      131.579      144.539       78.690    17313.110    20891.519     6192.120        8.500        2.220      353.485       70.054        0.039      336.712        8.196      862.505
01/08/2014  00:58:00     -424.223     -140.782      -34.318      129.087      128.466       77.699    16663.358    16503.522     6037.193       12.008        1.960      446.972       53.582        0.014      336.813        8.363      862.465
01/08/2014  00:59:00     -505.585      -97.038      -44.810      167.687      126.610       79.961    28118.934    16030.209     6393.821       15.878        2.527      514.813       89.145        0.030      336.932        8.562      862.461
01/08/2014  01:00:00     -392.408      -47.409      -38.096      200.164      137.624       61.808    40065.567    18940.310     3820.190       11.024        3.141      395.262       74.241        0.035      336.822        8.378      862.470
01/08/2014  01:01:00     -319.203      -39.188      -15.454      149.588      108.373       78.063    22376.528    11744.630     6093.795        7.193        2.011      321.599       76.752        0.057      336.719        8.207      862.492
01/08/2014  01:02:00     -450.057      -70.614      -43.387      136.268      117.324       74.012    18569.019    13764.958     5477.823       12.361        1.891      455.563       59.417        0.017      336.813        8.362      862.483
01/08/2014  01:03:00     -319.353     -114.851      -18.266      166.696      118.757       63.427    27787.530    14103.275     4023.040        8.070        2.296      339.378       62.983        0.034      336.796        8.338      862.488
01/08/2014  01:04:00     -299.963     -124.487      -44.379      117.679       96.537       64.097    13848.451     9319.350     4108.427        6.736        1.364      324.768       41.672        0.016      336.708        8.189      862.501
01/08/2014  01:05:00     -329.988     -121.949      -31.889      121.607      114.736       69.798    14788.166    13164.267     4871.771        7.880        1.641      351.801       63.386        0.032      336.717        8.203      862.514
01/08/2014  01:06:00     -389.687      -42.805      -35.244      153.566      137.601       70.695    23582.611    18933.905     4997.781       10.121        2.376      392.031       67.951        0.030      336.806        8.351      862.512
01/08/2014  01:07:00     -273.103      -42.585      -32.760      119.915      124.971       65.018    14379.546    15617.836     4227.329        5.584        1.711      276.404       56.111        0.041      336.749        8.258      862.522
01/08/2014  01:08:00     -342.393      -61.253      -31.839      107.001       96.090       53.044    11449.235     9233.228     2813.667        7.274        1.175      347.829       44.671        0.016      336.765        8.284      862.548
01/08/2014  01:09:00     -412.371      -46.761      -32.231      235.572      115.149       68.691    55494.024    13259.243     4718.520       12.336        3.674      415.013       89.817        0.047      336.834        8.398      862.555
01/08/2014  01:10:00     -286.138      -86.756      -12.305      127.845       99.255       68.005    16344.339     9851.528     4624.674        6.018        1.541      299.001       70.475        0.056      336.781        8.310      862.571
01/08/2014  01:11:00     -380.339      -78.129      -36.624      128.853      121.872       76.936    16603.015    14852.897     5919.138        9.473        1.869      388.280       64.590        0.028      336.816        8.369      862.559
01/08/2014  01:12:00     -296.179      -97.682      -15.859      114.669       85.486       56.814    13148.934     7307.813     3227.869        6.060        1.184      311.871       44.897        0.021      336.719        8.207      862.560
01/08/2014  01:13:00     -345.699      -31.091      -35.704      135.835      122.862       59.422    18451.039    15095.028     3530.943        7.941        1.854      347.094       56.107        0.026      336.800        8.340      862.561
01/08/2014  01:14:00     -220.786      -57.411      -23.315      115.114       86.027       49.839    13251.347     7400.623     2483.900        3.786        1.157      228.128       45.521        0.040      336.734        8.232      862.564
01/08/2014  01:15:00     -248.107      -71.691        2.449      117.740       94.375       49.276    13862.797     8906.555     2428.114        4.595        1.260      258.257       52.654        0.042      336.658        8.106      862.582
01/08/2014  01:16:00     -352.592     -103.403      -36.020      122.369       96.079       62.805    14974.225     9231.155     3944.436        8.223        1.407      367.442       60.204        0.027      336.720        8.209      862.605
01/08/2014  01:17:00     -227.640      -65.823      -34.337      146.966       92.351       65.138    21599.134     8528.708     4242.898        4.585        1.719      236.966       65.978        0.078      336.742        8.245      862.642
01/08/2014  01:18:00     -278.284      -37.045      -36.002      111.950       74.867       45.362    12532.850     5605.082     2057.689        5.015        1.010      280.738       43.519        0.024      336.644        8.083      862.667
01/08/2014  01:19:00     -204.352      -36.918       -6.460      118.403       74.819       46.792    14019.385     5597.861     2189.537        3.248        1.090      207.660       45.293        0.048      336.560        7.944      862.679
01/08/2014  01:20:00     -116.692      -12.615        0.904      113.539       80.686       59.041    12891.059     6510.213     3485.811        1.833        1.144      117.372       68.039        0.336      336.506        7.852      862.668
01/08/2014  01:21:00     -207.201      -78.271       -5.028      103.290       98.029       45.711    10668.761     9609.655     2089.506        3.572        1.118      221.491       48.227        0.047      336.503        7.845      862.679
01/08/2014  01:22:00     -122.339      -49.558       -8.021      108.336       77.295       48.901    11736.665     5974.586     2391.339        1.879        1.005      131.995       39.771        0.091      336.537        7.905      862.680
01/08/2014  01:23:00     -245.464      -23.819      -30.497      139.429      101.317       63.041    19440.443    10265.063     3974.151        4.771        1.684      246.617       63.706        0.067      336.606        8.019      862.691
01/08/2014  01:24:00     -497.291      -70.197      -45.745      189.407      112.742       81.032    35875.166    12710.665     6566.245       15.473        2.758      502.221       75.862        0.023      336.749        8.257      862.715
01/08/2014  01:25:00     -359.351      -45.490      -23.357      101.440       86.236       61.321    10290.093     7436.613     3760.242        7.661        1.074      362.219       63.203        0.030      336.705        8.184      862.745
01/08/2014  01:26:00     -307.884      -25.266      -28.114      110.527       78.093       45.633    12216.161     6098.553     2082.351        5.831        1.020      308.919       37.158        0.014      336.689        8.156      862.759
01/08/2014  01:27:00     -172.797      -30.605        6.258      169.164       94.406       69.717    28616.499     8912.436     4860.525        3.660        2.119      175.486       82.974        0.224      336.664        8.117      862.757
01/08/2014  01:28:00     -267.026      -53.765      -31.806       68.556       72.043       47.544     4699.984     5190.235     2260.461        4.368        0.608      272.385       36.944        0.018      336.629        8.056      862.781
01/08/2014  01:29:00     -230.936      -73.405       -9.578       74.465       75.060       42.221     5545.057     5634.050     1782.641        3.588        0.648      242.321        8.653        0.001      336.511        7.860      862.770
01/08/2014  01:30:00     -164.100       21.064      -22.788      108.750       89.075       53.676    11826.598     7934.443     2881.109        2.526        1.132      165.446       58.042        0.123      336.514        7.866      862.775
01/08/2014  01:31:00     -225.351        2.735      -50.193       95.160       67.392       52.270     9055.381     4541.701     2732.120        3.482        0.816      225.367       31.002        0.019      336.558        7.937      862.776
01/08/2014  01:32:00     -166.436       87.937      -25.483       91.675       89.676       46.685     8404.307     8041.808     2179.461        2.735        0.931      188.238       46.287        0.060      336.566        7.953      862.731
01/08/2014  01:33:00     -182.057      -40.320      -29.459       76.467       68.403       48.407     5847.180     4678.975     2343.197        2.425        0.643      186.468       31.922        0.029      336.523        7.880      862.738
01/08/2014  01:34:00     -263.744      -30.942      -31.501      148.814       78.803       46.621    22145.582     6209.840     2173.494        5.101        1.526      265.553       61.627        0.054      336.561        7.943      862.735
01/08/2014  01:35:00     -245.178      -69.413       -7.328      106.574       88.663       55.804    11358.048     7861.067     3114.091        4.365        1.117      254.814       53.232        0.044      336.546        7.918      862.725
01/08/2014  01:36:00     -373.542      -46.510      -48.154       85.879       98.933       56.585     7375.210     9787.818     3201.918        8.219        1.018      376.426       28.157        0.006      336.683        8.145      862.735
01/08/2014  01:37:00     -260.014      -82.505      -35.128       94.127       96.967       48.412     8859.978     9402.532     2343.722        4.812        1.030      272.790       40.406        0.022      336.696        8.168      862.726
01/08/2014  01:38:00     -292.681     -125.105      -31.639      100.542       83.997       56.531    10108.738     7055.422     3195.729        6.133        1.018      318.298       44.602        0.020      336.680        8.142      862.732
01/08/2014  01:39:00     -334.150      -94.011      -34.667      114.485      149.019       54.468    13106.814    22206.655     2966.812        7.998        1.914      347.123       55.281        0.025      336.732        8.228      862.751
01/08/2014  01:40:00     -362.254      -69.487      -30.479       95.108       95.382       46.235     9045.437     9097.742     2137.676        7.863        1.014      368.858       37.618        0.010      336.740        8.240      862.768
01/08/2014  01:41:00     -303.261      -71.846      -24.056      122.507       92.358       60.397    15007.857     8530.089     3647.837        6.244        1.359      311.656       67.024        0.046      336.692        8.162      862.774
01/08/2014  01:42:00     -281.980      -65.484      -16.971      102.815       94.225       51.465    10570.884     8878.377     2648.663        5.309        1.105      289.484       50.023        0.030      336.675        8.133      862.787
01/08/2014  01:43:00     -413.292      -50.127      -26.096      120.566      116.076       68.711    14536.241    13473.726     4721.155       10.336        1.637      416.321       60.744        0.021      336.750        8.257      862.764
01/08/2014  01:44:00     -351.352      -68.038      -35.063       96.955      137.075       60.592     9400.180    18789.455     3671.395        8.058        1.593      357.879       41.717        0.014      336.779        8.307      862.757
01/08/2014  01:45:00     -294.704      -71.016      -23.715      106.696      101.948       58.719    11383.986    10393.422     3447.874        5.884        1.261      303.140       56.972        0.035      336.685        8.150      862.781
01/08/2014  01:46:00     -272.373      -67.908      -29.096      115.411      106.397       59.813    13319.738    11320.325     3577.543        5.393        1.411      280.710       48.703        0.030      336.640        8.075      862.792
01/08/2014  01:47:00     -342.908      -67.866      -15.305      172.033      114.631       73.500    29595.380    13140.324     5402.322        8.527        2.407      349.559       78.780        0.051      336.712        8.195      862.796
01/08/2014  01:48:00     -510.280       84.468      -45.768      228.839      182.902       72.688    52367.516    33453.124     5283.560       18.034        4.555      517.224       72.211        0.019      336.850        8.424      862.790
01/08/2014  01:49:00     -461.985      -13.268      -31.508      178.377      144.590       75.422    31818.403    20906.338     5688.439       13.650        2.921      462.175       72.661        0.025      336.850        8.424      862.817
01/08/2014  01:50:00     -209.414       -2.798      -15.448      100.802      139.220       66.834    10161.051    19382.178     4466.781        3.905        1.701      209.433       65.622        0.098      336.733        8.231      862.844
01/08/2014  01:51:00      -78.315      -38.036       -2.198      103.601       63.172       53.512    10733.108     3990.702     2863.481        1.258        0.879       87.063       52.261        0.360      336.609        8.026      862.857
01/08/2014  01:52:00     -235.178      -69.691      -26.749      116.198       73.856       47.032    13502.020     5454.718     2212.012        4.102        1.058      245.286       44.373        0.033      336.535        7.899      862.873
01/08/2014  01:53:00     -391.785      -73.713      -36.313      128.664      117.844       59.821    16554.297    13887.122     3578.525        9.713        1.701      398.660       60.974        0.023      336.694        8.165      862.883
01/08/2014  01:54:00     -390.527      -57.099      -31.015      108.935      106.059       54.654    11866.764    11248.467     2987.060        9.141        1.305      394.680       49.369        0.016      336.746        8.251      862.888
01/08/2014  01:55:00     -432.121      -55.094      -25.026      127.105      104.109       55.160    16155.740    10838.625     3042.623       11.021        1.502      435.619       46.267        0.011      336.734        8.232      862.904
01/08/2014  01:56:00     -289.580      -56.534      -12.723      149.693      109.479       64.854    22408.044    11985.736     4206.105        6.290        1.930      295.047       58.494        0.039      336.705        8.185      862.921
01/08/2014  01:57:00     -296.109       28.629      -20.128      132.933      113.274       55.304    17671.169    12831.056     3058.508        6.123        1.678      297.490       60.244        0.041      336.755        8.268      862.936
01/08/2014  01:58:00     -249.196      -15.185      -12.667      157.258       95.526       61.247    24730.117     9125.219     3751.179        5.004        1.880      249.658       73.779        0.087      336.697        8.171      862.954
01/08/2014  01:59:00     -216.347      -77.350       -3.184       89.778       95.096       49.794     8060.019     9043.183     2479.398        3.619        0.979      229.758       32.918        0.021      336.687        8.153      862.981
01/08/2014  02:00:00     -354.503      -65.139      -44.031       95.736       79.374       39.928     9165.448     6300.271     1594.255        7.445        0.853      360.438       21.474        0.004      336.692        8.162      862.971
01/08/2014  02:01:00     -283.721      -76.959       -8.206      131.109      124.369       68.960    17189.551    15467.644     4755.451        6.194        1.871      293.973       54.551        0.034      336.763        8.280      862.963
01/08/2014  02:02:00     -360.930      -74.532      -13.068      136.617      116.852       63.276    18664.201    13654.352     4003.890        8.615        1.816      368.545       65.357        0.031      336.854        8.432      862.996
01/08/2014  02:03:00     -372.727      -80.511       -4.397      138.720      121.060       63.755    19243.167    14655.560     4064.680        9.169        1.898      381.323       52.807        0.019      336.936        8.568      863.008
01/08/2014  02:04:00     -178.156      -89.293      -10.395      113.777       85.106       55.093    12945.314     7243.003     3035.205        3.152        1.161      199.281       64.488        0.105      336.822        8.378      863.025
01/08/2014  02:05:00     -241.368     -106.475      -14.504      106.669      108.494       57.086    11378.170    11770.857     3258.867        4.810        1.320      263.810       48.268        0.033      336.816        8.368      863.033
01/08/2014  02:06:00     -228.489      -72.326        0.611      148.155      116.434       65.152    21949.822    13556.948     4244.791        4.859        1.988      239.663       70.356        0.086      336.823        8.381      863.038
01/08/2014  02:07:00     -336.474      -99.433       -9.923      153.836      106.848       76.929    23665.437    11416.411     5918.122        8.209        2.050      350.859       82.016        0.055      336.872        8.461      863.018
01/08/2014  02:08:00     -247.885       -4.275       -4.374      111.753      121.779       52.056    12488.777    14830.199     2709.814        4.575        1.501      247.922       41.359        0.028      336.765        8.283      863.039
01/08/2014  02:09:00     -209.756      -85.714       -7.314      120.043       77.207       49.701    14410.213     5960.876     2470.182        3.712        1.142      226.593       59.027        0.068      336.725        8.217      863.024
01/08/2014  02:10:00     -232.710      -59.213      -25.593      141.724       76.569       45.348    20085.695     5862.742     2056.458        4.316        1.400      240.125       34.716        0.021      336.739        8.240      863.014
01/08/2014  02:11:00     -224.095      -73.754      -13.425       98.371       83.326       45.723     9676.943     6943.158     2090.600        3.727        0.936      235.920       43.037        0.033      336.679        8.139      863.027
01/08/2014  02:12:00     -275.515      -79.699      -26.228      133.131       61.361       48.802    17723.996     3765.150     2381.648        5.341        1.194      286.811       69.613        0.059      336.694        8.165      863.015
01/08/2014  02:13:00     -244.950      -56.245      -27.968       90.898       70.332       42.961     8262.435     4946.627     1845.671        3.950        0.753      251.324       44.345        0.031      336.676        8.136      863.032
01/08/2014  02:14:00     -395.952      -57.547      -25.029      102.841      113.777       65.579    10576.193    12945.310     4300.610        9.426        1.391      400.112       55.372        0.019      336.785        8.316      863.021
01/08/2014  02:15:00     -200.063      -49.493       -7.104      114.045       94.828       44.543    13006.198     8992.259     1984.086        3.325        1.199      206.094       50.068        0.059      336.673        8.130      863.037
01/08/2014  02:16:00     -109.047       14.351      -15.611       84.888       77.508       51.648     7205.936     6007.549     2667.540        1.411        0.794      109.987       47.599        0.187      336.622        8.047      863.027
01/08/2014  02:17:00     -245.277      -57.939      -24.678       67.391       56.404       34.465     4541.577     3181.455     1187.812        3.652        0.446      252.027       24.271        0.009      336.568        7.954      863.030
01/08/2014  02:18:00     -234.550      -91.133      -23.249       65.230       65.258       40.840     4254.892     4258.653     1667.904        3.702        0.509      251.633       27.980        0.012      336.526        7.882      863.027
01/08/2014  02:19:00     -176.689      -69.830      -29.492       84.524       62.899       44.046     7144.373     3956.310     1940.017        2.500        0.652      189.987       23.701        0.016      336.491        7.828      863.020
01/08/2014  02:20:00     -280.063      -22.574      -15.823      115.990       73.821       53.142    13453.645     5449.532     2824.098        5.046        1.086      280.971       59.360        0.045      336.636        8.068      863.023
01/08/2014  02:21:00     -169.884      -57.857      -13.477       59.426       62.111       32.823     3531.462     3857.768     1077.352        2.043        0.423      179.466       28.808        0.026      336.460        7.775      863.034
01/08/2014  02:22:00     -130.062      -73.071       -4.378       44.899       51.985       30.872     2015.948     2702.454      953.085        1.397        0.284      149.182       17.435        0.014      336.420        7.708      863.031
01/08/2014  02:23:00      -89.320      -45.815        6.686      103.840       55.004       44.518    10782.807     3025.475     1981.842        1.295        0.790      100.385       55.023        0.300      336.381        7.643      863.036
01/08/2014  02:24:00      -98.834      -46.668       -4.787       68.133       55.424       44.255     4642.057     3071.839     1958.486        1.082        0.484      109.298       26.703        0.060      336.373        7.630      863.025
01/08/2014  02:25:00       14.887      -36.285       19.505       46.212       38.333       24.923     2135.513     1469.433      621.132        0.307        0.211       39.220       23.823        0.369      336.295        7.501      863.021
01/08/2014  02:26:00      -37.925      -25.949       12.183       35.858       35.203       28.345     1285.823     1239.253      803.442        0.279        0.166       45.953       19.979        0.189      336.268        7.454      863.027
01/08/2014  02:27:00      -61.966      -44.357        5.093       64.533       50.885       32.167     4164.486     2589.236     1034.741        0.681        0.389       76.206       32.301        0.180      336.325        7.550      863.037
01/08/2014  02:28:00      -60.716      -27.239      -10.748       30.568       31.386       21.858      934.413      985.075      477.772        0.347        0.120       66.546       21.029        0.100      336.336        7.570      863.034
01/08/2014  02:29:00      -16.210        6.751        5.715       15.308       11.271       10.630      234.337      127.032      112.990        0.041        0.024       17.560        6.289        0.128      336.229        7.392      863.024
01/08/2014  02:30:00        9.609        9.494        9.005       13.182       15.691       13.454      173.756      246.212      181.008        0.043        0.030       13.508        7.338        0.295      336.179        7.307      863.016
01/08/2014  02:31:00      -59.787     -118.962       -3.173       30.083       70.218       22.078      904.996     4930.612      487.431        1.203        0.316      133.140       16.764        0.016      336.183        7.313      863.011
01/08/2014  02:32:00      -80.914      -90.994        2.464       44.495       44.226       26.940     1979.816     1955.972      725.755        0.975        0.233      121.766       25.708        0.045      336.024        7.049      863.013
01/08/2014  02:33:00      -30.967     -108.450       -6.326       49.333       25.927       20.743     2433.747      672.228      430.257        0.815        0.177      112.785       15.169        0.018      336.173        7.296      862.995
01/08/2014  02:34:00      -44.450      -67.386      -17.146       29.716       31.195       21.178      883.035      973.138      448.508        0.456        0.115       80.726       15.966        0.039      336.122        7.211      862.976
01/08/2014  02:35:00      -35.254      -62.140       -2.985       41.655       43.120       26.448     1735.115     1859.374      699.485        0.470        0.215       71.444       24.851        0.121      335.976        6.966      862.970
01/08/2014  02:36:00      -37.469      -76.972       -0.830       38.779       45.508       23.843     1503.803     2071.004      568.486        0.574        0.207       85.608       14.897        0.030      335.873        6.797      862.955
01/08/2014  02:37:00       -5.065      -56.300        7.570       26.092       38.297       27.405      680.817     1466.663      751.040        0.308        0.145       56.527       22.412        0.157      335.846        6.753      862.929
01/08/2014  02:38:00       49.791      -67.633       -3.924       51.799       32.776       24.021     2683.137     1074.251      576.990        0.570        0.217       83.984       16.307        0.038      335.851        6.760      862.908
01/08/2014  02:39:00       78.778      -49.009       16.684       35.628       34.638       23.033     1269.344     1199.811      530.523        0.594        0.150       92.779       24.512        0.070      336.030        7.058      862.899
01/08/2014  02:40:00        3.835      -33.731       11.614       25.166       44.072       26.228      633.321     1942.357      687.920        0.227        0.163       33.949       27.842        0.673      335.749        6.591      862.894
01/08/2014  02:41:00      -25.503      -52.388       -3.949       35.405       24.354       19.958     1253.531      593.105      398.340        0.283        0.112       58.266       17.361        0.089      335.671        6.459      862.903
01/08/2014  02:42:00       -6.328        5.763       10.407       11.071       19.165       12.383      122.558      367.304      153.340        0.041        0.032        8.559       12.284        2.060      335.647        6.421      862.892
01/08/2014  02:43:00      -59.832        2.837       -5.586       26.602       14.264        9.127      707.685      203.475       83.308        0.231        0.050       59.899        9.579        0.026      335.629        6.389      862.884
01/08/2014  02:44:00     -114.819      -55.314        2.207       59.425       34.229       23.246     3531.342     1171.639      540.379        1.074        0.262      127.448       23.439        0.034      335.435        6.067      862.915
01/08/2014  02:45:00      -91.441     -106.058        4.713       50.932       38.757       30.917     2594.037     1502.098      955.854        1.234        0.253      140.034       30.037        0.046      335.524        6.214      862.944
01/08/2014  02:46:00      -12.952      -72.938       10.739       78.426       83.173       26.365     6150.632     6917.691      695.098        0.968        0.688       74.079       38.204        0.266      335.701        6.511      862.959
01/08/2014  02:47:00       28.310      161.487      157.170       54.527       70.386       59.120     2973.192     4954.178     3495.150        3.150        0.571      163.949       62.098        0.143      335.619        6.369      862.874
01/08/2014  02:48:00       26.778       82.356      127.596       64.065       90.812       64.190     4104.296     8246.857     4120.307        2.012        0.824       86.600       69.329        0.641      335.649        6.421      862.813
01/08/2014  02:49:00       66.939       -6.785       45.139       53.242       82.781       54.556     2834.710     6852.720     2976.396        0.961        0.633       67.282       53.156        0.624      336.020        7.041      862.856
01/08/2014  02:50:00      -36.282      -33.581        3.137       87.665       40.582       37.727     7685.173     1646.914     1423.303        0.660        0.538       49.437       46.611        0.889      335.945        6.918      862.910
01/08/2014  02:51:00     -185.565     -101.407       -6.311       90.546       97.645       38.414     8198.541     9534.497     1475.628        3.198        0.960      211.466       38.902        0.034      335.520        6.206      862.941
01/08/2014  02:52:00     -132.910      -37.793       -1.318       65.841       71.897       31.300     4335.088     5169.233      979.703        1.479        0.524      138.179       32.244        0.054      335.445        6.081      862.978
01/08/2014  02:53:00       -5.123        0.831       27.234       33.237       46.668       37.379     1104.697     2177.900     1397.208        0.272        0.234        5.190       36.366       49.102      335.461        6.110      862.943
01/08/2014  02:54:00       -6.099       42.260       63.206       21.046       35.968       28.934      442.932     1293.725      837.153        0.420        0.129       42.698       27.172        0.405      335.565        6.284      862.894
01/08/2014  02:55:00      -34.348       -4.281       13.490       29.939       31.416       20.367      896.317      986.947      414.832        0.184        0.115       34.614       19.040        0.303      335.589        6.324      862.929
01/08/2014  02:56:00      -58.817       -9.141        1.894       33.439       32.986       19.215     1118.191     1088.063      369.204        0.306        0.129       59.523       19.954        0.112      335.480        6.141      862.967
01/08/2014  02:57:00       18.079      -19.367        5.710       15.986       12.516       11.733      255.563      156.654      137.675        0.064        0.027       26.493        8.160        0.095      335.477        6.134      862.980
01/08/2014  02:58:00       53.703       40.492       24.184       27.688       34.622       17.367      766.626     1198.685      301.600        0.369        0.113       67.257       16.699        0.062      335.396        6.000      862.962
01/08/2014  02:59:00        6.856       60.791       -8.733       45.560       43.035       22.601     2075.726     1852.043      510.827        0.413        0.222       61.177       16.674        0.074      335.293        5.831      862.975
01/08/2014  03:00:00      -76.952       63.700      -13.412       42.703       44.598       19.178     1823.580     1988.986      367.812        0.717        0.209       99.896       13.985        0.020      335.525        6.215      863.043
01/08/2014  03:01:00      -76.267       19.147       -5.808       25.130       23.511       13.365      631.540      552.766      178.637        0.379        0.068       78.634       12.523        0.025      335.358        5.937      863.091
01/08/2014  03:02:00       33.902        3.320        1.083       35.938       16.542       12.540     1291.568      273.647      157.264        0.144        0.086       34.064        7.477        0.048      335.448        6.088      863.093
01/08/2014  03:03:00        1.278       49.485       55.714       25.230       34.152       33.719      636.567     1166.355     1136.982        0.425        0.147       49.501       23.202        0.220      335.332        5.895      863.094
01/08/2014  03:04:00       15.777       90.002       85.856       51.118       56.362       43.130     2613.091     3176.657     1860.193        1.168        0.382       91.375       32.636        0.128      335.383        5.980      863.096
01/08/2014  03:05:00       35.576       82.578      102.548       38.369       50.548       30.457     1472.178     2555.052      927.619        1.178        0.248       89.916       25.686        0.082      335.149        5.592      863.079
01/08/2014  03:06:00       81.241       52.637       44.345       37.449       31.284       28.361     1402.395      978.683      804.341        0.726        0.159       96.803       19.271        0.040      335.110        5.527      863.088
01/08/2014  03:07:00      125.160        9.144        6.495       64.219       44.796       40.801     4124.022     2006.680     1664.700        1.179        0.390      125.494       27.416        0.048      335.127        5.555      863.081
01/08/2014  03:08:00      150.712       67.023       13.938       55.285       35.612       33.334     3056.443     1268.215     1111.162        1.642        0.272      164.943       17.277        0.011      335.019        5.376      863.027
01/08/2014  03:09:00      178.162       84.521       16.383       54.780       43.912       50.072     3000.827     1928.226     2507.197        2.329        0.372      197.194       34.929        0.031      335.034        5.400      862.977
01/08/2014  03:10:00      155.572      108.567       17.388       49.612       44.938       36.182     2461.385     2019.403     1309.150        2.104        0.289      189.709       24.755        0.017      335.014        5.366      862.951
01/08/2014  03:11:00      127.159       81.508       39.326       58.592       43.092       42.606     3432.985     1856.937     1815.299        1.573        0.355      151.039       29.354        0.038      334.882        5.147      862.940
01/08/2014  03:12:00      191.018      125.862       29.262       47.501       34.156       36.304     2256.310     1166.614     1317.987        2.896        0.237      228.756       23.200        0.010      335.015        5.366      862.968
01/08/2014  03:13:00      158.524      123.682       21.772       63.858       37.845       37.043     4077.897     1432.248     1372.197        2.389        0.344      201.065       28.354        0.020      335.142        5.577      862.985
01/08/2014  03:14:00      178.292      101.937       20.152       55.629       48.719       34.275     3094.573     2373.502     1174.801        2.461        0.332      205.376       21.251        0.011      335.113        5.528      862.997
01/08/2014  03:15:00      143.182      101.018       28.752       56.733       31.904       40.913     3218.613     1017.858     1673.870        1.872        0.296      175.231       36.041        0.042      335.147        5.587      863.001
01/08/2014  03:16:00       46.414       63.218       52.089       35.780       31.418       28.181     1280.229      987.093      794.173        0.596        0.153       78.427       16.203        0.043      334.996        5.337      863.010
01/08/2014  03:17:00       48.998       18.668       23.065       36.801       18.810       25.817     1354.350      353.828      666.500        0.283        0.119       52.434       17.226        0.108      334.991        5.329      863.023
01/08/2014  03:18:00       59.799       37.253       59.439       42.219       44.240       39.566     1782.480     1957.191     1565.457        0.690        0.265       70.454       34.446        0.239      335.150        5.592      863.021
01/08/2014  03:19:00       63.657        9.436       58.387       59.620       78.155       62.077     3554.494     6108.136     3853.510        1.053        0.676       64.352       55.739        0.750      335.165        5.619      863.002
01/08/2014  03:20:00        3.046       80.110      113.350       37.017       53.322       37.515     1370.291     2843.203     1407.397        1.245        0.281       80.168       35.929        0.201      335.124        5.549      862.972
01/08/2014  03:21:00       10.521       76.498      104.638       39.883       48.207       36.792     1590.669     2323.905     1353.645        1.109        0.263       77.218       35.449        0.211      335.127        5.556      862.968
01/08/2014  03:22:00       31.111       24.345       57.451       39.836       38.786       39.500     1586.917     1504.350     1560.213        0.476        0.233       39.504       31.297        0.628      335.132        5.563      862.966
01/08/2014  03:23:00       35.953       40.096       72.816       44.992       44.237       39.068     2024.301     1956.955     1526.318        0.685        0.275       53.854       32.246        0.359      335.196        5.669      862.945
01/08/2014  03:24:00       52.388       43.636       73.225       56.376       61.514       45.459     3178.212     3784.019     2066.564        0.952        0.451       68.181       49.718        0.532      335.209        5.690      862.925
01/08/2014  03:25:00       41.473       56.453       61.407       36.003       27.351       28.022     1296.237      748.079      785.223        0.575        0.141       70.050       19.645        0.079      335.199        5.674      862.904
01/08/2014  03:26:00       48.992       44.111       -0.408       50.798       33.032       26.202     2580.392     1091.098      686.521        0.435        0.218       65.924       18.970        0.083      335.045        5.418      862.878
01/08/2014  03:27:00       77.298       50.130        1.152       42.018       32.874       27.397     1765.532     1080.723      750.581        0.604        0.180       92.131       19.696        0.046      335.153        5.597      862.870
01/08/2014  03:28:00       81.381       23.757       15.311       34.783       15.002       23.067     1209.888      225.062      532.081        0.469        0.098       84.778       11.835        0.019      335.242        5.743      862.879
01/08/2014  03:29:00       -5.148      -39.240        4.067       21.490       24.987       11.422      461.840      624.327      130.469        0.140        0.061       39.576       10.587        0.072      335.201        5.678      862.883
01/08/2014  03:30:00      -50.221      -69.183        6.334       55.303       65.300       26.884     3058.427     4264.144      722.724        0.770        0.402       85.490       37.241        0.190      335.185        5.650      862.886
01/08/2014  03:31:00      -24.832      -14.037       17.137       45.203       42.577       25.369     2043.270     1812.790      643.562        0.280        0.225       28.525       28.873        1.025      335.216        5.702      862.869
01/08/2014  03:32:00       63.839      -41.871       25.566       67.842       87.283       68.332     4602.559     7618.361     4669.242        1.168        0.845       76.346       66.594        0.761      335.359        5.939      862.841
01/08/2014  03:33:00       17.846       26.917       68.323       43.204       64.704       50.752     1866.555     4186.609     2575.762        0.717        0.431       32.295       47.210        2.137      335.284        5.816      862.827
01/08/2014  03:34:00       63.922      -48.171       40.841       55.345       67.778       51.853     3063.117     4593.812     2688.717        0.921        0.517       80.041       54.629        0.466      335.299        5.838      862.852
01/08/2014  03:35:00       83.357      -87.644       -2.228       52.175       51.839       27.522     2722.249     2687.326      757.478        1.040        0.308      120.954       24.381        0.041      335.402        6.010      862.876
01/08/2014  03:36:00       84.568      -92.724      -17.386       40.992       58.821       26.753     1680.342     3459.855      715.703        1.095        0.293      125.497       15.721        0.016      335.443        6.081      862.887
01/08/2014  03:37:00       67.693      -97.992      -16.523       56.556       31.038       20.099     3198.529      963.363      403.964        0.951        0.228      119.100       14.466        0.015      335.490        6.158      862.894
01/08/2014  03:38:00       26.243      -49.341        8.473       32.182       27.433       29.426     1035.671      752.558      865.881        0.292        0.133       55.886        4.803        0.007      335.532        6.227      862.882
01/08/2014  03:39:00        9.232       13.944       41.151       17.101       32.929       17.010      292.439     1084.299      289.349        0.182        0.083       16.723       16.329        0.954      335.364        5.948      862.838
01/08/2014  03:40:00        6.679       23.142       50.305       23.529       30.476       25.497      553.617      928.799      650.072        0.262        0.107       24.087       24.520        1.036      335.350        5.923      862.792
01/08/2014  03:41:00       30.114      -40.094       11.064       36.352       48.648       22.715     1321.466     2366.657      515.960        0.342        0.210       50.144       31.719        0.400      335.465        6.116      862.765
01/08/2014  03:42:00       -1.282      -50.459       -2.076       34.973       31.757       17.981     1223.112     1008.531      323.325        0.255        0.128       50.475       18.684        0.137      335.335        5.901      862.776
01/08/2014  03:43:00      -39.148      -11.825       -7.576       16.306        9.904        9.412      265.898       98.098       88.585        0.109        0.023       40.895        6.743        0.027      335.023        5.382      862.803
01/08/2014  03:44:00      -68.744       18.686      -10.391       14.459       12.728       11.385      209.049      162.007      129.612        0.284        0.025       71.238       10.394        0.021      335.149        5.590      862.829
01/08/2014  03:45:00      -83.201       38.489      -17.422        8.695        9.462        8.873       75.598       89.539       78.731        0.448        0.012       91.672        2.002        0.000      335.271        5.794      862.845
01/08/2014  03:46:00      -79.546       18.867      -13.204       15.293       13.332       10.463      233.890      177.742      109.475        0.369        0.026       81.753        8.530        0.011      335.315        5.866      862.866
01/08/2014  03:47:00      -66.413       -7.641      -10.765        7.719       14.683        7.920       59.579      215.603       62.720        0.246        0.017       66.852        5.027        0.006      335.485        6.151      862.880
01/08/2014  03:48:00      -44.995      -34.679        0.168       29.043       16.139       13.416      843.523      260.477      179.984        0.226        0.064       56.809       16.579        0.085      335.264        5.782      862.874
01/08/2014  03:49:00      -75.575      -49.786       -1.220       16.002       13.198        8.922      256.074      174.179       79.596        0.435        0.025       90.500        7.181        0.006      335.236        5.735      862.857
01/08/2014  03:50:00      -59.528      -31.501       -2.653       17.356       11.786        9.021      301.245      138.914       81.372        0.253        0.026       67.349        5.524        0.007      335.176        5.636      862.843
01/08/2014  03:51:00        0.036       -4.935       -0.291       19.066       11.242        5.908      363.514      126.373       34.910        0.027        0.026        4.935        6.486        1.727      335.132        5.562      862.821
01/08/2014  03:52:00       -0.227       15.712       -4.291       23.528        5.944        7.931      553.544       35.328       62.895        0.046        0.033       15.713       11.482        0.534      335.335        5.899      862.801
01/08/2014  03:53:00       19.996       35.224        8.651       22.409       20.801        9.765      502.183      432.682       95.350        0.137        0.052       40.504       10.776        0.071      335.657        6.438      862.779
01/08/2014  03:54:00       11.797       15.014        8.385       25.434       13.573       10.202      646.865      184.239      104.077        0.068        0.047       19.094       11.526        0.364      335.530        6.225      862.765
01/08/2014  03:55:00      -70.317       24.647       -7.546       25.947       18.776        9.557      673.238      352.552       91.342        0.336        0.056       74.511        8.144        0.012      335.026        5.387      862.768
01/08/2014  03:56:00     -106.241        5.940      -11.038       28.678       25.134       13.538      822.419      631.709      183.268        0.654        0.082      106.407        9.658        0.008      334.644        4.753      862.778
01/08/2014  03:57:00     -138.350      -38.003      -11.847       29.889       33.752       16.891      893.382     1139.167      285.311        1.152        0.116      143.475       14.846        0.011      334.628        4.725      862.789
01/08/2014  03:58:00     -125.490      -20.385       -5.873       29.462       25.207       24.131      868.012      635.390      582.314        0.914        0.104      127.135       18.936        0.022      334.542        4.583      862.797
01/08/2014  03:59:00     -117.315      -13.171       -7.624       22.650       22.243       13.749      513.012      494.768      189.024        0.760        0.060      118.052        7.659        0.004      334.491        4.498      862.816
01/08/2014  04:00:00     -107.858        2.433       -8.787       48.183       27.085       19.568     2321.592      733.575      382.914        0.758        0.172      107.886       19.450        0.033      334.735        4.903      862.843
01/08/2014  04:01:00     -102.257       45.218      -10.093       58.266       41.950       27.222     3394.947     1759.804      741.020        0.925        0.295      111.809       28.895        0.067      334.847        5.090      862.886
01/08/2014  04:02:00     -137.207       53.976       -9.371       57.549       32.505       25.790     3311.864     1056.594      665.127        1.343        0.252      147.442       20.261        0.019      334.802        5.016      862.920
01/08/2014  04:03:00     -190.828       76.727      -24.589       51.620       57.036       32.152     2664.611     3253.058     1033.725        2.493        0.348      205.675       24.658        0.014      334.732        4.895      862.955
01/08/2014  04:04:00     -150.717        7.225      -16.334       53.372       76.866       34.401     2848.532     5908.403     1183.457        1.649        0.497      150.890       37.723        0.063      334.666        4.787      862.961
01/08/2014  04:05:00     -122.415       13.495      -19.564       35.739       41.845       19.164     1277.310     1751.013      367.255        0.947        0.170      123.156       16.862        0.019      334.898        5.175      862.948
01/08/2014  04:06:00      -61.542      -17.325      -10.915       26.230       18.927       16.295      688.022      358.245      265.527        0.276        0.066       63.935        9.016        0.020      334.755        4.937      862.928
01/08/2014  04:07:00      -46.616      -30.301        2.187       31.345       17.135       15.240      982.540      293.614      232.248        0.230        0.075       55.599       11.145        0.040      334.659        4.778      862.930
01/08/2014  04:08:00      -20.477      -26.498       -4.459       26.861       22.728       13.118      721.531      516.547      172.085        0.128        0.071       33.489       10.324        0.095      334.505        4.521      862.957
01/08/2014  04:09:00        3.635       -2.636        5.215       14.648       20.776       21.112      214.572      431.661      445.725        0.057        0.055        4.490       15.647       12.141      334.596        4.673      862.951
01/08/2014  04:10:00       -1.244        5.009       53.147       18.433       32.427       15.408      339.791     1051.492      237.405        0.224        0.081        5.161       14.054        7.415      334.474        4.470      862.924
01/08/2014  04:11:00       27.002      -36.042       23.205       36.870       50.246       42.782     1359.406     2524.642     1830.325        0.414        0.286       45.035       31.286        0.483      334.474        4.471      862.885
01/08/2014  04:12:00       52.288     -115.621      -27.462       36.553       52.439       27.405     1336.087     2749.863      751.008        1.085        0.242      126.895       24.707        0.038      334.639        4.743      862.865
01/08/2014  04:13:00       27.316      -63.921        0.744       38.926       42.937       34.538     1515.198     1843.579     1192.897        0.469        0.228       69.513        9.622        0.019      334.681        4.813      862.859
01/08/2014  04:14:00       17.499      -68.323       -2.878       34.035       44.979       35.954     1158.413     2023.154     1292.670        0.473        0.224       70.529       29.511        0.175      334.733        4.900      862.861
01/08/2014  04:15:00       -9.027      -45.205      -14.790       29.182       34.780       19.984      851.614     1209.657      399.348        0.240        0.123       46.097       23.523        0.260      334.621        4.716      862.852
01/08/2014  04:16:00       22.942       14.679       18.424       22.308       17.620       15.960      497.667      310.477      254.718        0.107        0.053       27.236       10.933        0.161      334.429        4.396      862.826
01/08/2014  04:17:00       55.131       33.269       22.157       26.976       13.713       18.048      727.731      188.047      325.738        0.294        0.062       64.391       14.787        0.053      334.509        4.529      862.809
01/08/2014  04:18:00       45.032       -0.058       10.860       39.265       18.678       18.553     1541.705      348.868      344.202        0.219        0.112       45.032       23.547        0.273      334.669        4.793      862.824
01/08/2014  04:19:00      -16.020        7.281       20.377       16.962       17.263       14.583      287.696      297.997      212.659        0.076        0.040       17.597       15.183        0.745      334.579        4.644      862.852
01/08/2014  04:20:00      -45.287       35.350       -1.400       30.915       24.291       17.833      955.752      590.069      318.007        0.258        0.093       57.451       17.531        0.093      334.461        4.449      862.886
01/08/2014  04:21:00      -51.840       30.880       -4.818       13.935       14.235       10.542      194.196      202.636      111.129        0.209        0.025       60.340        7.633        0.016      334.571        4.633      862.915
01/08/2014  04:22:00      -42.309       32.893       -3.097       22.482       15.010       12.088      505.440      225.311      146.108        0.188        0.044       53.591        7.643        0.020      334.568        4.627      862.931
01/08/2014  04:23:00      -25.375       39.399       -5.193       17.638       14.689       11.617      311.105      215.764      134.965        0.144        0.033       46.863        5.701        0.015      334.478        4.476      862.947
01/08/2014  04:24:00        0.208      -14.437        4.501       12.090       35.379       10.940      146.174     1251.699      119.674        0.087        0.076       14.439       13.831        0.918      334.482        4.485      862.943
01/08/2014  04:25:00       28.144     -100.729      -21.261       27.316       19.257       17.515      746.168      370.840      306.775        0.641        0.071      104.587       10.525        0.010      334.353        4.271      862.941
01/08/2014  04:26:00       -8.211      -46.531        5.442       25.196       37.790       35.237      634.822     1428.098     1241.613        0.278        0.165       47.250       31.745        0.451      334.399        4.347      862.945
01/08/2014  04:27:00       -5.523       13.442       13.942       14.124       13.015       13.365      199.488      169.395      178.622        0.048        0.027       14.533        5.181        0.127      334.297        4.176      862.934
01/08/2014  04:28:00        7.234       18.678       17.136       15.272       10.977       13.022      233.238      120.501      169.584        0.061        0.026       20.030        8.687        0.188      334.228        4.062      862.912
01/08/2014  04:29:00       27.124       46.222       -4.219       13.929       23.163       12.377      194.007      536.537      153.179        0.189        0.044       53.593       12.603        0.055      334.126        3.893      862.891
01/08/2014  04:30:00       43.066       77.579      -11.613       16.459       16.973       12.536      270.893      288.071      157.148        0.436        0.036       88.731       10.271        0.013      334.174        3.971      862.878
01/08/2014  04:31:00       35.443      107.066      -17.857       15.839       21.100       17.513      250.882      445.191      306.689        0.702        0.050      112.780       10.564        0.009      334.299        4.181      862.881
01/08/2014  04:32:00       20.418       85.660      -16.962       16.526       19.032       10.742      273.106      362.216      115.380        0.440        0.038       88.060       11.934        0.018      334.504        4.521      862.908
01/08/2014  04:33:00       -1.415       37.117       -6.240       14.370       23.155        8.441      206.488      536.145       71.256        0.112        0.041       37.144       10.704        0.083      334.502        4.518      862.948
01/08/2014  04:34:00      -46.117        2.054       -5.936       14.149       14.274        8.260      200.185      203.743       68.233        0.132        0.024       46.162        3.431        0.006      334.165        3.958      862.974
01/08/2014  04:35:00      -64.415       -4.324       -8.898       16.842       13.215       10.298      283.657      174.632      106.056        0.241        0.028       64.560        9.669        0.022      333.836        3.412      862.983
01/08/2014  04:36:00       -9.863       13.721       -5.878       41.043        8.767        7.652     1684.536       76.865       58.549        0.107        0.091       16.898        6.620        0.153      334.196        4.009      862.962
01/08/2014  04:37:00       60.313       19.831        5.651       15.623       16.326       16.764      244.064      266.530      281.024        0.243        0.040       63.489        8.885        0.020      334.177        3.977      862.934
01/08/2014  04:38:00       83.658       30.007        3.076       16.243       10.723       12.603      263.849      114.983      158.830        0.422        0.027       88.877        6.699        0.006      334.166        3.960      862.928
01/08/2014  04:39:00       45.038       22.804        7.287       18.018       15.480       10.045      324.632      239.633      100.900        0.163        0.033       50.483        7.539        0.022      334.226        4.060      862.943
01/08/2014  04:40:00       18.405       12.753        3.469       11.973        7.059        5.737      143.342       49.835       32.908        0.037        0.011       22.392        6.451        0.083      334.285        4.160      862.980
01/08/2014  04:41:00        6.088       14.433       -0.859        8.582        9.427        7.419       73.653       88.862       55.036        0.023        0.011       15.665        3.977        0.064      334.333        4.238      863.015
01/08/2014  04:42:00      -11.266       14.276        2.268       14.738       14.426        4.272      217.203      208.124       18.247        0.039        0.022       18.186        6.264        0.119      334.173        3.971      863.024
01/08/2014  04:43:00      -26.575       16.459      -10.199       16.953       19.737       12.689      287.397      389.548      161.010        0.096        0.042       31.259        4.349        0.019      334.065        3.792      863.035
01/08/2014  04:44:00      -52.948        4.970       -0.217       37.331       20.869       19.135     1393.633      435.531      366.155        0.251        0.110       53.181       20.907        0.155      333.811        3.371      863.041
01/08/2014  04:45:00     -109.477      -24.230      -16.787       29.376       25.670       14.445      862.971      658.972      208.649        0.729        0.087      112.126       11.213        0.010      333.685        3.160      863.059
01/08/2014  04:46:00      -45.005      -23.126       -0.848       49.258       36.133       14.450     2426.391     1305.558      208.800        0.325        0.197       50.599       14.260        0.079      333.659        3.118      863.067
01/08/2014  04:47:00      -57.629       36.562      -17.876       21.604       16.455       14.703      466.720      270.763      216.164        0.297        0.048       68.248        4.731        0.005      334.124        3.891      863.053
01/08/2014  04:48:00      -46.036       63.646      -18.593       16.056       15.135       12.100      257.791      229.070      146.416        0.357        0.032       78.550        4.769        0.004      334.613        4.700      863.029
01/08/2014  04:49:00      -40.662       29.074       -9.448       17.390       19.028       11.967      302.401      362.080      143.199        0.170        0.040       49.987       11.478        0.053      334.274        4.140      863.011
01/08/2014  04:50:00      -32.506      -13.014       -4.682       10.389       12.156       12.182      107.933      147.775      148.401        0.083        0.020       35.015        6.458        0.034      333.950        3.601      863.007
01/08/2014  04:51:00      -42.621      -15.568       -3.956        9.340       13.859       10.205       87.235      192.084      104.141        0.123        0.019       45.375        6.607        0.021      333.827        3.398      863.021
01/08/2014  04:52:00      -40.068       -7.525       -2.507       13.641       14.180        7.520      186.079      201.071       56.555        0.106        0.022       40.768        7.125        0.031      333.856        3.446      863.022
01/08/2014  04:53:00       -7.797       11.245       -3.128       25.307       14.829        8.361      640.447      219.889       69.901        0.056        0.047       13.684        8.413        0.378      334.261        4.118      863.010
01/08/2014  04:54:00       18.007       18.171        3.548       18.300       18.020       16.277      334.904      324.733      264.954        0.080        0.046       25.582       13.919        0.296      334.496        4.508      862.996
01/08/2014  04:55:00       11.754        3.724        9.164       22.170       17.818       11.255      491.519      317.482      126.683        0.059        0.047       12.330        7.876        0.408      334.385        4.324      862.986
01/08/2014  04:56:00      -51.749      -13.552       -6.619       26.936       10.896        9.096      725.553      118.726       82.734        0.192        0.046       53.494       12.938        0.058      333.669        3.136      862.983
01/08/2014  04:57:00      -83.882      -25.029      -14.098        7.547        7.250        6.298       56.951       52.561       39.666        0.401        0.007       87.537        3.688        0.002      333.433        2.742      862.989
01/08/2014  04:58:00     -108.966      -23.450      -15.068       19.512       15.172        8.067      380.720      230.183       65.080        0.666        0.034      111.461        7.311        0.004      333.479        2.821      862.994
01/08/2014  04:59:00     -117.604      -36.573      -16.889        9.633       12.549        8.360       92.802      157.480       69.883        0.789        0.016      123.160        5.673        0.002      333.642        3.090      862.986
01/08/2014  05:00:00     -101.125      -32.485      -12.887       12.142       12.628        6.746      147.428      159.463       45.508        0.590        0.018      106.215        4.587        0.002      333.637        3.081      863.005
01/08/2014  05:01:00      -89.257      -16.426      -13.794       13.086       11.561        7.764      171.238      133.659       60.285        0.440        0.018       90.756        4.274        0.002      333.673        3.142      863.011
01/08/2014  05:02:00      -74.577       -6.196      -14.965        8.330        7.773        6.435       69.394       60.414       41.407        0.300        0.009       74.834        3.372        0.002      333.670        3.137      863.023
01/08/2014  05:03:00      -97.474        5.227      -19.374       23.216        9.931        9.000      539.000       98.627       81.001        0.531        0.036       97.614        7.459        0.006      333.790        3.335      863.034
01/08/2014  05:04:00      -96.827        1.633      -17.808        9.179       13.051        8.989       84.257      170.330       80.808        0.502        0.017       96.840        5.736        0.004      333.897        3.514      863.052
01/08/2014  05:05:00      -72.125      -26.195      -11.904       14.075       20.990       11.041      198.093      440.581      121.893        0.340        0.038       76.735        9.984        0.017      333.652        3.107      863.067
01/08/2014  05:06:00      -63.272      -21.054      -11.228       16.324       13.885       14.018      266.476      192.797      196.507        0.261        0.033       66.683        6.272        0.009      333.627        3.066      863.077
01/08/2014  05:07:00      -75.340       -9.446      -11.042       14.228       14.863       11.493      202.442      220.897      132.086        0.322        0.028       75.930        5.930        0.006      333.488        2.836      863.072
01/08/2014  05:08:00      -72.599      -13.840      -14.093       21.391       16.720       10.709      457.568      279.551      114.685        0.326        0.043       73.907       10.697        0.021      333.487        2.832      863.064
01/08/2014  05:09:00      -70.716      -13.902       -8.057       26.241       21.479       12.704      688.606      461.339      161.388        0.328        0.066       72.070       10.755        0.022      333.394        2.681      863.057
01/08/2014  05:10:00      -46.114      -28.592       -4.321       21.213       23.016       14.442      450.012      529.743      208.577        0.208        0.059       54.259        8.894        0.027      333.328        2.571      863.056
01/08/2014  05:11:00        3.147        6.572        5.541       16.099       11.169       13.155      259.167      124.747      173.059        0.032        0.028        7.286        8.395        1.328      333.191        2.342      863.068
01/08/2014  05:12:00      -56.514      -18.006       -9.119       41.306       17.749       10.076     1706.160      315.013      101.533        0.286        0.106       59.313       13.462        0.052      333.500        2.856      863.080
01/08/2014  05:13:00     -103.586        1.306      -10.353       30.890       41.151       22.067      954.177     1693.440      486.970        0.699        0.157      103.595       19.199        0.034      333.684        3.160      863.081
01/08/2014  05:14:00     -104.570      -22.030      -14.436       30.155       34.789       17.836      909.311     1210.269      318.117        0.703        0.122      106.866       12.594        0.014      333.425        2.729      863.088
01/08/2014  05:15:00     -101.348      -25.555       -7.574       29.878       22.047       16.797      892.713      486.051      282.128        0.632        0.083      104.520       12.475        0.014      333.253        2.447      863.100
01/08/2014  05:16:00     -139.858      -37.671      -12.150       35.919       33.480       24.319     1290.182     1120.929      591.421        1.206        0.150      144.843       20.379        0.020      333.068        2.141      863.113
01/08/2014  05:17:00      -79.950      -19.995        7.623       52.124       42.418       31.564     2716.927     1799.299      996.313        0.618        0.276       82.413       31.957        0.150      333.011        2.047      863.117
01/08/2014  05:18:00      -44.258       -6.122        5.709       39.154       31.728       28.232     1533.054     1006.695      797.029        0.268        0.167       44.679       20.480        0.210      333.129        2.242      863.120
01/08/2014  05:19:00      -49.925      -13.487       -1.726       42.470       34.959       24.243     1803.663     1222.100      587.702        0.314        0.181       51.715       20.415        0.156      333.147        2.271      863.132
01/08/2014  05:20:00      -84.309      -38.336       -4.556       41.599       39.674       25.011     1730.512     1573.987      625.555        0.626        0.197       92.615       19.277        0.043      333.130        2.243      863.161
01/08/2014  05:21:00      -63.483       -6.439       -5.320       20.470       22.403       18.285      419.008      501.906      334.323        0.268        0.063       63.809       11.517        0.033      333.044        2.100      863.190
01/08/2014  05:22:00      -69.059      -18.581       -7.811       34.579       22.729       14.015     1195.737      516.605      196.424        0.354        0.095       71.515       10.141        0.020      332.973        1.983      863.217
01/08/2014  05:23:00      -80.353       21.640       -9.809       56.152       25.324       14.411     3153.072      641.318      207.683        0.551        0.200       83.216       12.993        0.024      333.008        2.041      863.240
01/08/2014  05:24:00      -63.976       -2.321       -6.909       33.405       17.090       14.501     1115.885      292.059      210.272        0.288        0.081       64.018       12.154        0.036      333.003        2.033      863.257
01/08/2014  05:25:00      -68.413       11.012       -4.073       30.804       30.832       20.412      948.872      950.621      416.643        0.357        0.116       69.293       11.616        0.028      333.013        2.051      863.261
01/08/2014  05:26:00      -23.322      -11.751       -9.454       15.910       10.078       13.519      253.123      101.572      182.770        0.065        0.027       26.115       10.418        0.159      332.992        2.014      863.261
01/08/2014  05:27:00      -44.557      -18.757      -15.989       17.172       11.930       13.054      294.861      142.336      170.403        0.160        0.030       48.344        6.942        0.021      333.010        2.044      863.272
01/08/2014  05:28:00      -70.324      -25.026      -12.031       27.288       19.596       20.539      744.652      384.017      421.844        0.363        0.078       74.645       15.836        0.045      332.940        1.928      863.297
01/08/2014  05:29:00      -91.404      -48.858      -19.715       31.635       26.113       22.824     1000.785      681.877      520.915        0.667        0.110      103.643       17.339        0.028      332.901        1.866      863.323
01/08/2014  05:30:00      -77.566      -43.308      -21.825       39.352       27.666       21.325     1548.574      765.389      454.741        0.557        0.138       88.838       20.461        0.053      332.866        1.807      863.322
01/08/2014  05:31:00      -50.395      -47.358       -1.788       35.455       26.626       24.260     1257.083      708.969      588.560        0.367        0.128       69.155       20.301        0.086      332.855        1.791      863.316
01/08/2014  05:32:00      -95.568      -40.630      -11.813       29.919       29.026       19.319      895.143      842.504      373.216        0.652        0.106      103.846       16.755        0.026      332.864        1.807      863.322
01/08/2014  05:33:00     -108.107      -40.820      -14.049       20.039       22.927       14.496      401.562      525.667      210.128        0.734        0.057      115.557        8.384        0.005      332.878        1.828      863.333
01/08/2014  05:34:00      -87.102      -49.285       -8.472       28.157       26.629       15.867      792.809      709.130      251.770        0.592        0.088      100.079       12.289        0.015      332.838        1.762      863.346
01/08/2014  05:35:00      -89.111      -12.152       -3.034       19.845       16.506       14.120      393.839      272.450      199.378        0.448        0.043       89.936       11.739        0.017      332.768        1.646      863.358
01/08/2014  05:36:00      -95.780      -15.202      -10.657       25.084       24.024       14.714      629.187      577.143      216.498        0.547        0.071       96.979       10.348        0.011      332.834        1.755      863.364
01/08/2014  05:37:00      -88.505      -14.132      -10.498       21.499       26.442       13.086      462.212      699.160      171.244        0.474        0.067       89.626        9.056        0.010      332.891        1.849      863.371
01/08/2014  05:38:00      -75.120      -30.481      -18.987       22.025       25.511       14.296      485.100      650.791      204.390        0.414        0.067       81.068       13.495        0.028      332.899        1.862      863.387
01/08/2014  05:39:00      -73.929      -34.145       -6.409       32.057       20.490       13.421     1027.665      419.856      180.111        0.415        0.081       81.433       11.860        0.021      332.872        1.818      863.395
01/08/2014  05:40:00     -128.880      -21.338      -15.064       30.088       20.796       15.907      905.313      432.493      253.032        0.944        0.080      130.634       13.210        0.010      332.792        1.686      863.380
01/08/2014  05:41:00     -127.042      -38.935      -14.057       17.608       16.572       11.992      310.027      274.646      143.809        0.929        0.036      132.874        2.801        0.000      332.761        1.634      863.351
01/08/2014  05:42:00     -113.462      -46.820      -14.182       23.692       20.162       18.543      561.321      406.500      343.858        0.829        0.066      122.743        9.581        0.006      332.781        1.668      863.351
01/08/2014  05:43:00      -74.693      -41.106      -10.290       21.061       19.415       13.325      443.560      376.954      177.551        0.419        0.050       85.257        3.856        0.002      332.796        1.691      863.359
01/08/2014  05:44:00      -81.077      -48.841       -8.396       12.641       13.319        8.751      159.792      177.388       76.573        0.472        0.021       94.651        4.182        0.002      332.772        1.654      863.373
01/08/2014  05:45:00      -59.274      -43.082      -11.466       20.838       13.071       11.843      434.219      170.847      140.252        0.312        0.037       73.277        8.009        0.012      332.800        1.699      863.385
01/08/2014  05:46:00      -62.874      -32.905      -16.495       13.674       15.077        9.741      186.983      227.317       94.887        0.291        0.025       70.964        6.763        0.009      332.817        1.726      863.396
01/08/2014  05:47:00      -88.609      -38.079      -13.445       15.012       11.201       11.170      225.368      125.471      124.776        0.498        0.024       96.445        3.498        0.001      332.798        1.694      863.381
01/08/2014  05:48:00      -90.275      -26.402       -8.230       13.473       16.427       10.935      181.533      269.858      119.583        0.474        0.029       94.057        5.500        0.003      332.807        1.710      863.369
01/08/2014  05:49:00     -119.696      -28.682      -13.585       28.946       20.235       12.635      837.873      409.475      159.639        0.837        0.070      123.085       13.797        0.013      332.693        1.522      863.377
01/08/2014  05:50:00      -99.826      -36.690      -16.595       20.401       19.193       16.278      416.186      368.390      264.976        0.632        0.052      106.355       11.151        0.011      332.729        1.580      863.412
01/08/2014  05:51:00      -86.714      -50.865      -18.704       21.200       28.771       16.512      449.434      827.755      272.630        0.600        0.077      100.531        9.395        0.009      332.743        1.604      863.438
01/08/2014  05:52:00      -97.670      -40.476      -18.850       40.283       28.416       20.851     1622.702      807.483      434.752        0.720        0.143      105.725       12.022        0.013      332.831        1.750      863.449
01/08/2014  05:53:00     -127.031      -51.077      -14.932       24.317       26.642       17.400      591.320      709.784      302.749        1.029        0.080      136.915       13.562        0.010      332.767        1.644      863.463
01/08/2014  05:54:00     -115.859      -57.688      -14.642       20.717       19.794       13.667      429.202      391.797      186.797        0.899        0.050      129.426        8.658        0.004      332.738        1.598      863.483
01/08/2014  05:55:00      -88.412      -64.829      -15.875       27.590       20.494       16.891      761.189      420.005      285.299        0.687        0.073      109.634        6.840        0.004      332.739        1.599      863.507
01/08/2014  05:56:00      -90.758      -39.334       -1.875       37.612       26.722       17.038     1414.691      714.091      290.294        0.610        0.121       98.915       17.998        0.033      332.687        1.512      863.524
01/08/2014  05:57:00      -92.363        7.608       -4.905       46.069       36.476       21.556     2122.350     1330.498      464.668        0.626        0.196       92.676       25.109        0.073      332.634        1.425      863.534
01/08/2014  05:58:00     -103.100        2.447      -10.304       37.203       31.383       24.475     1384.066      984.873      599.031        0.685        0.148      103.129       19.144        0.034      332.797        1.694      863.533
01/08/2014  05:59:00     -127.125       12.742      -11.052       44.945       36.569       23.161     2020.008     1337.267      536.411        1.017        0.195      127.762       18.826        0.022      332.872        1.818      863.530
01/08/2014  06:00:00     -162.036       10.637      -10.067       41.997       27.314       15.955     1763.763      746.059      254.559        1.462        0.138      162.385        8.612        0.003      333.033        2.082      863.545
01/08/2014  06:01:00     -158.029      -14.545      -10.125       26.299       28.181       15.652      691.640      794.168      244.982        1.351        0.087      158.697       11.133        0.005      332.990        2.011      863.555
01/08/2014  06:02:00     -177.894       -3.813      -12.830       42.638       28.682       21.383     1818.040      822.655      457.229        1.746        0.155      177.935       19.597        0.012      333.077        2.155      863.563
01/08/2014  06:03:00     -149.253      -13.650       -3.936       55.185       35.844       25.307     3045.337     1284.780      640.433        1.372        0.249      149.876       29.526        0.039      333.153        2.282      863.579
01/08/2014  06:04:00     -195.246       53.292      -15.025       42.572       36.805       22.757     1812.362     1354.644      517.869        2.244        0.184      202.388       21.563        0.011      333.379        2.654      863.599
01/08/2014  06:05:00     -170.799       58.346      -10.256       49.419       30.334       32.938     2442.286      920.164     1084.905        1.856        0.222      180.490       24.709        0.019      333.378        2.654      863.626
01/08/2014  06:06:00     -147.602       59.623       -6.414       62.128       38.497       36.443     3859.943     1482.037     1328.098        1.603        0.334      159.190       26.741        0.028      333.401        2.691      863.647
01/08/2014  06:07:00     -147.944       35.135      -18.436       51.015       39.812       31.291     2602.535     1585.007      979.126        1.431        0.258      152.059       22.505        0.022      333.376        2.649      863.662
01/08/2014  06:08:00     -200.722       38.501      -24.124       35.778       33.041       20.080     1280.058     1091.733      403.222        2.256        0.139      204.381       12.985        0.004      333.207        2.368      863.690
01/08/2014  06:09:00     -194.760       34.468      -17.292       23.642       29.213       19.673      558.932      853.374      387.040        2.061        0.090      197.787       10.929        0.003      333.179        2.324      863.717
01/08/2014  06:10:00     -185.329       50.246       -9.175       16.568       17.478       10.670      274.489      305.480      113.854        1.882        0.035      192.020        7.058        0.001      333.213        2.380      863.725
01/08/2014  06:11:00     -183.873       38.824      -17.474       25.123       20.338       17.106      631.158      413.633      292.616        1.848        0.067      187.927       12.117        0.004      333.173        2.313      863.731
01/08/2014  06:12:00     -158.321       40.097      -10.784       26.656       21.015       13.951      710.551      441.629      194.625        1.407        0.067      163.319        5.089        0.001      333.190        2.341      863.752
01/08/2014  06:13:00     -148.429       19.909      -21.027       21.751       18.569       10.570      473.121      344.790      111.721        1.190        0.046      149.759        9.562        0.004      333.171        2.308      863.756
01/08/2014  06:14:00     -139.671       -3.085      -20.736       30.438       24.264       14.596      926.491      588.753      213.036        1.084        0.086      139.705       13.553        0.009      333.124        2.234      863.764
01/08/2014  06:15:00      -98.662       20.865       -4.885       27.030       30.183       22.374      730.611      911.000      500.612        0.617        0.107      100.844       15.672        0.024      333.332        2.576      863.768
01/08/2014  06:16:00     -102.650      -12.922      -13.890       20.075       20.584       13.078      403.019      423.693      171.036        0.595        0.050      103.461       10.709        0.011      333.298        2.520      863.768
01/08/2014  06:17:00     -107.991      -48.266       -6.080       16.820       24.613       11.894      282.929      605.809      141.470        0.753        0.052      118.286        8.299        0.005      333.281        2.493      863.756
01/08/2014  06:18:00     -109.683      -34.974      -10.085       24.522       27.020       14.560      601.326      730.098      211.999        0.745        0.077      115.124        8.685        0.006      333.228        2.404      863.765
01/08/2014  06:19:00      -98.470      -29.726       -8.411       18.710       19.259       12.849      350.075      370.925      165.087        0.577        0.044      102.859        9.971        0.009      333.185        2.332      863.797
01/08/2014  06:20:00     -102.527      -13.655       -7.447       25.835       20.853       15.211      667.442      434.863      231.376        0.604        0.067      103.432       15.373        0.022      333.162        2.295      863.827
01/08/2014  06:21:00     -103.544      -43.837      -12.007       15.673       18.875        9.747      245.642      356.260       95.009        0.674        0.035      112.442        8.989        0.006      333.154        2.281      863.855
01/08/2014  06:22:00      -93.582      -40.485       -5.105       23.915       25.468       13.422      571.908      648.607      180.142        0.591        0.070      101.964       13.148        0.017      333.156        2.285      863.875
01/08/2014  06:23:00     -111.053      -32.808       -0.596       19.683       22.838       13.709      387.425      521.558      187.924        0.725        0.055      115.797       10.713        0.009      333.204        2.364      863.888
01/08/2014  06:24:00      -86.080      -45.011        2.336       28.379       19.237       13.226      805.342      370.049      174.934        0.540        0.068       97.138       12.040        0.015      333.201        2.360      863.904
01/08/2014  06:25:00      -95.866      -33.797       -9.487       26.498       24.133       14.925      702.156      582.383      222.767        0.596        0.075      101.649       13.462        0.018      333.215        2.383      863.942
01/08/2014  06:26:00      -87.828      -18.256       -6.094       23.838       26.523       13.720      568.253      703.454      188.244        0.477        0.073       89.705       11.647        0.017      333.243        2.429      863.989
01/08/2014  06:27:00     -141.549        9.651      -19.282       18.741       12.597       10.253      351.239      158.686      105.133        1.056        0.031      141.878        3.469        0.001      333.202        2.361      864.033
01/08/2014  06:28:00     -158.857      -13.819      -15.225       30.019       22.565       16.085      901.111      509.197      258.730        1.366        0.083      159.457       15.825        0.010      333.164        2.301      864.060
01/08/2014  06:29:00     -140.980      -28.146      -16.288       27.595       31.225       16.368      761.506      974.991      267.926        1.147        0.100      143.762       14.096        0.010      333.257        2.454      864.070
01/08/2014  06:30:00     -119.389      -10.958      -15.555       42.344       28.635       26.318     1792.983      819.963      692.641        0.896        0.165      119.891       26.205        0.048      333.261        2.459      864.067
01/08/2014  06:31:00     -161.416        9.999      -21.167       36.819       31.777       20.733     1355.671     1009.764      429.857        1.470        0.140      161.726       19.392        0.014      333.264        2.465      864.055
01/08/2014  06:32:00     -177.033       25.910      -22.152       33.715       35.665       19.507     1136.670     1272.012      380.512        1.765        0.139      178.919       14.860        0.007      333.300        2.522      864.041
01/08/2014  06:33:00     -142.232       24.958      -18.027       30.207       25.483       19.010      912.474      649.405      361.363        1.155        0.096      144.405       13.639        0.009      333.256        2.452      864.031
01/08/2014  06:34:00     -107.671       -1.492       -6.365       19.858       24.258       16.917      394.325      588.453      286.200        0.645        0.063      107.681        9.774        0.008      333.256        2.450      864.027
01/08/2014  06:35:00     -117.327       23.401       -9.549       31.479       20.400       13.980      990.922      416.161      195.430        0.800        0.080      119.638        9.188        0.006      333.271        2.477      864.035
01/08/2014  06:36:00     -132.901       23.670       -7.774       31.264       22.130       17.106      977.459      489.718      292.631        1.002        0.088      134.993       14.683        0.012      333.380        2.657      864.050
01/08/2014  06:37:00     -127.670       12.850      -11.267       29.568       29.204       20.635      874.248      852.867      425.815        0.937        0.108      128.315       18.349        0.020      333.272        2.478      864.085
01/08/2014  06:38:00     -119.697        7.768      -12.938       26.947       23.652       21.596      726.156      559.427      466.372        0.815        0.088      119.949       18.084        0.023      333.411        2.708      864.106
01/08/2014  06:39:00      -59.315       13.740       -2.556       24.254       20.230       18.482      588.232      409.239      341.585        0.253        0.067       60.885       11.693        0.037      333.494        2.845      864.146
01/08/2014  06:40:00      -51.388       11.406       -2.267       15.885       16.635       11.327      252.331      276.725      128.293        0.172        0.033       52.639        5.428        0.011      333.572        2.975      864.189
01/08/2014  06:41:00      -29.383       -8.536       -6.412       15.645       11.033        8.676      244.753      121.738       75.280        0.071        0.022       30.598        8.339        0.074      333.520        2.887      864.211
01/08/2014  06:42:00        9.087      -24.915       -8.425       11.076       14.063        7.353      122.678      197.762       54.066        0.057        0.019       26.520        5.546        0.044      333.726        3.229      864.207
01/08/2014  06:43:00        9.181       12.158       -2.517       12.045       15.886       12.708      145.081      252.354      161.496        0.040        0.028       15.235        8.830        0.336      333.745        3.262      864.189
01/08/2014  06:44:00       -0.093       -6.339       16.451       10.565       17.814       14.789      111.610      317.354      218.719        0.048        0.032        6.339        6.550        1.068      333.502        2.858      864.171
01/08/2014  06:45:00       -6.170       28.338       48.019       13.528       23.596       11.031      183.002      556.794      121.685        0.200        0.043       29.002       11.203        0.149      333.237        2.419      864.178
01/08/2014  06:46:00       -5.909       21.206       32.335        7.245       14.164       11.406       52.493      200.609      130.089        0.096        0.019       22.014       10.850        0.243      333.236        2.419      864.196
01/08/2014  06:47:00       14.007       26.387       29.474       13.182       18.619       11.232      173.755      346.675      126.156        0.120        0.032       29.874       10.613        0.126      333.295        2.516      864.203
01/08/2014  06:48:00       37.452       33.144       14.970       18.680       19.300       19.366      348.925      372.479      375.031        0.191        0.055       50.012       11.034        0.049      333.091        2.179      864.209
01/08/2014  06:49:00       22.719        0.744       -1.201       14.549       12.414        9.147      211.667      154.096       83.660        0.048        0.022       22.731        8.913        0.154      332.915        1.888      864.209
01/08/2014  06:50:00        9.375       -6.951        8.026       12.380       26.241       13.907      153.272      688.603      193.398        0.062        0.052       11.671       12.729        1.190      332.998        2.023      864.190
01/08/2014  06:51:00       78.570       51.240       -8.158       24.991       18.734       18.322      624.532      350.972      335.692        0.509        0.066       93.802        6.440        0.005      332.495        1.193      864.197
01/08/2014  06:52:00       19.564       28.367       -8.543       22.552       19.044       18.331      508.579      362.670      336.010        0.123        0.060       34.460       14.845        0.186      332.413        1.059      864.227
01/08/2014  06:53:00       32.971       36.336       -5.137        9.646        7.744        8.160       93.050       59.977       66.583        0.133        0.011       49.065        5.262        0.012      332.411        1.055      864.250
01/08/2014  06:54:00       26.126       32.502        2.274       13.911       10.933       10.153      193.509      119.538      103.084        0.108        0.021       41.701        7.701        0.034      332.492        1.190      864.261
01/08/2014  06:55:00       27.069       26.754        7.036       10.660       14.355       12.961      113.639      206.054      167.976        0.099        0.024       38.059       10.214        0.072      332.508        1.215      864.259
01/08/2014  06:56:00        9.683       35.875      -10.384       13.738        8.155        6.496      188.730       66.508       42.204        0.089        0.015       37.159        5.612        0.023      332.492        1.188      864.273
01/08/2014  06:57:00       26.046        0.851        8.821       16.120       20.947       17.200      259.863      438.765      295.856        0.088        0.050       26.060       10.581        0.165      332.530        1.253      864.273
01/08/2014  06:58:00       -4.514        7.117       22.308       18.011       25.794       17.072      324.412      665.309      291.437        0.092        0.064        8.428       18.426        4.780      332.717        1.563      864.278
01/08/2014  06:59:00      -28.579       -1.931        5.802       15.973       18.029       12.896      255.131      325.058      166.311        0.080        0.037       28.645       10.684        0.139      332.986        2.005      864.312
01/08/2014  07:00:00        3.663      -30.030       -2.499       26.924       16.198       14.666      724.898      262.387      215.094        0.106        0.060       30.253       15.954        0.278      332.911        1.883      864.329
01/08/2014  07:01:00        4.442      -50.263       -0.757       15.351       20.626       19.085      235.654      425.416      364.248        0.179        0.051       50.459       13.149        0.068      332.940        1.932      864.348
01/08/2014  07:02:00      -24.689      -37.026        1.505       31.787       16.922       15.002     1010.393      286.360      225.051        0.175        0.076       44.502       12.280        0.076      332.926        1.906      864.369
01/08/2014  07:03:00      -95.156      -60.591       -3.593       36.642       32.597       17.481     1342.640     1062.592      305.597        0.772        0.136      112.809        7.134        0.004      332.755        1.624      864.379
01/08/2014  07:04:00      -99.201     -120.950       -7.230       61.684       71.926       32.185     3804.946     5173.376     1035.880        1.727        0.501      156.428       34.324        0.048      332.881        1.830      864.385
01/08/2014  07:05:00      -96.141     -128.521      -13.676       50.500       65.379       29.349     2550.245     4274.368      861.373        1.682        0.384      160.501       23.864        0.022      332.766        1.641      864.380
01/08/2014  07:06:00      -56.586      -72.621        8.803       47.869       46.653       28.113     2291.423     2176.458      790.365        0.690        0.263       92.064       19.149        0.043      332.885        1.841      864.366
01/08/2014  07:07:00      -18.960      -51.908       -7.003       17.326       28.994       21.066      300.174      840.657      443.767        0.234        0.079       55.262       14.414        0.068      332.952        1.949      864.342
01/08/2014  07:08:00      -22.057       28.688       -0.740       14.267       23.697       11.935      203.556      561.546      142.448        0.111        0.045       36.187        5.556        0.024      333.022        2.065      864.333
01/08/2014  07:09:00      -19.168        3.270       -3.418       17.912       18.666       13.840      320.856      348.425      191.555        0.063        0.043       19.445        6.565        0.114      333.103        2.199      864.336
01/08/2014  07:10:00      -27.609      -22.461        0.074       45.250       26.594       16.118     2047.576      707.243      259.792        0.214        0.151       35.592       17.722        0.248      333.083        2.167      864.357
01/08/2014  07:11:00      -56.873      -60.450        1.621       41.820       29.574       23.432     1748.928      874.646      549.052        0.503        0.159       82.998       19.731        0.057      333.105        2.201      864.378
01/08/2014  07:12:00        1.677      -36.115        3.644       40.390       36.913       20.569     1631.328     1362.575      423.082        0.237        0.171       36.154       14.036        0.151      333.156        2.286      864.399
01/08/2014  07:13:00        2.166        3.044       13.056        7.333        9.301        6.799       53.778       86.512       46.222        0.019        0.009        3.736        4.584        1.505      333.078        2.157      864.418
01/08/2014  07:14:00      -21.175      -16.921        8.254       28.575       14.594        9.653      816.557      212.997       93.184        0.096        0.056       27.105        8.670        0.102      333.209        2.374      864.431
01/08/2014  07:15:00      -11.814      -22.486       14.040       33.642       23.546       19.729     1131.762      554.424      389.224        0.146        0.104       25.401       18.390        0.524      333.079        2.161      864.453
01/08/2014  07:16:00      -18.280      -17.479       13.451       35.345       30.680       22.040     1249.296      941.243      485.759        0.175        0.134       25.291       21.215        0.704      333.089        2.175      864.472
01/08/2014  07:17:00      -26.001       -3.701       11.537       30.615       18.022       20.662      937.298      324.794      426.933        0.126        0.084       26.263       20.699        0.621      333.094        2.183      864.490
01/08/2014  07:18:00       -6.105        6.624       10.567       13.378       13.479       12.895      178.964      181.675      166.293        0.036        0.026        9.008       11.361        1.591      332.981        1.996      864.490
01/08/2014  07:19:00      -32.624       12.081       -3.688       13.460       14.442       10.380      181.169      208.573      107.741        0.086        0.025       34.789        9.772        0.079      332.945        1.938      864.476
01/08/2014  07:20:00      -54.165        3.235       -6.803       10.230       12.548        9.579      104.655      157.457       91.764        0.167        0.018       54.262        6.602        0.015      332.912        1.884      864.477
01/08/2014  07:21:00      -45.794      -21.810       -5.871       13.263       13.882       10.338      175.905      192.709      106.881        0.154        0.024       50.722        7.863        0.024      332.764        1.639      864.487
01/08/2014  07:22:00        6.124      -10.543        4.198       21.248       11.623        8.585      451.498      135.085       73.708        0.041        0.033       12.193        8.273        0.460      332.883        1.836      864.500
01/08/2014  07:23:00       37.895       24.495        4.309       13.272        9.504        7.864      176.142       90.322       61.848        0.119        0.016       45.123        8.264        0.034      332.955        1.954      864.526
01/08/2014  07:24:00       69.394       38.586       11.096       11.231        9.566        9.616      126.128       91.512       92.476        0.337        0.016       79.400        7.642        0.009      332.963        1.968      864.564
01/08/2014  07:25:00       49.484       23.687        2.657       22.229       32.219       17.629      494.144     1038.058      310.770        0.243        0.092       54.861        9.686        0.031      332.703        1.538      864.609
01/08/2014  07:26:00        0.673       27.043       -6.989       21.937        8.928       11.328      481.232       79.709      128.319        0.073        0.034       27.052       11.478        0.180      332.655        1.459      864.653
01/08/2014  07:27:00      -20.080       13.386        3.272       14.407       10.227        7.446      207.561      104.598       55.446        0.048        0.018       24.133        3.797        0.025      332.633        1.423      864.669
01/08/2014  07:28:00      -43.052       19.324       -8.591       13.609       15.740        8.790      185.199      247.748       77.265        0.141        0.026       47.190        9.206        0.038      332.607        1.380      864.655
01/08/2014  07:29:00      -20.975       -3.785       -4.419       17.166       10.993        5.449      294.686      120.848       29.688        0.046        0.022       21.313        1.676        0.006      332.691        1.519      864.644
01/08/2014  07:30:00       55.845       46.709       34.405       32.251       25.991       17.576     1040.146      675.532      308.900        0.425        0.101       72.804       17.966        0.061      332.684        1.505      864.612
01/08/2014  07:31:00       53.329       25.665       18.701       32.456       18.468       17.018     1053.399      341.077      289.620        0.277        0.084       59.183       16.360        0.076      332.642        1.438      864.598
01/08/2014  07:32:00       25.917       47.615       -8.909       22.586       18.951        8.966      510.150      359.156       80.386        0.198        0.047       54.212        8.568        0.025      332.716        1.559      864.634
01/08/2014  07:33:00      -11.582       45.112       -7.706        8.421       17.362        7.153       70.906      301.443       51.166        0.133        0.021       46.575        7.823        0.028      332.759        1.631      864.676
01/08/2014  07:34:00      -47.178       -7.702       -3.393       13.753       12.574        8.296      189.134      158.117       68.822        0.136        0.021       47.803        5.545        0.013      332.571        1.321      864.697
01/08/2014  07:35:00      -32.455       -5.596       -9.770        6.328        6.097        4.703       40.043       37.172       22.118        0.064        0.005       32.934        3.538        0.012      332.705        1.543      864.705
01/08/2014  07:36:00      -42.711        9.095       -3.362       10.044        8.827        5.832      100.883       77.922       34.007        0.107        0.011       43.669        2.831        0.004      332.645        1.443      864.693
01/08/2014  07:37:00      -14.172       22.753        3.699       20.663        7.729       10.623      426.958       59.741      112.849        0.067        0.030       26.806       12.186        0.207      332.675        1.491      864.676
01/08/2014  07:38:00       52.062       45.513        5.819       26.732       20.297       18.943      714.594      411.986      358.843        0.315        0.074       69.151       15.052        0.047      332.753        1.621      864.659
01/08/2014  07:39:00       32.429       49.484       -8.928       20.984       28.189       19.738      440.339      794.635      389.586        0.260        0.081       59.163       18.047        0.093      332.720        1.567      864.665
01/08/2014  07:40:00        0.058       69.734      -14.274       13.485       12.151        9.829      181.847      147.636       96.602        0.275        0.021       69.734        8.652        0.015      332.921        1.897      864.691
01/08/2014  07:41:00      -29.658       10.047       -7.187       17.798       22.984       10.410      316.753      528.272      108.358        0.099        0.048       31.313        4.646        0.022      332.689        1.516      864.697
01/08/2014  07:42:00        4.022      -11.141        3.740       10.613       14.834       11.596      112.632      220.051      134.472        0.031        0.023       11.845        8.729        0.543      332.686        1.510      864.667
01/08/2014  07:43:00       53.740       36.934        4.591       18.197       17.936       14.735      331.143      321.716      217.131        0.257        0.043       65.208        7.985        0.015      332.879        1.828      864.622
01/08/2014  07:44:00       65.541       55.537        3.348       27.590       18.085       16.443      761.233      327.080      270.385        0.437        0.068       85.907       10.170        0.014      332.902        1.868      864.602
01/08/2014  07:45:00       13.427       25.805        0.141       23.852       29.833       20.081      568.898      889.988      403.239        0.135        0.093       29.089       18.987        0.426      332.864        1.806      864.612
01/08/2014  07:46:00       -4.060       23.222       -5.970       22.788       26.868       12.311      519.290      721.884      151.563        0.099        0.070       23.574       11.474        0.237      332.848        1.780      864.626
01/08/2014  07:47:00      -63.514      -15.723       -1.451       49.208       23.107       14.925     2421.403      533.938      222.747        0.373        0.159       65.431        9.989        0.023      332.703        1.539      864.655
01/08/2014  07:48:00     -108.726      -76.156       -2.106       36.158       25.170       21.839     1307.405      633.520      476.946        1.002        0.121      132.744       13.427        0.010      332.758        1.631      864.676
01/08/2014  07:49:00      -76.397      -19.748       -0.801       29.461       27.165       18.148      867.974      737.955      329.351        0.408        0.097       78.908       15.797        0.040      332.775        1.657      864.683
01/08/2014  07:50:00       30.584       30.601       18.025       21.829       14.301       11.205      476.518      204.514      125.560        0.150        0.040       43.265        7.686        0.032      332.734        1.591      864.671
01/08/2014  07:51:00       58.004       29.897       21.448       19.843       19.823       25.042      393.730      392.954      627.088        0.307        0.071       65.255        9.002        0.019      332.787        1.677      864.664
01/08/2014  07:52:00       50.634       27.073       11.827       18.001       20.045       15.468      324.021      401.820      239.246        0.220        0.048       57.417        8.242        0.021      332.762        1.636      864.683
01/08/2014  07:53:00       33.341       25.029        3.520       11.995       10.088       12.010      143.885      101.777      144.234        0.107        0.019       41.690        7.235        0.030      332.853        1.787      864.703
01/08/2014  07:54:00        3.639       23.983       -7.408       12.994        8.243        5.437      168.842       67.953       29.557        0.045        0.013       24.258        3.708        0.023      332.926        1.909      864.708
01/08/2014  07:55:00       19.217       28.880        4.380       12.038        7.728        7.757      144.917       59.718       60.174        0.074        0.013       34.689        8.251        0.057      332.999        2.029      864.705
01/08/2014  07:56:00       40.177       42.966        1.421        8.520       10.602       10.744       72.585      112.402      115.436        0.188        0.015       58.824        9.277        0.025      333.065        2.137      864.691
01/08/2014  07:57:00       29.492       31.551       -1.906       10.554       10.907       10.184      111.389      118.967      103.710        0.110        0.017       43.189        7.548        0.031      333.126        2.238      864.672
01/08/2014  07:58:00       35.940       33.029        0.369       13.554       17.606       16.895      183.699      309.978      285.457        0.158        0.039       48.812       14.558        0.089      333.168        2.305      864.673
01/08/2014  07:59:00       21.967       22.220        1.051       10.683       11.878        9.811      114.123      141.088       96.264        0.066        0.018       31.245        8.081        0.067      333.220        2.391      864.693
01/08/2014  08:00:00       -3.426       14.959        2.050        8.041       13.311       10.133       64.655      177.196      102.670        0.029        0.017       15.346       10.599        0.477      333.352        2.611      864.728
01/08/2014  08:01:00      -38.811       10.044       -3.346       21.298       14.463        6.428      453.618      209.179       41.323        0.116        0.035       40.089        7.147        0.032      333.005        2.037      864.751
01/08/2014  08:02:00      -56.676       -7.000       -1.209       15.758       14.262       10.217      248.301      203.407      104.395        0.191        0.028       57.106        1.506        0.001      332.779        1.665      864.760
01/08/2014  08:03:00      -72.883       -2.582       -4.512       19.385       18.962       12.097      375.795      359.575      146.326        0.311        0.044       72.928        7.218        0.010      332.822        1.735      864.767
01/08/2014  08:04:00      -64.360        0.937       -6.541       24.181       11.246       10.375      584.712      126.477      107.640        0.250        0.041       64.367        7.265        0.013      332.857        1.794      864.766
01/08/2014  08:05:00       -8.129       10.574       10.366        9.559        9.485       10.194       91.383       89.959      103.910        0.029        0.014       13.338        3.990        0.089      333.209        2.374      864.784
01/08/2014  08:06:00        0.244        6.240       14.656        8.090        9.725        7.413       65.444       94.572       54.948        0.023        0.011        6.245        5.117        0.671      333.449        2.770      864.792
01/08/2014  08:07:00        1.029       12.605       13.662       10.081        7.350        9.425      101.632       54.029       88.840        0.030        0.012       12.647        4.999        0.156      333.322        2.560      864.799
01/08/2014  08:08:00        0.255       12.052       29.537       10.226        9.239        5.391      104.577       85.354       29.059        0.062        0.011       12.055        4.648        0.149      333.555        2.946      864.791
01/08/2014  08:09:00        0.697        2.728       18.314        6.066        5.178       11.150       36.802       26.815      124.319        0.027        0.009        2.816        5.232        3.453      333.658        3.117      864.781
01/08/2014  08:10:00      -11.256        8.990       20.233        9.494       10.256        7.939       90.145      105.193       63.035        0.044        0.013       14.405        7.130        0.245      333.425        2.731      864.776
01/08/2014  08:11:00      -25.161       23.364        0.736       10.408       16.481       11.519      108.318      271.615      132.682        0.085        0.026       34.336        8.676        0.064      333.227        2.403      864.788
01/08/2014  08:12:00      -36.633        4.410       -1.738        9.149        6.260        7.664       83.713       39.185       58.737        0.077        0.009       36.898        5.074        0.019      333.134        2.251      864.791
01/08/2014  08:13:00       -9.061       -8.435        4.089       15.971        8.217        7.168      255.066       67.515       51.374        0.027        0.019       12.379        4.738        0.146      333.440        2.755      864.784
01/08/2014  08:14:00        0.627       -2.624        0.362        9.753        6.599       11.951       95.125       43.548      142.831        0.014        0.014        2.698        8.709       10.423      333.728        3.234      864.774
01/08/2014  08:15:00      -42.372      -12.622        4.163       26.058       12.818        7.701      679.036      164.303       59.301        0.144        0.045       44.212       12.823        0.084      333.396        2.684      864.766
01/08/2014  08:16:00      -59.699      -21.503       -9.206       11.107       10.961        5.804      123.368      120.142       33.687        0.219        0.014       63.453        5.242        0.007      333.190        2.343      864.772
01/08/2014  08:17:00      -26.107        2.190       -6.643       14.974        8.543        6.414      224.219       72.984       41.143        0.053        0.017       26.199        5.759        0.048      333.277        2.486      864.771
01/08/2014  08:18:00        4.316        9.876       13.018       19.568       11.684       13.728      382.923      136.513      188.445        0.050        0.035       10.778       11.094        1.059      333.633        3.077      864.765
01/08/2014  08:19:00       41.618       26.506        4.781       22.278       20.691       15.796      496.292      428.114      249.507        0.182        0.059       49.342        9.903        0.040      333.481        2.825      864.747
01/08/2014  08:20:00       12.775       15.492       14.798       23.947       17.372       21.616      573.441      301.780      467.267        0.098        0.067       20.080       13.039        0.422      333.685        3.163      864.739
01/08/2014  08:21:00        2.227       15.728       13.672       19.340       15.172       13.483      374.048      230.198      181.793        0.061        0.039       15.885        8.285        0.272      333.803        3.357      864.740
01/08/2014  08:22:00       32.049       26.224        6.557       16.406       15.367       15.053      269.164      236.148      226.584        0.124        0.037       41.410        5.996        0.021      333.570        2.969      864.748
01/08/2014  08:23:00       54.041       32.335        4.535       20.652       14.955       14.995      426.490      223.667      224.852        0.243        0.044       62.976        8.249        0.017      333.463        2.793      864.758
01/08/2014  08:24:00       57.009       52.529        5.815       15.482       18.989       19.173      239.695      360.579      367.597        0.351        0.048       77.520       12.451        0.026      333.492        2.841      864.770
01/08/2014  08:25:00       39.921       38.971        0.647       24.565       18.278       14.709      603.460      334.081      216.360        0.213        0.058       55.789       10.343        0.034      333.545        2.930      864.768
01/08/2014  08:26:00       42.039       18.917       -2.352       18.098       15.676       14.754      327.521      245.730      217.668        0.146        0.040       46.099       13.026        0.080      333.553        2.943      864.764
01/08/2014  08:27:00        8.061       18.055        1.965       17.052       19.986       17.938      290.780      399.459      321.773        0.070        0.051       19.772       15.143        0.587      333.776        3.314      864.763
01/08/2014  08:28:00       -9.061        0.136        7.290        8.184        8.704       11.383       66.975       75.755      129.576        0.020        0.014        9.062        7.796        0.740      333.979        3.650      864.768
01/08/2014  08:29:00      -36.989       10.531       -2.680       16.075       13.071        8.854      258.419      170.862       78.394        0.100        0.025       38.459        8.073        0.044      333.596        3.013      864.787
01/08/2014  08:30:00      -32.550       -3.542       -0.350        9.572       10.573        9.096       91.628      111.799       82.732        0.068        0.014       32.743        5.175        0.025      333.516        2.881      864.795
01/08/2014  08:31:00      -23.482      -10.258       -3.711       10.022        6.877        9.114      100.438       47.287       83.073        0.045        0.012       25.625        5.983        0.055      333.624        3.061      864.792
01/08/2014  08:32:00      -20.101       -1.423       -2.789        6.056        5.247        5.030       36.675       27.529       25.299        0.025        0.004       20.151        3.409        0.029      333.573        2.975      864.780
01/08/2014  08:33:00       -4.492       -0.891       12.434        8.102        4.292        9.335       65.650       18.421       87.138        0.017        0.009        4.579        7.027        2.355      334.252        4.103      864.754
01/08/2014  08:34:00       -0.959       11.589       32.562       10.203       12.160        8.932      104.096      147.869       79.785        0.076        0.017       11.629        4.658        0.160      334.336        4.241      864.737
01/08/2014  08:35:00       12.789       15.704       25.975       12.362       10.033        9.779      152.829      100.656       95.630        0.072        0.017       20.253        4.527        0.050      334.035        3.743      864.722
01/08/2014  08:36:00       -1.843       23.218       30.421        8.920       11.924        8.808       79.559      142.170       77.587        0.088        0.015       23.291        6.116        0.069      334.118        3.879      864.710
01/08/2014  08:37:00      -12.859        4.166       12.566        8.368        7.966       11.414       70.027       63.463      130.273        0.030        0.013       13.516        7.033        0.271      334.099        3.849      864.692
01/08/2014  08:38:00        9.258       14.476       12.546        7.932       10.760        9.694       62.913      115.782       93.979        0.036        0.014       17.183        6.594        0.147      334.048        3.764      864.679
01/08/2014  08:39:00       11.992       12.146        7.530       20.821       10.628       10.759      433.519      112.962      115.751        0.051        0.033       17.068        7.025        0.169      334.101        3.852      864.665
01/08/2014  08:40:00       -5.276       26.828        3.645       17.513       14.288       15.871      306.707      204.147      251.895        0.076        0.038       27.342        7.478        0.075      334.059        3.781      864.656
01/08/2014  08:41:00        6.967       38.995        5.296       15.589       16.913       16.110      243.017      286.035      259.528        0.119        0.039       39.612       12.924        0.106      334.009        3.699      864.658
01/08/2014  08:42:00       -3.248       39.669        3.790       22.460       14.518       14.010      504.441      210.763      196.275        0.125        0.046       39.802        9.554        0.058      333.957        3.613      864.668
01/08/2014  08:43:00      -23.810      -11.461       20.751       17.244       24.678       12.845      297.345      609.023      165.004        0.110        0.054       26.425       10.450        0.156      333.978        3.648      864.680
01/08/2014  08:44:00      -38.426      -25.606       -2.181       11.910        9.730        9.234      141.853       94.675       85.264        0.123        0.016       46.176        6.709        0.021      333.722        3.223      864.699
01/08/2014  08:45:00      -43.676      -13.103       -2.850       17.262       16.042        7.589      297.976      257.362       57.594        0.135        0.031       45.599        4.500        0.010      333.721        3.222      864.721
01/08/2014  08:46:00      -43.988       13.237        2.935       32.230       17.120       12.071     1038.792      293.111      145.698        0.180        0.074       45.937       10.396        0.051      333.829        3.402      864.746
01/08/2014  08:47:00      -85.652        8.175       -8.754       23.820       21.155       14.034      567.404      447.534      196.949        0.435        0.061       86.042       10.379        0.015      333.718        3.218      864.766
01/08/2014  08:48:00      -71.398       18.092       -5.757       20.789       33.729       15.476      432.192     1137.629      239.515        0.363        0.090       73.655       14.176        0.037      333.786        3.329      864.781
01/08/2014  08:49:00      -47.200       41.212       -6.857       26.741       31.218       21.911      715.069      974.577      480.072        0.307        0.108       62.660       18.635        0.088      333.908        3.531      864.798
01/08/2014  08:50:00      -58.958       -2.627      -15.985       22.349       25.191       16.066      499.486      634.583      258.106        0.257        0.070       59.016       15.114        0.066      333.875        3.477      864.810
01/08/2014  08:51:00      -64.757      -34.408       -4.199       25.469       21.418       16.869      648.650      458.717      284.557        0.339        0.070       73.330       12.606        0.030      333.845        3.427      864.826
01/08/2014  08:52:00      -77.202      -32.865       -6.612       30.614       17.200       14.243      937.225      295.857      202.854        0.426        0.072       83.906       14.038        0.028      333.858        3.450      864.830
01/08/2014  08:53:00      -43.657      -23.931      -10.638       33.473       26.345       23.311     1120.473      694.039      543.406        0.247        0.118       49.786       21.081        0.179      333.919        3.550      864.829
01/08/2014  08:54:00      -70.877      -10.152       -0.965       20.592       12.775       10.796      424.017      163.205      116.555        0.292        0.035       71.601        9.477        0.018      333.797        3.348      864.814
01/08/2014  08:55:00      -54.765      -26.492       -0.192       13.373       23.901        9.760      178.840      571.259       95.267        0.227        0.042       60.836        4.922        0.007      333.855        3.444      864.801
01/08/2014  08:56:00      -95.626       11.633      -10.156       18.699       15.028        9.045      349.646      225.852       81.809        0.502        0.033       96.331        6.785        0.005      333.837        3.413      864.784
01/08/2014  08:57:00      -48.117       39.030      -12.496       26.971       17.167       15.432      727.409      294.721      238.137        0.263        0.063       61.957       12.477        0.041      333.900        3.518      864.777
01/08/2014  08:58:00      -43.369        9.989       -3.391       16.445       24.330       11.693      270.440      591.950      136.727        0.150        0.050       44.505       10.937        0.060      333.932        3.573      864.765
01/08/2014  08:59:00      -46.271       11.962       -4.315       18.780       15.824        8.716      352.695      250.415       75.975        0.149        0.034       47.792        7.106        0.022      333.888        3.500      864.752
01/08/2014  09:00:00      -36.045        0.634       -0.566       19.344       15.463       12.426      374.200      239.113      154.409        0.103        0.038       36.051       12.349        0.117      333.984        3.659      864.733
01/08/2014  09:01:00      -70.603      -10.109       -5.685       12.313       13.100        9.846      151.614      171.600       96.945        0.277        0.021       71.323        5.760        0.007      333.882        3.489      864.711
01/08/2014  09:02:00      -79.155      -18.747      -10.859       10.616       10.742        9.188      112.699      115.382       84.415        0.352        0.016       81.345        4.010        0.002      333.934        3.575      864.691
01/08/2014  09:03:00      -55.046      -32.275       -9.322       21.187       14.673        8.321      448.902      215.300       69.233        0.245        0.037       63.810        6.026        0.009      334.011        3.704      864.678
01/08/2014  09:04:00      -67.973      -11.620      -12.838       18.311       12.869        8.345      335.293      165.608       69.633        0.275        0.029       68.959        6.950        0.010      334.013        3.707      864.658
01/08/2014  09:05:00      -26.355      -18.699       -6.226       12.516       12.489        9.358      156.639      155.986       87.569        0.074        0.020       32.315        6.968        0.046      334.144        3.923      864.663
01/08/2014  09:06:00      -34.826      -16.934       -0.133       13.674       12.163       10.484      186.991      147.941      109.907        0.097        0.022       38.725        6.598        0.029      334.185        3.991      864.655
01/08/2014  09:07:00      -40.661      -24.992        0.755       40.290       21.519       12.323     1623.319      463.080      151.867        0.226        0.112       47.728       13.562        0.081      334.206        4.026      864.662
01/08/2014  09:08:00      -50.913      -40.347       -0.316       22.745       14.645       12.069      517.351      214.464      145.664        0.255        0.044       64.962        7.787        0.014      334.161        3.952      864.670
01/08/2014  09:09:00      -39.006      -35.980        5.623       32.424       27.309       19.630     1051.347      745.770      385.345        0.251        0.109       53.066       16.758        0.100      334.312        4.202      864.691
01/08/2014  09:10:00      -75.356      -68.945        3.956       37.930       31.133       18.834     1438.704      969.284      354.712        0.660        0.138      102.137       16.301        0.025      334.252        4.102      864.700
01/08/2014  09:11:00      -44.340      -53.680      -10.202       28.296       35.107       22.007      800.641     1232.515      484.321        0.373        0.126       69.625       18.719        0.072      334.300        4.182      864.719
01/08/2014  09:12:00      -96.926      -23.143       -3.448       29.407       41.898       26.414      864.775     1755.413      697.690        0.663        0.166       99.651       15.500        0.024      334.143        3.921      864.730
01/08/2014  09:13:00      -49.977      -11.355        7.173       38.842       38.302       26.756     1508.714     1467.012      715.880        0.318        0.185       51.251       15.751        0.094      334.207        4.028      864.758
01/08/2014  09:14:00      -60.241      -34.414        6.625       55.480       35.284       23.986     3078.049     1244.937      575.351        0.488        0.245       69.378       29.647        0.183      334.253        4.103      864.769
01/08/2014  09:15:00      -35.838      -27.222       11.963       41.107       36.609       18.308     1689.780     1340.185      335.184        0.277        0.168       45.005       22.275        0.245      334.340        4.249      864.774
01/08/2014  09:16:00      -97.414      -58.932      -10.855       30.449       25.451       15.610      927.152      647.756      243.663        0.745        0.091      113.853        9.136        0.006      334.102        3.853      864.759
01/08/2014  09:17:00      -95.800      -49.723        2.371       37.825       25.409       18.710     1430.761      645.625      350.055        0.704        0.121      107.936       16.702        0.024      334.075        3.808      864.748
01/08/2014  09:18:00     -123.131      -64.011      -18.909       13.275       13.606       10.911      176.215      185.131      119.054        1.005        0.024      138.775        5.562        0.002      334.028        3.731      864.725
01/08/2014  09:19:00      -96.676      -48.698       -8.156       21.604       23.746       13.023      466.745      563.892      169.589        0.649        0.060      108.248       13.341        0.015      334.082        3.821      864.714
01/08/2014  09:20:00     -112.801      -21.039      -14.652       12.599       18.695       12.480      158.738      349.516      155.757        0.702        0.033      114.746        7.622        0.004      334.144        3.923      864.700
01/08/2014  09:21:00     -124.292        1.336      -15.231       19.931       14.841        8.372      397.235      220.243       70.087        0.818        0.034      124.299        7.891        0.004      334.173        3.971      864.687
01/08/2014  09:22:00     -108.346      -70.233       -7.335       40.454       38.853       22.052     1636.559     1509.578      486.286        1.018        0.182      129.118       18.197        0.020      334.229        4.065      864.663
01/08/2014  09:23:00      -33.118      -50.300        5.543       41.726       43.436       32.338     1741.052     1886.711     1045.766        0.416        0.234       60.224       31.085        0.266      334.481        4.482      864.648
01/08/2014  09:24:00      -71.776      -52.324      -17.018       36.391       25.039       21.256     1324.336      626.933      451.821        0.529        0.120       88.823       15.861        0.032      334.342        4.252      864.625
01/08/2014  09:25:00      -48.858      -51.321      -13.380       22.026       20.857       15.251      485.165      435.002      232.606        0.318        0.058       70.859        6.473        0.008      334.369        4.296      864.612
01/08/2014  09:26:00      -48.346      -27.803        1.725       23.704       20.867       13.464      561.899      435.423      181.285        0.215        0.059       55.771       11.351        0.041      334.439        4.412      864.595
01/08/2014  09:27:00      -54.037      -12.623       -9.546       26.708       19.604       16.959      713.338      384.303      287.595        0.228        0.069       55.492       17.782        0.103      334.503        4.519      864.571
01/08/2014  09:28:00      -36.832      -17.445       -7.142       37.375       16.442       11.176     1396.892      270.331      124.892        0.175        0.090       40.755        7.574        0.035      334.596        4.671      864.554
01/08/2014  09:29:00      -91.741      -22.830      -11.352       38.211       22.204       14.178     1460.065      492.997      201.012        0.561        0.108       94.539       14.534        0.024      334.560        4.613      864.543
01/08/2014  09:30:00      -80.187      -48.457       -4.148       21.200       26.189       10.975      449.421      685.874      120.450        0.503        0.063       93.691        9.381        0.010      334.653        4.766      864.538
01/08/2014  09:31:00      -97.618      -61.674        0.300       37.210       26.279       20.175     1384.612      690.601      407.047        0.791        0.124      115.468       19.234        0.028      334.669        4.794      864.532
01/08/2014  09:32:00     -130.403      -53.807       -7.583       38.074       25.889       16.970     1449.609      670.262      287.973        1.118        0.120      141.068       17.119        0.015      334.559        4.612      864.542
01/08/2014  09:33:00      -16.376      -18.351       16.586       32.520       38.558       21.701     1057.535     1486.748      470.919        0.195        0.151       24.595       23.399        0.905      335.064        5.450      864.540
01/08/2014  09:34:00      -38.298      -22.284       12.550       45.589       23.123       22.846     2078.319      534.664      521.936        0.263        0.157       44.310       24.292        0.301      334.935        5.237      864.538
01/08/2014  09:35:00     -134.624      -12.230       -7.550       39.349       28.343       22.273     1548.343      803.315      496.073        1.059        0.142      135.178       22.005        0.026      334.661        4.780      864.545
01/08/2014  09:36:00      -85.502      -21.839      -11.995       29.748       30.670       14.643      884.921      940.632      214.419        0.499        0.102       88.246       11.797        0.018      334.773        4.967      864.556
01/08/2014  09:37:00      -43.201      -31.648       -4.815       27.214       24.798       14.991      740.598      614.956      224.745        0.224        0.079       53.553       12.246        0.052      334.935        5.238      864.559
01/08/2014  09:38:00      -52.238      -17.445        1.018       39.329       36.398       16.673     1546.740     1324.824      277.978        0.309        0.157       55.074       18.773        0.116      335.004        5.352      864.561
01/08/2014  09:39:00      -30.108      -53.400        3.295       39.532       32.349       25.440     1562.807     1046.458      647.177        0.351        0.163       61.303       19.335        0.099      334.978        5.307      864.557
01/08/2014  09:40:00      -56.755      -56.938       -0.610       35.433       22.403       19.091     1255.501      501.890      364.469        0.429        0.106       80.393       22.228        0.076      334.988        5.325      864.556
01/08/2014  09:41:00      -43.149      -22.329       -0.968       27.726       20.192       17.836      768.704      407.703      318.119        0.193        0.075       48.585       14.482        0.089      334.985        5.319      864.550
01/08/2014  09:42:00      -72.432      -53.330       -1.803       24.614       34.408       19.310      605.838     1183.917      372.883        0.513        0.108       89.947       14.139        0.025      334.938        5.241      864.545
01/08/2014  09:43:00      -42.457      -34.457        1.586       26.919       48.687       19.390      724.622     2370.453      375.973        0.323        0.174       54.680       25.383        0.215      335.018        5.375      864.547
01/08/2014  09:44:00        4.032        2.065        3.620       27.382       20.004       21.454      749.782      400.141      460.278        0.082        0.081        4.530       17.444       14.828      335.366        5.953      864.553
01/08/2014  09:45:00      -19.030       -0.915      -13.082       24.459       20.535       15.975      598.231      421.685      255.206        0.090        0.064       19.052       13.979        0.538      335.235        5.735      864.557
01/08/2014  09:46:00       28.168       14.110       28.679       34.659       30.705       26.956     1201.268      942.816      726.649        0.234        0.144       31.505       20.051        0.405      335.606        6.351      864.561
01/08/2014  09:47:00       82.008       80.675       78.304       35.943       24.634       21.509     1291.911      606.840      462.634        1.086        0.118      115.038       14.846        0.017      335.191        5.662      864.540
01/08/2014  09:48:00       93.144       81.654       44.143       25.954       19.410       30.973      673.625      376.747      959.304        0.965        0.100      123.868       15.219        0.015      335.067        5.454      864.486
01/08/2014  09:49:00      109.181       85.890       32.290       16.684       17.539       20.246      278.363      307.600      409.902        1.067        0.050      138.916        5.334        0.001      334.902        5.182      864.415
01/08/2014  09:50:00       68.038       33.223        0.756       24.802       26.172       20.668      615.139      684.984      427.168        0.373        0.086       75.716        6.361        0.007      335.023        5.382      864.348
01/08/2014  09:51:00        8.193       26.912        1.755       22.568       28.628       20.891      509.326      819.561      436.428        0.128        0.088       28.131       18.732        0.443      335.494        6.165      864.296
01/08/2014  09:52:00       30.526       18.663       -2.996       51.181       30.940       34.866     2619.531      957.260     1215.658        0.304        0.240       35.779       25.503        0.508      335.288        5.823      864.284
01/08/2014  09:53:00       20.716       30.922       31.148       27.979       22.357       21.983      782.829      499.842      483.256        0.206        0.088       37.220       21.150        0.323      335.429        6.056      864.311
01/08/2014  09:54:00       -7.330       16.280       11.992       14.812       15.257       21.522      219.381      232.768      463.211        0.069        0.046       17.854       13.664        0.586      335.392        5.995      864.355
01/08/2014  09:55:00      -34.669        6.881      -11.546       21.743       14.099       11.332      472.757      198.782      128.420        0.109        0.040       35.345        4.100        0.013      335.216        5.701      864.414
01/08/2014  09:56:00      -27.245       47.790        3.719       29.656       30.952       21.231      879.449      958.017      450.764        0.266        0.114       55.011       20.151        0.134      335.501        6.177      864.455
01/08/2014  09:57:00      -28.273       68.292        3.612       27.963       43.389       26.541      781.908     1882.620      704.399        0.442        0.168       73.913       26.870        0.132      335.491        6.161      864.507
01/08/2014  09:58:00      -14.400       52.484      -10.245       17.342       24.787       18.257      300.729      614.403      333.334        0.216        0.062       54.424       14.328        0.069      335.372        5.963      864.557
01/08/2014  09:59:00      -12.220       54.216       -3.084       24.847       31.751       21.600      617.393     1008.119      466.567        0.259        0.105       55.576       19.706        0.126      335.434        6.064      864.585
01/08/2014  10:00:00       -3.319       57.649       -4.565       10.824       36.311       22.845      117.169     1318.479      521.874        0.266        0.098       57.744       25.386        0.193      335.463        6.117      864.594
01/08/2014  10:01:00       -6.262       74.888       -8.291       18.338       26.973       20.873      336.270      727.566      435.671        0.361        0.075       75.149       10.504        0.020      335.397        6.005      864.598
01/08/2014  10:02:00      -51.847       74.065      -12.280       27.198       26.438       19.008      739.706      698.976      361.320        0.506        0.090       90.409        9.197        0.010      335.423        6.048      864.591
01/08/2014  10:03:00      -23.888       98.225       -8.755       29.052       40.724       26.657      844.002     1658.475      710.584        0.675        0.161      101.088       25.027        0.061      335.357        5.938      864.576
01/08/2014  10:04:00       -2.831       58.557        0.240       25.962       30.883       20.081      674.027      953.729      403.236        0.273        0.102       58.625       14.296        0.059      335.520        6.208      864.556
01/08/2014  10:05:00       24.585       55.320        5.075       37.354       36.463       27.122     1395.286     1329.537      735.614        0.357        0.173       60.537       23.355        0.149      335.637        6.404      864.521
01/08/2014  10:06:00      -58.279       32.382        3.633       55.384       31.900       20.786     3067.365     1017.579      432.061        0.449        0.226       66.671       26.936        0.163      335.645        6.416      864.475
01/08/2014  10:07:00      -57.232       26.759      -18.859       26.142       15.008       16.179      683.398      225.251      261.774        0.276        0.059       63.179       13.581        0.046      335.308        5.854      864.444
01/08/2014  10:08:00      -37.669       -4.720      -10.730       10.018       14.051       10.149      100.362      197.424      102.994        0.098        0.020       37.963        8.755        0.053      335.312        5.861      864.416
01/08/2014  10:09:00      -51.848      -30.484        0.633       32.634       23.381       13.244     1064.965      546.651      175.407        0.270        0.089       60.145        9.482        0.025      335.368        5.954      864.405
01/08/2014  10:10:00      -50.171      -20.265       15.547       46.830       35.296       25.150     2193.014     1245.775      632.505        0.362        0.204       54.109       29.156        0.290      335.571        6.292      864.384
01/08/2014  10:11:00       -9.170        8.830       15.773       17.636       17.087       15.265      311.020      291.970      233.006        0.062        0.042       12.730        9.119        0.513      336.137        7.237      864.349
01/08/2014  10:12:00      -13.774       58.409        9.116       33.720       45.917       30.691     1137.011     2108.333      941.911        0.394        0.209       60.011       25.345        0.178      335.911        6.861      864.325
01/08/2014  10:13:00      -28.780       13.302       13.609       22.090       19.874       20.212      487.966      394.984      408.536        0.124        0.065       31.705       13.677        0.186      335.938        6.904      864.302
01/08/2014  10:14:00      -16.664       11.705       -3.504       16.816       16.245       13.912      282.785      263.898      193.549        0.058        0.037       20.365        5.604        0.076      335.847        6.754      864.279
01/08/2014  10:15:00      -74.386       18.822       -7.635       25.241       23.135       15.661      637.106      535.233      245.266        0.368        0.071       76.730        8.914        0.013      335.561        6.278      864.291
01/08/2014  10:16:00      -34.743       24.386       -9.456       21.579       33.456       15.665      465.661     1119.293      245.407        0.186        0.092       42.447       11.630        0.075      335.563        6.279      864.335
01/08/2014  10:17:00      -32.037       93.276        7.744       33.243       41.624       23.193     1105.116     1732.566      537.931        0.658        0.169       98.624       21.759        0.049      335.855        6.768      864.377
01/08/2014  10:18:00      -29.258       45.840        8.223       30.700       46.172       28.460      942.468     2131.824      809.977        0.345        0.194       54.382       29.512        0.294      335.978        6.972      864.406
01/08/2014  10:19:00     -101.026       38.783      -19.941       34.171       33.815       22.543     1167.664     1143.477      508.197        0.746        0.141      108.214       16.405        0.023      335.586        6.317      864.441
01/08/2014  10:20:00      -78.469       -2.957      -11.666       31.148       27.181       16.240      970.169      738.806      263.742        0.414        0.099       78.525       12.911        0.027      335.729        6.556      864.479
01/08/2014  10:21:00      -88.545       17.346       -8.923       35.193       35.961       23.272     1238.545     1293.190      541.567        0.565        0.154       90.228       20.201        0.050      335.648        6.423      864.516
01/08/2014  10:22:00      -77.256      -24.885       -2.141       29.106       24.970       15.219      847.146      623.506      231.622        0.415        0.085       81.165       13.595        0.028      335.725        6.550      864.557
01/08/2014  10:23:00     -229.344      -23.199      -22.524       55.153       34.219       27.424     3041.831     1170.947      752.073        2.930        0.248      230.514       25.462        0.012      335.662        6.441      864.565
01/08/2014  10:24:00     -218.662      -56.915      -29.591       61.751       38.276       29.833     3813.218     1465.039      889.982        2.905        0.308      225.948       37.349        0.027      335.536        6.233      864.527
01/08/2014  10:25:00      -77.159      -44.662       -4.645       60.776       38.163       26.307     3693.745     1456.377      692.042        0.690        0.292       89.152       28.058        0.099      335.735        6.567      864.470
01/08/2014  10:26:00        2.412      -36.893       23.238       42.065       38.362       37.873     1769.480     1471.645     1434.392        0.329        0.234       36.971       28.622        0.599      335.921        6.876      864.407
01/08/2014  10:27:00        4.724      -60.347        7.505       20.243       22.825       16.759      409.772      520.983      280.878        0.247        0.061       60.531       12.255        0.041      335.846        6.752      864.340
01/08/2014  10:28:00     -104.191      -18.859      -12.365       36.653       35.933       16.411     1343.433     1291.175      269.323        0.713        0.145      105.884        9.232        0.008      335.715        6.533      864.284
01/08/2014  10:29:00      -11.810      -23.207       -4.172       17.860       19.625       17.954      318.988      385.139      322.357        0.086        0.051       26.039        7.182        0.076      335.794        6.666      864.259
01/08/2014  10:30:00       -1.227      -11.399       19.659       22.378       40.002       17.404      500.772     1600.172      302.892        0.146        0.120       11.465       16.113        1.975      336.178        7.306      864.238
01/08/2014  10:31:00      -64.306       30.502      -11.714       25.253       23.054       21.801      637.730      531.471      475.280        0.342        0.082       71.174       14.501        0.042      336.041        7.076      864.238
01/08/2014  10:32:00      -63.364       -7.851       -7.193       30.018       32.583       23.422      901.102     1061.640      548.570        0.332        0.126       63.849       16.454        0.066      336.077        7.136      864.220
01/08/2014  10:33:00      -76.969       29.539       -8.792       40.427       56.880       23.818     1634.370     3235.335      567.274        0.615        0.272       82.442       25.773        0.098      336.018        7.039      864.197
01/08/2014  10:34:00      -41.134       31.884       -2.162       29.133       28.863       25.388      848.728      833.064      644.543        0.252        0.116       52.044       26.484        0.259      336.213        7.365      864.155
01/08/2014  10:35:00      -43.254       83.299       -8.174       36.524       46.531       21.598     1334.004     2165.166      466.459        0.642        0.198       93.859       28.872        0.095      336.165        7.283      864.131
01/08/2014  10:36:00      -40.649       35.293        2.491       37.619       46.878       27.057     1415.214     2197.532      732.079        0.362        0.217       53.832       23.846        0.196      336.206        7.353      864.141
01/08/2014  10:37:00      -47.318       53.554      -10.211       30.596       65.386       25.760      936.110     4275.317      663.579        0.554        0.294       71.463       23.593        0.109      336.027        7.053      864.199
01/08/2014  10:38:00      -54.287       39.692       -4.682       27.867       34.347       17.359      776.575     1179.687      301.324        0.340        0.113       67.250       14.163        0.044      336.284        7.483      864.272
01/08/2014  10:39:00      -61.030       49.717      -10.800       30.225       44.841       19.871      913.567     2010.725      394.875        0.482        0.166       78.718       11.725        0.022      336.120        7.208      864.307
01/08/2014  10:40:00      -46.440       -8.713       13.587       40.001       39.038       28.501     1600.062     1523.937      812.311        0.318        0.197       47.250       25.218        0.285      336.269        7.458      864.311
01/08/2014  10:41:00      -12.253       15.967       12.534       40.495       34.412       23.373     1639.805     1184.213      546.301        0.197        0.169       20.126       23.079        1.315      336.517        7.873      864.301
01/08/2014  10:42:00      -24.478        1.874       -3.686       39.899       30.008       24.210     1591.909      900.467      586.125        0.185        0.154       24.549       18.344        0.558      336.339        7.575      864.278
01/08/2014  10:43:00      -76.624      -10.698      -15.953       30.249       27.455       17.697      914.977      753.771      313.197        0.411        0.099       77.367       17.284        0.050      336.090        7.158      864.274
01/08/2014  10:44:00      -26.292      -16.658        5.514       21.068       21.032       18.811      443.853      442.357      353.850        0.112        0.062       31.125        7.801        0.063      336.273        7.464      864.269
01/08/2014  10:45:00     -104.216       17.353       -9.397       39.177       18.804        9.993     1534.799      353.607       99.862        0.662        0.099      105.651       11.222        0.011      336.094        7.166      864.283
01/08/2014  10:46:00      -66.136        0.303       -6.438       17.217       31.941       14.389      296.425     1020.217      207.048        0.297        0.076       66.137       12.228        0.034      336.022        7.043      864.323
01/08/2014  10:47:00     -106.398       50.604      -17.332       33.883       22.320       19.366     1148.040      498.200      375.043        0.810        0.101      117.819       13.607        0.013      336.130        7.225      864.344
01/08/2014  10:48:00      -88.686       42.943      -17.514       21.805       23.229       17.167      475.455      539.602      294.710        0.566        0.065       98.536       12.281        0.016      336.056        7.101      864.366
01/08/2014  10:49:00      -59.306       60.862      -22.570       44.345       21.326       14.792     1966.488      454.786      218.816        0.518        0.132       84.979       14.350        0.029      336.055        7.101      864.361
01/08/2014  10:50:00       20.141       27.607        9.706       23.707       19.564       20.219      562.028      382.758      408.821        0.131        0.068       34.174       14.198        0.173      336.492        7.830      864.354
01/08/2014  10:51:00        7.092       56.601        7.844       19.836       43.335       26.398      393.469     1877.928      696.870        0.314        0.148       57.043       25.946        0.207      336.528        7.891      864.361
01/08/2014  10:52:00       20.615       38.737       -3.206       24.762       20.909       19.430      613.157      437.168      377.534        0.168        0.071       43.881       13.476        0.094      336.201        7.343      864.347
01/08/2014  10:53:00       41.314       29.022        4.579       17.756       19.149       19.420      315.267      366.669      377.133        0.181        0.053       50.489       14.828        0.086      336.321        7.543      864.344
01/08/2014  10:54:00       60.820       39.195       10.584       22.824       29.171       26.349      520.952      850.966      694.245        0.371        0.103       72.356       17.615        0.059      336.229        7.391      864.353
01/08/2014  10:55:00      -13.805       28.003        4.644       40.238       28.043       15.635     1619.066      786.429      244.457        0.182        0.132       31.221       10.057        0.104      336.487        7.822      864.369
01/08/2014  10:56:00        0.551       63.131       -8.324       26.104       44.094       21.802      681.427     1944.253      475.313        0.358        0.155       63.133       18.450        0.085      336.397        7.671      864.385
01/08/2014  10:57:00       -6.695       68.106       -3.197       24.998       34.859       19.798      624.879     1215.152      391.943        0.346        0.112       68.434       15.938        0.054      336.473        7.799      864.399
01/08/2014  10:58:00      -30.566       15.347       -2.712       19.588       21.067       17.514      383.708      443.798      306.724        0.116        0.057       34.202       12.134        0.126      336.572        7.965      864.411
01/08/2014  10:59:00      -38.993       40.460       -8.189       31.662       40.208       17.251     1002.509     1616.677      297.605        0.307        0.146       56.191        8.028        0.020      336.424        7.717      864.431
01/08/2014  11:00:00      -28.726       51.815      -13.152       26.301       31.494       14.487      691.765      991.886      209.861        0.279        0.095       59.245       12.532        0.045      336.421        7.711      864.467
01/08/2014  11:01:00      -27.515       38.760       -5.734       44.797       44.989       25.913     2006.790     2023.986      671.485        0.350        0.235       47.533       23.974        0.254      336.556        7.938      864.504
01/08/2014  11:02:00      -51.487       29.210       -7.719       49.187       27.591       21.039     2419.325      761.253      442.622        0.359        0.181       59.196       21.941        0.137      336.578        7.973      864.511
01/08/2014  11:03:00        4.080       22.461        7.933       38.179       26.692       20.243     1457.654      712.454      409.787        0.158        0.129       22.828       14.189        0.386      336.722        8.215      864.477
01/08/2014  11:04:00       18.733       12.458        7.651       25.471       21.291       24.592      648.786      453.303      604.780        0.114        0.085       22.497       13.500        0.360      336.813        8.367      864.427
01/08/2014  11:05:00       11.089       14.137        9.023       42.037       23.993       25.469     1767.096      575.653      648.668        0.170        0.150       17.967       16.083        0.801      336.736        8.238      864.393
01/08/2014  11:06:00      -19.774       18.997       -0.626       36.864       27.379       18.839     1358.946      749.595      354.889        0.161        0.123       27.421       16.990        0.384      336.614        8.035      864.363
01/08/2014  11:07:00      -62.005      -30.781       -0.723       31.185       37.000       20.578      972.476     1368.973      423.435        0.378        0.138       69.225       22.114        0.102      336.514        7.867      864.343
01/08/2014  11:08:00      -16.293      -16.357       11.322       35.249       19.883       21.091     1242.524      395.339      444.841        0.137        0.104       23.087       13.313        0.333      336.674        8.135      864.342
01/08/2014  11:09:00      -91.469       -1.550       -8.547       38.179       36.533       20.275     1457.628     1334.651      411.079        0.582        0.160       91.482       18.889        0.043      336.276        7.468      864.342
01/08/2014  11:10:00      -81.430      -16.285       -8.079       23.943       22.411       15.586      573.261      502.246      242.915        0.414        0.066       83.042        4.498        0.003      336.396        7.669      864.332
01/08/2014  11:11:00      -25.382      -47.983        3.419       23.143       25.114       25.605      535.606      630.697      655.627        0.239        0.091       54.282       18.521        0.116      336.501        7.845      864.311
01/08/2014  11:12:00       -3.630      -42.430       -1.981        9.380       23.381       10.279       87.993      546.672      105.652        0.128        0.037       42.585        5.847        0.019      336.370        7.626      864.299
01/08/2014  11:13:00      -35.999       -7.987       -3.288       14.557       14.368        7.392      211.908      206.451       54.637        0.092        0.024       36.874        6.616        0.032      336.513        7.865      864.293
01/08/2014  11:14:00      -60.123        6.858       -1.337       28.776       26.433       17.750      828.066      698.706      315.077        0.275        0.092       60.513       14.605        0.058      336.542        7.915      864.282
01/08/2014  11:15:00      -62.172       18.370       -5.339       33.349       30.307       22.937     1112.166      918.527      526.127        0.339        0.128       64.830       13.453        0.043      336.666        8.122      864.261
01/08/2014  11:16:00      -74.225      -22.060      -12.929       54.891       43.445       17.977     3013.008     1887.438      323.170        0.569        0.261       77.433       14.629        0.036      336.665        8.120      864.228
01/08/2014  11:17:00      -73.468      -39.739       -1.413       59.006       29.788       27.895     3481.665      887.325      778.111        0.606        0.257       83.527       29.485        0.125      336.607        8.022      864.214
01/08/2014  11:18:00      -43.341      -16.734        8.089       36.319       34.316       23.883     1319.055     1177.600      570.400        0.264        0.153       46.459       23.802        0.262      336.720        8.210      864.214
01/08/2014  11:19:00      -71.498       -8.456       -2.905       37.316       30.975       26.663     1392.486      959.466      710.913        0.413        0.153       71.997       10.750        0.022      336.798        8.342      864.214
01/08/2014  11:20:00      -34.312      -10.183      -22.454       39.721       38.714       21.288     1577.768     1498.753      453.175        0.266        0.176       35.791       15.032        0.176      336.669        8.126      864.180
01/08/2014  11:21:00      -57.800      -25.880       -2.459       59.479       36.709       26.424     3537.706     1347.572      698.253        0.480        0.279       63.329       27.348        0.186      336.756        8.273      864.157
01/08/2014  11:22:00       13.774       43.502       27.892       40.730       47.555       34.514     1658.951     2261.472     1191.244        0.399        0.256       45.630       30.152        0.437      337.352        9.269      864.159
01/08/2014  11:23:00      -42.468       47.411       31.981       55.109       39.863       35.152     3037.002     1589.054     1235.660        0.547        0.293       63.650       23.057        0.131      337.369        9.296      864.165
01/08/2014  11:24:00      -22.124       56.762       17.300       31.399       52.299       29.791      985.889     2735.168      887.521        0.431        0.230       60.921       28.609        0.221      337.418        9.379      864.153
01/08/2014  11:25:00        0.679       55.620        1.242       32.877       68.449       31.928     1080.883     4685.240     1019.394        0.494        0.339       55.624       32.071        0.332      336.865        8.453      864.150
01/08/2014  11:26:00      -29.860       50.643       -2.841       29.810       34.520       26.650      888.626     1191.615      710.222        0.313        0.140       58.790       21.438        0.133      336.755        8.269      864.142
01/08/2014  11:27:00       14.863       67.887       -5.605       18.451       26.699       17.583      340.451      712.815      309.157        0.311        0.068       69.495       13.431        0.037      336.757        8.273      864.142
01/08/2014  11:28:00       37.043      -21.959      -25.728       27.403       45.904       13.028      750.940     2107.184      169.739        0.277        0.151       43.062       12.023        0.078      336.580        7.978      864.143
01/08/2014  11:29:00       41.691       14.979       43.909       42.026       88.491       46.491     1766.163     7830.637     2161.375        0.782        0.588       44.301       33.351        0.567      336.976        8.639      864.121
01/08/2014  11:30:00       71.289       55.816       15.374       35.132       39.866       34.333     1234.232     1589.318     1178.767        0.622        0.200       90.540       27.250        0.091      336.634        8.069      864.104
01/08/2014  11:31:00       82.754       76.468       18.718       44.449       38.400       48.892     1975.750     1474.541     2390.397        0.944        0.292      112.674       39.634        0.124      336.750        8.262      864.095
01/08/2014  11:32:00       86.679       83.199       10.759       27.777       38.745       37.984      771.548     1501.211     1442.793        0.913        0.186      120.147       23.189        0.037      336.790        8.328      864.096
01/08/2014  11:33:00      132.982       61.867       -0.834       63.607       39.771       32.853     4045.790     1581.758     1079.324        1.411        0.335      146.669       16.796        0.013      336.609        8.025      864.087
01/08/2014  11:34:00       49.399       76.001        5.710       37.604       88.452       43.547     1414.062     7823.675     1896.341        0.969        0.557       90.645       48.478        0.286      336.697        8.174      864.079
01/08/2014  11:35:00       32.765      139.495      -16.579       31.632       47.268       29.892     1000.584     2234.289      893.549        1.247        0.206      143.292       25.134        0.031      336.741        8.247      864.053
01/08/2014  11:36:00       15.169        7.247        2.476       38.835       43.669       31.354     1508.186     1906.989      983.076        0.234        0.220       16.811       17.486        1.082      336.787        8.324      864.028
01/08/2014  11:37:00        1.136       60.332       84.940       33.711       39.904       25.571     1136.442     1592.303      653.899        0.712        0.169       60.342       20.099        0.111      337.046        8.755      863.988
01/08/2014  11:38:00        3.007       40.826       67.117       26.525       46.315       25.883      703.595     2145.108      669.945        0.485        0.176       40.937       19.208        0.220      337.182        8.984      863.990
01/08/2014  11:39:00       -2.349      -28.744       18.265       15.878       31.220       17.673      252.097      974.719      312.344        0.135        0.077       28.840       15.728        0.297      337.208        9.028      863.996
01/08/2014  11:40:00        1.974       10.478       30.955       14.923       32.135       15.637      222.707     1032.632      244.509        0.129        0.075       10.662       19.442        3.325      337.231        9.065      863.985
01/08/2014  11:41:00       26.402       22.768       19.290       39.874       27.470       23.817     1589.927      754.585      567.271        0.225        0.146       34.863       17.833        0.262      336.886        8.488      863.983
01/08/2014  11:42:00       -3.113       23.164       20.317       17.820       25.116       18.114      317.557      630.825      328.102        0.112        0.064       23.373       11.985        0.263      337.222        9.050      863.962
01/08/2014  11:43:00        7.948       24.954        7.346       17.335       40.534       22.254      300.500     1643.024      495.238        0.159        0.122       26.189        9.067        0.120      337.189        8.996      863.955
01/08/2014  11:44:00        1.229      -19.123       -4.867       16.261       19.664       21.440      264.435      386.683      459.693        0.075        0.056       19.163        9.595        0.251      337.173        8.968      863.934
01/08/2014  11:45:00       -6.789       10.279       14.033       16.666       12.631       15.346      277.744      159.543      235.509        0.051        0.034       12.318       13.084        1.128      337.596        9.678      863.924
01/08/2014  11:46:00        3.875       63.039       -4.357       18.436       44.553       21.572      339.871     1984.961      465.353        0.340        0.140       63.158       21.381        0.115      337.216        9.041      863.929
01/08/2014  11:47:00      -10.704       79.833       -0.180       21.550       45.825       24.131      464.410     2099.924      582.295        0.482        0.157       80.547       26.858        0.111      337.174        8.970      863.941
01/08/2014  11:48:00        3.315       95.124      -12.664       33.102       58.490       24.511     1095.763     3421.099      600.773        0.717        0.256       95.182       31.990        0.113      336.982        8.648      863.953
01/08/2014  11:49:00      -97.549       40.114       -3.727       78.532       43.172       39.870     6167.319     1863.817     1589.649        1.038        0.481      105.475       33.163        0.099      337.102        8.849      863.944
01/08/2014  11:50:00      -25.146       97.598       12.137       40.978       55.538       40.052     1679.156     3084.478     1604.197        0.834        0.318      100.785       36.960        0.134      337.312        9.201      863.938
01/08/2014  11:51:00      -35.800       22.636        8.192       36.631       29.078       22.305     1341.825      845.516      497.531        0.227        0.134       42.356       21.202        0.251      337.312        9.201      863.901
01/08/2014  11:52:00       48.584       96.536        4.284       42.670       81.462       37.940     1820.714     6636.068     1439.415        1.080        0.495      108.072       43.957        0.165      337.063        8.783      863.851
01/08/2014  11:53:00       24.097       46.564        6.585       57.461       38.947       31.953     3301.822     1516.897     1020.976        0.431        0.292       52.430       28.367        0.293      337.150        8.929      863.814
01/08/2014  11:54:00       60.753       27.439        8.679       67.513       59.480       42.817     4558.024     3537.854     1833.255        0.722        0.496       66.662       33.421        0.251      337.189        8.996      863.768
01/08/2014  11:55:00      -37.222       12.924       14.956       50.900       45.407       29.262     2590.787     2061.787      856.268        0.364        0.275       39.402       28.032        0.506      337.198        9.011      863.707
01/08/2014  11:56:00        4.923      115.414       -3.737       78.093       63.263       34.092     6098.540     4002.229     1162.251        1.231        0.563      115.519       38.413        0.111      337.209        9.027      863.685
01/08/2014  11:57:00      -39.119      218.461      -33.412       85.090       82.633       32.761     7240.391     6828.209     1073.308        3.275        0.757      221.936       25.994        0.014      336.879        8.474      863.661
01/08/2014  11:58:00      -79.986       98.388      -15.365       65.986       62.817       28.125     4354.141     3945.931      791.038        1.270        0.455      126.799       26.285        0.043      336.864        8.453      863.647
01/08/2014  11:59:00      -27.884      198.341      -24.427       29.846       71.750       27.914      890.783     5148.029      779.177        2.376        0.341      200.292       25.202        0.016      336.938        8.574      863.647
01/08/2014  12:00:00      -51.212      146.981      -19.533       47.851       65.335       32.833     2289.732     4268.644     1078.000        1.612        0.382      155.647       24.438        0.025      337.045        8.755      863.655
01/08/2014  12:01:00      -83.297      126.490      -13.406       48.250       66.116       33.621     2328.050     4371.263     1130.393        1.547        0.391      151.453       28.740        0.036      337.038        8.743      863.657
01/08/2014  12:02:00      -85.751      125.778      -14.273       38.664       35.929       29.593     1494.909     1290.898      875.740        1.352        0.183      152.227       24.869        0.027      336.881        8.480      863.642
01/08/2014  12:03:00      -28.777       79.654        0.372       59.462       69.946       36.388     3535.711     4892.421     1324.109        0.846        0.488       84.692       44.912        0.281      337.165        8.956      863.588
01/08/2014  12:04:00      -23.759      158.404      -14.018       39.115       63.760       34.588     1530.008     4065.330     1196.354        1.632        0.340      160.175       32.840        0.042      337.024        8.719      863.521
01/08/2014  12:05:00       -8.665      138.099       -9.407       29.931       48.855       27.547      895.855     2386.802      758.839        1.164        0.202      138.371       27.925        0.041      337.056        8.772      863.436
01/08/2014  12:06:00       39.799       97.716        2.273       63.300       63.112       46.514     4006.939     3983.118     2163.589        1.064        0.508      105.510       42.925        0.166      337.065        8.787      863.342
01/08/2014  12:07:00       57.398      129.639      -14.347       64.416       79.090       44.550     4149.379     6255.303     1984.708        1.635        0.619      141.777       47.927        0.114      336.983        8.649      863.255
01/08/2014  12:08:00       35.970       92.887        9.448       44.522       65.263       38.839     1982.214     4259.306     1508.443        0.888        0.387       99.608       36.464        0.134      337.027        8.724      863.199
01/08/2014  12:09:00       20.278       69.815       -1.648       52.681       48.668       34.763     2775.291     2368.608     1208.456        0.582        0.318       72.701       30.063        0.171      337.069        8.794      863.155
01/08/2014  12:10:00       81.286       38.447       22.060      106.381       48.686       45.087    11316.822     2370.352     2032.795        1.214        0.786       89.920       24.446        0.074      337.103        8.850      863.111
01/08/2014  12:11:00       99.741       65.157        0.369       48.269       44.284       37.368     2329.941     1961.087     1396.367        0.994        0.284      119.137       31.604        0.070      336.998        8.676      863.072
01/08/2014  12:12:00      -45.567      227.877      -25.881       65.669       99.328       41.504     4312.364     9866.036     1722.604        3.528        0.795      232.388       49.435        0.045      336.860        8.442      863.041
01/08/2014  12:13:00      -29.101      256.201      -27.029       52.487       67.315       28.113     2754.882     4531.328      790.346        3.765        0.404      257.848       25.613        0.010      336.831        8.392      863.012
01/08/2014  12:14:00       27.932      134.332       -4.096       53.716       69.632       39.430     2885.384     4848.598     1554.698        1.406        0.464      137.206       43.644        0.101      336.796        8.338      863.000
01/08/2014  12:15:00       20.153      164.811      -14.787       55.810       89.603       39.004     3114.809     8028.692     1521.340        2.022        0.633      166.039       38.510        0.054      336.865        8.451      862.970
01/08/2014  12:16:00       71.975      125.008        4.792       78.265       81.880       67.814     6125.386     6704.336     4598.756        1.913        0.871      144.248       54.264        0.142      336.951        8.596      862.924
01/08/2014  12:17:00       93.926      183.900      -10.298       78.384       87.437       56.899     6144.024     7645.272     3237.441        2.988        0.851      206.497       56.034        0.074      336.826        8.384      862.862
01/08/2014  12:18:00       34.178      137.897      -11.356       52.841       75.275       41.732     2792.125     5666.269     1741.601        1.525        0.510      142.069       39.209        0.076      336.822        8.382      862.815
01/08/2014  12:19:00       86.882       77.874        6.263       49.988       39.602       42.985     2498.839     1568.325     1847.726        0.978        0.296      116.674       26.592        0.052      336.849        8.427      862.779
01/08/2014  12:20:00      102.315       88.924        9.939       45.277       48.838       44.940     2050.052     2385.117     2019.639        1.246        0.323      135.557       37.040        0.075      336.754        8.269      862.755
01/08/2014  12:21:00       89.638       64.142       16.100       53.928       37.126       29.522     2908.209     1378.305      871.553        0.878        0.258      110.224        5.065        0.002      336.909        8.526      862.760
01/08/2014  12:22:00       19.048      105.062      -20.032       25.590       30.912       19.353      654.873      955.567      374.545        0.689        0.099      106.775       18.207        0.029      336.715        8.204      862.775
01/08/2014  12:23:00       14.243       45.628        2.510       21.263       48.395       18.782      452.103     2342.119      352.775        0.272        0.157       47.799       15.506        0.105      336.877        8.474      862.752
01/08/2014  12:24:00      -13.803       97.721      -14.580       16.778       22.520       11.808      281.511      507.161      139.424        0.544        0.046       98.691        7.941        0.006      336.753        8.267      862.689
01/08/2014  12:25:00      -19.335       58.066       16.598       36.475       31.525       30.069     1330.439      993.817      904.158        0.362        0.161       61.200       19.786        0.105      337.151        8.933      862.613
01/08/2014  12:26:00       23.688       27.601       18.013       20.479       20.153       20.595      419.373      406.162      424.153        0.145        0.062       36.372       17.297        0.226      337.257        9.108      862.534
01/08/2014  12:27:00       21.083       35.550        9.127       14.527       16.647       22.009      211.021      277.117      484.374        0.138        0.049       41.332       10.283        0.062      337.002        8.681      862.483
01/08/2014  12:28:00       19.454       29.655       11.527       10.724       11.018       14.610      115.013      121.398      213.462        0.092        0.022       35.466        4.982        0.020      337.061        8.780      862.464
01/08/2014  12:29:00       40.716       18.196       11.346       26.988       15.893       19.515      728.368      252.587      380.838        0.174        0.068       44.597       11.191        0.063      337.152        8.933      862.477
01/08/2014  12:30:00       43.475       12.546       -5.904       29.558       24.198       23.333      873.698      585.528      544.410        0.204        0.100       45.249       14.994        0.110      337.118        8.875      862.474
01/08/2014  12:31:00       -2.018      -11.240       15.081       24.123       28.707       23.056      581.931      824.089      531.593        0.115        0.097       11.420       18.610        2.656      337.406        9.359      862.446
01/08/2014  12:32:00       73.914       36.454       65.423       75.130       62.687       54.456     5644.575     3929.600     2965.471        1.180        0.627       82.414       51.129        0.385      337.295        9.171      862.397
01/08/2014  12:33:00       28.132      113.005      140.330       80.429       77.976       56.770     6468.891     6080.203     3222.815        2.451        0.789      116.454       56.734        0.237      337.012        8.698      862.355
01/08/2014  12:34:00      107.779      -29.878       42.527       95.387      100.931       79.988     9098.669    10186.975     6398.061        2.000        1.284      111.844       86.081        0.592      337.063        8.783      862.325
01/08/2014  12:35:00       56.141       32.785       87.468       81.510      122.989       76.084     6643.857    15126.354     5788.849        1.971        1.378       65.012       96.239        2.191      337.067        8.789      862.311
01/08/2014  12:36:00       69.368      -48.990       16.177       72.856       54.698       34.464     5308.055     2991.873     1187.735        0.848        0.474       84.923       31.417        0.137      337.290        9.163      862.309
01/08/2014  12:37:00       50.738      -16.445        5.252       68.709       57.949       32.771     4720.875     3358.048     1073.930        0.601        0.458       53.336       26.636        0.249      337.228        9.060      862.306
01/08/2014  12:38:00       32.515      -47.876       17.654       49.652       66.192       37.249     2465.277     4381.372     1387.483        0.595        0.412       57.874       41.456        0.513      337.262        9.117      862.297
01/08/2014  12:39:00       41.766       19.921       21.962       35.751       49.576       32.986     1278.168     2457.799     1088.099        0.372        0.241       46.273       22.135        0.229      337.261        9.116      862.266
01/08/2014  12:40:00       69.327       39.631       29.096       44.878       39.945       33.335     2014.078     1595.588     1111.197        0.597        0.236       79.855       14.937        0.035      337.194        9.003      862.220
01/08/2014  12:41:00      129.169      100.189       59.340       53.837       28.357       40.550     2898.394      804.100     1644.340        1.779        0.267      163.470       28.298        0.030      336.944        8.585      862.192
01/08/2014  12:42:00      107.774       61.929       33.368       58.177       28.965       32.815     3384.515      838.964     1076.811        1.093        0.265      124.299       24.955        0.040      336.906        8.523      862.181
01/08/2014  12:43:00       26.210       22.942       39.709       35.802       50.657       39.334     1281.760     2566.148     1547.127        0.409        0.270       34.832       32.100        0.849      337.241        9.082      862.169
01/08/2014  12:44:00       99.716       37.758        6.932       54.715       42.274       40.561     2993.713     1787.089     1645.160        0.892        0.321      106.626       35.027        0.108      337.104        8.852      862.124
01/08/2014  12:45:00       55.905       20.345       28.320       50.323       76.606       41.820     2532.381     5868.447     1748.880        0.724        0.507       59.492       31.137        0.274      337.196        9.006      862.068
01/08/2014  12:46:00       69.557      -84.687       23.712       85.237      100.083       61.382     7265.398    10016.537     3767.707        1.681        1.052      109.591       52.856        0.233      337.285        9.155      862.008
01/08/2014  12:47:00      108.354      -34.299       68.901      120.298      128.180      106.338    14471.668    16430.038    11307.668        2.993        2.110      113.653      109.387        0.926      337.191        8.996      861.969
01/08/2014  12:48:00      104.108     -118.034      -14.823      104.552      126.386       80.978    10931.187    15973.325     6557.411        2.922        1.673      157.387       89.138        0.321      337.161        8.947      861.942
01/08/2014  12:49:00       30.627      -59.061       49.892       65.085       76.253       57.669     4236.037     5814.547     3325.677        1.014        0.669       66.530       52.564        0.624      337.282        9.151      861.912
01/08/2014  12:50:00      109.046     -164.920       24.720       91.265       92.967       59.380     8329.233     8642.881     3525.940        3.010        1.025      197.711       50.881        0.066      337.042        8.747      861.880
01/08/2014  12:51:00       44.448      -22.960       63.064       88.479      123.076       82.292     7828.477    15147.773     6771.926        1.811        1.487       50.028       98.136        3.848      337.067        8.788      861.828
01/08/2014  12:52:00       84.285     -111.925        3.049       81.306      103.788       71.675     6610.643    10772.005     5137.377        2.108        1.126      140.111       76.470        0.298      337.044        8.751      861.772
01/08/2014  12:53:00       71.887      -75.018       33.799       66.250      146.231       66.861     4389.089    21383.427     4470.347        2.109        1.512      103.901       85.037        0.670      337.125        8.887      861.748
01/08/2014  12:54:00      169.216      -91.732       41.174      126.915      156.984      102.059    16107.460    24643.978    10416.036        4.495        2.558      192.481      114.395        0.353      336.971        8.627      861.731
01/08/2014  12:55:00       69.436     -104.725       28.188      100.863      112.694       80.410    10173.323    12699.987     6465.726        2.296        1.467      125.653       76.775        0.373      337.078        8.806      861.738
01/08/2014  12:56:00       88.178     -148.496       -0.332       95.843      111.815       67.876     9185.875    12502.649     4607.103        2.806        1.315      172.703       79.685        0.213      336.975        8.634      861.742
01/08/2014  12:57:00       34.057      -26.423       55.859       79.235       97.401       69.695     6278.196     9486.963     4857.378        1.280        1.031       43.105       52.874        1.505      337.089        8.828      861.718
01/08/2014  12:58:00       60.008     -122.943       30.832       64.569       96.040       55.335     4169.141     9223.743     3061.950        1.806        0.823      136.806       57.669        0.178      337.034        8.735      861.717
01/08/2014  12:59:00       -8.668      -17.174       33.891       46.914       61.703       45.418     2200.894     3807.235     2062.807        0.479        0.404       19.237       44.517        5.355      337.285        9.155      861.707
01/08/2014  13:00:00       64.998      -61.991       16.152       75.807       52.228       42.327     5746.694     2727.814     1791.574        0.930        0.513       89.820       30.939        0.119      337.296        9.174      861.699
01/08/2014  13:01:00       22.298       44.226      109.580       67.699      104.838       68.729     4583.126    10990.937     4723.731        1.738        1.015       49.529       75.720        2.337      337.135        8.905      861.670
01/08/2014  13:02:00       41.577      -19.788       52.810       80.791       56.253       44.149     6527.260     3164.427     1949.163        0.827        0.582       46.046       43.856        0.907      337.198        9.010      861.627
01/08/2014  13:03:00        9.829       22.299       62.392       35.078       44.722       31.646     1230.501     2000.070     1001.468        0.436        0.212       24.369       30.689        1.586      337.386        9.325      861.587
01/08/2014  13:04:00       92.245     -163.591      -13.296       87.122       99.143       52.072     7590.286     9829.238     2711.441        2.779        1.007      187.806       59.435        0.100      337.009        8.692      861.566
01/08/2014  13:05:00       17.952     -108.827      -21.276       68.392       85.303       60.674     4677.517     7276.660     3681.372        1.412        0.782      110.298       45.693        0.172      337.135        8.905      861.551
01/08/2014  13:06:00       56.561     -111.435       -0.477       83.764       90.486       45.672     7016.327     8187.734     2085.961        1.645        0.865      124.968       43.404        0.121      337.065        8.786      861.561
01/08/2014  13:07:00       71.365      -83.574       22.579       73.311      102.180       54.567     5374.497    10440.831     2977.611        1.569        0.940      109.899       59.775        0.296      337.093        8.833      861.575
01/08/2014  13:08:00       30.462      -42.746       36.674       47.857       83.211       39.091     2290.300     6924.048     1528.105        0.742        0.537       52.489       37.807        0.519      337.316        9.207      861.577
01/08/2014  13:09:00       29.113      -20.112       65.390       63.313       76.682       68.330     4008.519     5880.121     4668.966        1.004        0.728       35.384       68.132        3.708      337.290        9.164      861.568
01/08/2014  13:10:00       19.208      -64.373       26.793       41.851      107.666       75.077     1751.495    11591.881     5636.538        1.210        0.949       67.178       86.332        1.652      337.068        8.792      861.569
01/08/2014  13:11:00       73.879       85.297      108.792       66.751       60.049       52.795     4455.652     3605.823     2787.270        1.771        0.542      112.844       48.614        0.186      337.022        8.716      861.557
01/08/2014  13:12:00       46.038        4.979       70.072       70.470       81.660       56.780     4966.043     6668.342     3224.011        1.095        0.743       46.306       60.787        1.723      337.131        8.898      861.537
01/08/2014  13:13:00       12.051      -15.459       35.799       25.453       38.128       26.466      647.833     1453.760      700.425        0.223        0.140       19.601       24.454        1.557      337.275        9.138      861.540
01/08/2014  13:14:00       76.637     -115.999      -10.292       79.450       94.665       52.231     6312.254     8961.439     2728.098        1.872        0.900      139.029       65.057        0.219      337.131        8.897      861.535
01/08/2014  13:15:00       98.727     -135.675      -25.873       83.464       84.384       45.266     6966.189     7120.695     2048.983        2.248        0.807      167.793       45.554        0.074      337.048        8.758      861.536
01/08/2014  13:16:00       26.819       16.488       68.438       49.117       56.492       43.294     2412.528     3191.388     1874.371        0.658        0.374       31.482       39.050        1.539      337.332        9.236      861.547
01/08/2014  13:17:00       40.039      -22.663       31.204       40.175       49.028       44.842     1614.003     2403.776     2010.830        0.456        0.301       46.008       43.457        0.892      337.289        9.162      861.553
01/08/2014  13:18:00       -4.262        0.015       19.190       30.269       33.065       27.026      916.202     1093.297      730.428        0.156        0.137        4.262       26.272       37.988      337.273        9.136      861.548
01/08/2014  13:19:00      -32.489       -7.106       13.540       29.448       33.724       21.110      867.189     1137.305      445.636        0.187        0.123       33.257       15.480        0.217      337.328        9.228      861.533
01/08/2014  13:20:00      -44.152       36.606       55.334       35.096       46.294       45.973     1231.715     2143.165     2113.492        0.592        0.274       57.353       30.305        0.279      337.353        9.269      861.530
01/08/2014  13:21:00      -21.921     -116.998      -14.899       59.654       77.074       49.782     3558.630     5940.377     2478.249        1.318        0.599      119.034       45.792        0.148      337.209        9.029      861.538
01/08/2014  13:22:00      -16.208      -30.508       12.122       34.675       56.478       38.631     1202.347     3189.809     1492.369        0.361        0.294       34.546       32.877        0.906      337.346        9.257      861.548
01/08/2014  13:23:00       58.081     -123.839      -13.470       90.850       66.437       35.207     8253.771     4413.846     1239.529        1.640        0.695      136.782       14.418        0.011      337.149        8.928      861.573
01/08/2014  13:24:00       72.126      -94.840       -3.125       59.971       60.194       37.041     3596.509     3623.296     1372.046        1.140        0.430      119.151       44.873        0.142      337.061        8.781      861.592
01/08/2014  13:25:00       24.476      -12.411       49.743       57.795       69.812       63.452     3340.298     4873.731     4026.140        0.773        0.612       27.442       67.942        6.130      337.084        8.819      861.592
01/08/2014  13:26:00       62.262     -114.767        3.552       52.044       81.604       47.287     2708.597     6659.206     2236.022        1.433        0.580      130.568       50.257        0.148      337.033        8.732      861.590
01/08/2014  13:27:00       28.096        6.959       40.618       45.727       66.622       34.891     2090.996     4438.487     1217.416        0.512        0.387       28.945       45.343        2.454      337.035        8.738      861.583
01/08/2014  13:28:00      -14.385      -19.871       12.727       16.788       17.172       20.428      281.830      294.875      417.301        0.088        0.050       24.531       16.430        0.449      337.220        9.048      861.572
01/08/2014  13:29:00       -1.784       24.821       34.090       11.695       23.155       36.715      136.774      536.147     1348.001        0.190        0.101       24.885       20.490        0.678      337.213        9.035      861.568
01/08/2014  13:30:00       55.758       40.613       26.421       49.966       34.799       34.814     2496.634     1210.966     1211.990        0.519        0.246       68.981       30.732        0.198      337.072        8.798      861.563
01/08/2014  13:31:00      103.426       66.265        1.147       42.544       37.387       32.222     1810.005     1397.794     1038.227        0.967        0.212      122.833       26.818        0.048      336.959        8.610      861.554
01/08/2014  13:32:00      124.459       72.439       25.651       38.768       31.795       35.489     1502.961     1010.897     1259.487        1.258        0.189      144.005       22.933        0.025      336.917        8.540      861.543
01/08/2014  13:33:00      109.479       74.099       29.343       39.740       26.740       30.262     1579.252      715.029      915.762        1.077        0.161      132.198       21.561        0.027      336.924        8.552      861.545
01/08/2014  13:34:00       72.963       54.444       17.043       25.471       19.565       19.462      648.753      382.784      378.785        0.499        0.071       91.037        8.611        0.009      336.977        8.639      861.548
01/08/2014  13:35:00       47.101       52.472       55.412       67.663       39.728       45.096     4578.291     1578.350     2033.609        0.811        0.410       70.512       46.952        0.443      337.183        8.985      861.554
01/08/2014  13:36:00       62.649      -97.024        3.839       52.717       78.970       44.631     2779.050     6236.268     1991.929        1.218        0.550      115.493       51.007        0.195      337.160        8.946      861.544
01/08/2014  13:37:00       54.227      109.644      103.927       49.230       63.811       51.135     2423.566     4071.791     2614.792        1.744        0.456      122.321       43.490        0.126      337.165        8.953      861.532
01/08/2014  13:38:00       65.898      -28.914       25.882       44.339       76.073       41.476     1965.949     5787.121     1720.250        0.766        0.474       71.962       37.742        0.275      337.055        8.770      861.511
01/08/2014  13:39:00       28.284       41.898       71.927       44.197       62.008       43.893     1953.381     3844.957     1926.558        0.773        0.386       50.551       39.507        0.611      337.251        9.099      861.474
01/08/2014  13:40:00       44.121       13.589       70.692       43.105       69.172       36.266     1857.998     4784.793     1315.256        0.754        0.398       46.166       37.764        0.669      337.227        9.061      861.466
01/08/2014  13:41:00       60.137       58.575       75.923       64.937       61.359       36.595     4216.867     3764.952     1339.211        1.106        0.466       83.949       29.109        0.120      337.255        9.104      861.457
01/08/2014  13:42:00      118.482       74.909       30.218       56.584       39.175       39.687     3201.762     1534.701     1575.087        1.344        0.316      140.176       29.527        0.044      337.002        8.681      861.453
01/08/2014  13:43:00       46.648       57.022       68.326       44.270       35.992       29.838     1959.805     1295.436      890.298        0.712        0.207       73.672       18.650        0.064      337.171        8.965      861.442
01/08/2014  13:44:00       79.218       40.905       -5.851       31.347       33.373       25.599      982.614     1113.769      655.295        0.537        0.138       89.156       12.652        0.020      337.053        8.767      861.432
01/08/2014  13:45:00       42.600      -25.467       39.455       59.288       86.241       50.814     3515.041     7437.501     2582.109        0.878        0.677       49.632       54.613        1.211      337.311        9.200      861.413
01/08/2014  13:46:00      186.883     -163.052      -29.735       68.447       72.193       45.846     4684.928     5211.832     2101.820        3.720        0.600      248.015       42.739        0.030      337.058        8.770      861.396
01/08/2014  13:47:00       39.410        9.714       53.690       60.363       64.032       49.591     3643.719     4100.042     2459.259        0.736        0.510       40.590       35.322        0.757      337.311        9.199      861.401
01/08/2014  13:48:00        3.092      -28.059       40.427       51.512       98.189       45.196     2653.497     9641.015     2042.684        0.838        0.717       28.229       60.712        4.625      337.278        9.145      861.408
01/08/2014  13:49:00       35.810      -36.840       18.094       54.503       82.807       35.622     2970.606     6856.961     1268.925        0.703        0.555       51.377       50.882        0.981      337.160        8.945      861.429
01/08/2014  13:50:00       11.503      -51.511       -0.013       32.631       34.290       33.117     1064.812     1175.822     1096.705        0.306        0.167       52.780       29.415        0.311      337.389        9.329      861.447
01/08/2014  13:51:00      -30.903      -18.671       10.811       35.011       22.841       19.775     1225.783      521.725      391.035        0.178        0.107       36.106       12.743        0.125      337.360        9.282      861.450
01/08/2014  13:52:00       -6.995        7.543       35.091       19.807       32.653       34.436      392.327     1066.244     1185.869        0.199        0.132       10.287       24.921        5.869      337.480        9.483      861.432
01/08/2014  13:53:00      -13.311       31.181       67.595       15.344       29.837       18.161      235.452      890.261      329.808        0.359        0.073       33.904       19.196        0.321      337.483        9.487      861.422
01/08/2014  13:54:00       13.847       14.095       51.989       45.304       63.247       40.364     2052.442     4000.243     1629.239        0.539        0.384       19.759       50.384        6.502      337.311        9.199      861.422
01/08/2014  13:55:00       25.966      -29.490       27.427       37.198       78.227       49.211     1383.717     6119.496     2421.744        0.611        0.496       39.292       47.647        1.471      337.288        9.161      861.409
01/08/2014  13:56:00       81.454      -73.285      -25.283       59.894       71.417       44.101     3587.319     5100.352     1944.899        1.164        0.532      109.569       48.038        0.192      337.211        9.031      861.395
01/08/2014  13:57:00       57.295       -5.363       41.138       41.859       54.717       34.997     1752.198     2993.967     1224.821        0.549        0.299       57.545       36.265        0.397      337.255        9.107      861.384
01/08/2014  13:58:00       11.144       14.739       46.191       42.205       53.607       42.009     1781.290     2873.730     1764.747        0.445        0.321       18.478       45.923        6.177      337.371        9.300      861.371
01/08/2014  13:59:00       36.909       38.882       62.312       51.498       64.769       53.167     2652.015     4195.063     2826.774        0.821        0.484       53.610       54.710        1.041      337.332        9.234      861.370
01/08/2014  14:00:00        8.364       29.936       58.410       31.510       34.306       28.797      992.911     1176.913      829.294        0.369        0.150       31.082       28.216        0.824      337.388        9.328      861.385
01/08/2014  14:01:00       16.054      -30.349       29.274       35.968       57.145       32.645     1293.717     3265.547     1065.720        0.383        0.281       34.334       35.885        1.092      337.461        9.450      861.384
01/08/2014  14:02:00       -0.446        2.654       16.988       14.343       29.933       18.180      205.729      895.955      330.525        0.086        0.072        2.691       18.481       47.177      337.556        9.610      861.376
01/08/2014  14:03:00      -14.656       -1.351       29.462       16.107       34.361       22.069      259.446     1180.689      487.046        0.151        0.096       14.718       16.559        1.266      337.674        9.809      861.374
01/08/2014  14:04:00      -17.137       20.862       26.012       30.018       22.740       27.973      901.052      517.130      782.483        0.180        0.110       26.998       25.870        0.918      337.602        9.688      861.376
01/08/2014  14:05:00       27.857       43.623       -6.903       19.060       24.664       19.011      363.292      608.288      361.434        0.203        0.067       51.759       16.916        0.107      337.476        9.474      861.371
01/08/2014  14:06:00        1.822      -22.737       12.133       24.343       54.695       24.989      592.604     2991.508      624.461        0.244        0.210       22.810       29.927        1.721      337.724        9.891      861.355
01/08/2014  14:07:00       -8.793      -38.480       14.626       33.943       54.715       32.217     1152.148     2993.704     1037.952        0.348        0.259       39.472       27.486        0.485      337.775        9.978      861.347
01/08/2014  14:08:00       43.187      -24.740        1.587       37.103       35.918       25.009     1376.632     1290.101      625.428        0.289        0.165       49.771       24.230        0.237      337.511        9.535      861.336
01/08/2014  14:09:00       28.677       -5.281       39.546       35.488       66.816       38.613     1259.405     4464.413     1490.965        0.481        0.361       29.159       42.873        2.162      337.505        9.525      861.334
01/08/2014  14:10:00       75.230     -108.602       -1.057       42.227       64.888       33.169     1783.119     4210.450     1100.203        1.227        0.355      132.114       29.737        0.051      337.491        9.499      861.321
01/08/2014  14:11:00       97.074      -45.822       18.085       54.863       58.557       45.783     3009.956     3428.969     2096.125        1.019        0.427      107.345       43.640        0.165      337.428        9.394      861.309
01/08/2014  14:12:00       98.849      -14.849       46.632       69.148       86.386       53.739     4781.448     7462.537     2887.834        1.365        0.757       99.958       57.692        0.333      337.350        9.264      861.279
01/08/2014  14:13:00       99.925      -42.311        7.921       45.082       50.186       39.255     2032.421     2518.670     1540.930        0.896        0.305      108.514       37.371        0.119      337.228        9.060      861.260
01/08/2014  14:14:00       51.797      -19.717       21.347       40.233       24.531       28.002     1618.715      601.766      784.137        0.327        0.150       55.423       17.114        0.095      337.372        9.302      861.254
01/08/2014  14:15:00       21.492        6.605       48.106       35.274       66.214       28.741     1244.281     4384.325      826.052        0.464        0.323       22.484       29.811        1.758      337.542        9.586      861.258
01/08/2014  14:16:00       95.447       41.828       28.527       59.089       36.032       31.713     3491.486     1298.318     1005.690        0.873        0.290      104.210       25.920        0.062      337.240        9.081      861.253
01/08/2014  14:17:00       60.075       65.708        5.498       59.664       35.976       37.983     3559.747     1294.272     1442.691        0.713        0.315       89.031       24.790        0.078      337.393        9.336      861.248
01/08/2014  14:18:00      124.213       75.791       16.888       56.421       47.330       50.293     3183.363     2240.104     2529.390        1.470        0.398      145.510       37.233        0.065      337.262        9.118      861.247
01/08/2014  14:19:00       75.773       78.036        9.899       77.951       61.845       47.211     6076.430     3824.817     2228.862        1.203        0.607      108.771       23.142        0.045      337.330        9.230      861.260
01/08/2014  14:20:00       48.677      151.420      -17.151       50.647       57.571       42.180     2565.131     3314.433     1779.130        1.662        0.383      159.051       37.099        0.054      337.255        9.106      861.277
01/08/2014  14:21:00       31.809      222.141      -28.216       40.817       47.403       36.721     1666.046     2247.061     1348.419        2.821        0.263      224.406       23.543        0.011      337.276        9.138      861.277
01/08/2014  14:22:00       51.898      132.452       -3.772       61.911       85.858       55.538     3832.912     7371.677     3084.420        1.727        0.714      142.256       53.290        0.140      337.278        9.144      861.269
01/08/2014  14:23:00       43.860      174.468      -23.131       52.014       70.544       49.465     2705.445     4976.469     2446.750        2.151        0.506      179.897       38.355        0.045      337.267        9.124      861.262
01/08/2014  14:24:00       54.708      171.725      -18.721       50.968       99.341       47.292     2597.725     9868.715     2236.502        2.377        0.735      180.229       54.845        0.093      337.286        9.157      861.265
01/08/2014  14:25:00       59.665       86.184       10.351       64.555       74.678       51.773     4167.377     5576.780     2680.418        1.176        0.621      104.822       46.979        0.201      337.397        9.344      861.261
01/08/2014  14:26:00       28.399      133.009      -17.110       41.547       50.688       30.418     1726.126     2569.295      925.283        1.200        0.261      136.007       25.205        0.034      337.524        9.554      861.271
01/08/2014  14:27:00       69.251       77.102       -1.426       57.000       39.685       31.495     3248.985     1574.860      991.957        0.828        0.291      103.636       15.781        0.023      337.460        9.448      861.269
01/08/2014  14:28:00       41.492       46.509        4.965       45.802       34.093       23.909     2097.778     1162.341      571.640        0.387        0.192       62.327       17.580        0.080      337.323        9.218      861.268
01/08/2014  14:29:00       78.827       50.535       10.719       55.997       33.544       43.511     3135.710     1125.177     1893.173        0.752        0.308       93.634       20.224        0.047      337.303        9.186      861.274
01/08/2014  14:30:00       36.340       95.493        5.967       51.090       73.277       41.773     2610.220     5369.510     1744.993        1.010        0.486      102.174       40.901        0.160      337.338        9.244      861.277
01/08/2014  14:31:00       92.211       79.211        2.127       61.014       46.552       42.391     3722.648     2167.120     1796.972        1.123        0.384      121.561       28.832        0.056      337.367        9.292      861.290
01/08/2014  14:32:00      116.210       66.492        4.658       38.864       32.426       31.928     1510.409     1051.424     1019.374        1.076        0.179      133.888       19.076        0.020      337.304        9.188      861.289
01/08/2014  14:33:00       75.170       49.746        7.082       32.018       26.100       20.402     1025.175      681.209      416.227        0.515        0.106       90.140       15.154        0.028      337.287        9.160      861.306
01/08/2014  14:34:00       66.456       45.524        1.171       26.745       29.192       21.817      715.280      852.148      476.001        0.427        0.102       80.553       13.863        0.030      337.258        9.111      861.322
01/08/2014  14:35:00       12.546        3.972        0.497       15.293       14.471       14.549      233.861      209.403      211.681        0.041        0.033       13.159       10.674        0.658      337.488        9.495      861.337
01/08/2014  14:36:00       19.443       13.330        8.964       29.411       16.877       13.934      865.006      284.824      194.148        0.099        0.067       23.574       13.553        0.331      337.497        9.510      861.349
01/08/2014  14:37:00      116.668       53.641        1.134       25.155       19.815       17.627      632.755      392.627      310.725        0.891        0.067      128.409        9.465        0.005      337.266        9.123      861.350
01/08/2014  14:38:00       74.919       47.283       17.552       45.564       36.556       30.086     2076.038     1336.328      905.166        0.624        0.216       88.591       19.652        0.049      337.429        9.399      861.337
01/08/2014  14:39:00       69.707       69.716        4.649       43.069       32.337       26.595     1854.957     1045.702      707.278        0.667        0.180       98.587        8.535        0.007      337.326        9.224      861.350
01/08/2014  14:40:00       16.688      122.214      -21.816       24.867       24.930       13.012      618.391      621.526      169.306        0.855        0.070      123.348       12.476        0.010      337.289        9.162      861.380
01/08/2014  14:41:00        2.126       87.247      -11.175       14.547       24.223       14.154      211.621      586.763      200.324        0.437        0.050       87.273       13.461        0.024      337.374        9.306      861.403
01/08/2014  14:42:00       10.685       91.594       -9.022       22.191       30.711       20.048      492.441      943.177      401.919        0.521        0.092       92.215       16.372        0.032      337.421        9.384      861.422
01/08/2014  14:43:00      -23.573      103.891      -13.433       27.860       54.479       24.211      776.168     2967.921      586.187        0.793        0.217      106.532       26.439        0.062      337.555        9.608      861.428
01/08/2014  14:44:00       -2.781      106.317       -8.053       34.253       49.985       26.425     1173.234     2498.454      698.275        0.787        0.218      106.354       23.694        0.050      337.599        9.683      861.433
01/08/2014  14:45:00       80.489       55.848        4.078       48.246       53.662       32.497     2327.651     2879.611     1056.084        0.794        0.313       97.967       21.926        0.050      337.510        9.532      861.452
01/08/2014  14:46:00      130.673       65.309       17.054       43.815       42.726       34.262     1919.714     1825.512     1173.867        1.327        0.246      146.084       17.616        0.015      337.474        9.473      861.475
01/08/2014  14:47:00       86.106       28.804       24.223       53.535       41.269       31.694     2865.943     1703.163     1004.527        0.720        0.279       90.796       21.360        0.055      337.527        9.560      861.486
01/08/2014  14:48:00       46.227       60.917        7.048       57.987       55.141       29.607     3362.440     3040.519      876.585        0.659        0.364       76.471       27.358        0.128      337.548        9.596      861.504
01/08/2014  14:49:00       27.494      146.998      -14.665       28.041       38.340       32.174      786.298     1469.988     1035.189        1.293        0.165      149.547       21.733        0.021      337.499        9.514      861.527
01/08/2014  14:50:00       38.650       75.668       12.046       55.714       37.247       27.486     3104.016     1387.373      755.506        0.630        0.262       84.968       18.448        0.047      337.549        9.598      861.549
01/08/2014  14:51:00      109.188       72.053       50.121       68.512       47.552       39.997     4693.950     2261.203     1599.794        1.409        0.428      130.819       37.025        0.080      337.608        9.696      861.550
01/08/2014  14:52:00       63.165       65.753       42.400       50.033       33.532       39.307     2503.339     1124.380     1545.006        0.764        0.259       91.177       28.798        0.100      337.650        9.768      861.545
01/08/2014  14:53:00       76.705       69.147        7.358       48.456       44.092       31.840     2347.980     1944.095     1013.803        0.801        0.265      103.271       26.247        0.065      337.589        9.664      861.531
01/08/2014  14:54:00       79.018       67.673       -0.697       40.676       21.362       23.163     1654.535      456.327      536.536        0.674        0.132      104.036       17.336        0.028      337.460        9.447      861.522
01/08/2014  14:55:00        2.171       98.405       -8.732       24.500       25.271       12.561      600.268      638.612      157.775        0.558        0.070       98.429        7.555        0.006      337.510        9.533      861.511
01/08/2014  14:56:00       11.932       55.135        1.735       27.018       44.841       22.735      729.993     2010.701      516.862        0.322        0.163       56.412       18.819        0.111      337.620        9.717      861.500
01/08/2014  14:57:00       22.302       34.321        8.831       19.553       23.344       25.428      382.315      544.937      646.602        0.166        0.079       40.931       17.334        0.179      337.630        9.733      861.474
01/08/2014  14:58:00       28.722       44.722       16.286       48.869       33.197       29.714     2388.218     1102.055      882.901        0.373        0.219       53.150       14.472        0.074      337.620        9.717      861.473
01/08/2014  14:59:00       14.299       65.916       -7.860       23.163       23.328       22.534      536.525      544.175      507.777        0.310        0.079       67.449       15.183        0.051      337.549        9.599      861.489
01/08/2014  15:00:00       26.792       35.188       -5.793       14.511       13.322       16.205      210.563      177.486      262.589        0.132        0.033       44.227       10.925        0.061      337.559        9.614      861.513
01/08/2014  15:01:00        2.840       20.262       -4.346       15.124       15.809       11.981      228.736      249.910      143.540        0.053        0.031       20.460        6.639        0.105      337.640        9.751      861.512
01/08/2014  15:02:00       61.280       12.197        9.748       28.521       22.109       17.497      813.463      488.800      306.134        0.280        0.080       62.482        7.849        0.016      337.682        9.821      861.516
01/08/2014  15:03:00       31.150       15.929       34.247       39.117       36.507       18.190     1530.133     1332.740      330.870        0.279        0.160       34.987       15.773        0.203      337.767        9.963      861.523
01/08/2014  15:04:00       43.163       50.720       32.936       44.507       27.468       26.897     1980.843      754.515      723.464        0.449        0.173       66.601       19.411        0.085      337.765        9.960      861.528
01/08/2014  15:05:00       53.490       57.007       25.280       48.739       42.183       35.982     2375.453     1779.364     1294.709        0.610        0.272       78.173       17.619        0.051      337.668        9.797      861.559
01/08/2014  15:06:00       40.190       62.457       -5.649       35.432       38.462       20.292     1255.438     1479.313      411.785        0.435        0.157       74.270       22.098        0.089      337.604        9.690      861.592
01/08/2014  15:07:00      117.469       74.450        9.731       30.951       30.466       26.723      957.944      928.162      714.138        1.102        0.130      139.075       14.337        0.011      337.519        9.546      861.606
01/08/2014  15:08:00       76.467       61.275       31.100       43.447       44.699       40.963     1887.635     1997.972     1677.999        0.807        0.278       97.989       30.101        0.094      337.631        9.736      861.574
01/08/2014  15:09:00      145.100      105.433        9.819       65.340       51.520       48.320     4269.257     2654.343     2334.851        2.076        0.463      179.360       39.024        0.047      337.602        9.687      861.559
01/08/2014  15:10:00       49.093      131.849      -19.521       39.223       44.350       29.392     1538.424     1966.905      863.862        1.227        0.218      140.692       25.872        0.034      337.626        9.727      861.554
01/08/2014  15:11:00       52.841      164.070      -23.365       48.821       63.856       38.488     2383.509     4077.600     1481.311        1.910        0.397      172.369       29.843        0.030      337.673        9.805      861.543
01/08/2014  15:12:00      132.102       85.782        7.755       68.322       42.887       42.812     4667.853     1839.258     1832.889        1.660        0.417      157.510       32.596        0.043      337.658        9.780      861.568
01/08/2014  15:13:00       77.748       56.319       10.070       34.382       39.690       30.029     1182.137     1575.317      901.724        0.649        0.183       96.002       15.230        0.025      337.708        9.864      861.608
01/08/2014  15:14:00       -3.395       54.618       12.796       36.953       36.738       28.583     1365.520     1349.671      816.966        0.334        0.177       54.723       29.914        0.299      337.829       10.067      861.639
01/08/2014  15:15:00      -39.908       50.431      -10.403       34.237       25.786       24.484     1172.206      664.893      599.445        0.334        0.122       64.311       16.742        0.068      337.766        9.961      861.640
01/08/2014  15:16:00      -37.911       98.283      -21.148       30.602       26.872       18.342      936.506      722.131      336.431        0.677        0.100      105.341       11.295        0.011      337.668        9.796      861.629
01/08/2014  15:17:00      -73.429      121.786      -10.552       42.025       51.524       28.011     1766.141     2654.723      784.608        1.277        0.260      142.210       25.567        0.032      337.734        9.907      861.633
01/08/2014  15:18:00      -39.958      190.958      -18.962       35.123       59.820       26.077     1233.593     3578.446      680.022        2.196        0.275      195.093       26.833        0.019      337.638        9.744      861.632
01/08/2014  15:19:00       -0.508      207.251      -31.255       29.585       35.670       19.934      875.292     1272.369      397.381        2.324        0.127      207.252       13.492        0.004      337.534        9.570      861.643
01/08/2014  15:20:00       33.555      128.374       -7.834       42.745       71.168       41.779     1827.148     5064.878     1745.475        1.315        0.432      132.686       41.719        0.099      337.565        9.624      861.670
01/08/2014  15:21:00       34.657       91.195       -4.093       34.023       48.519       31.105     1157.578     2354.083      967.529        0.701        0.224       97.558       30.447        0.097      337.594        9.674      861.677
01/08/2014  15:22:00       13.619       83.147       -6.927       39.276       40.928       20.804     1542.578     1675.098      432.807        0.540        0.183       84.255       20.030        0.057      337.652        9.771      861.676
01/08/2014  15:23:00       51.228      103.247       -1.186       45.083       61.543       43.277     2032.505     3787.541     1872.919        1.049        0.385      115.257       32.428        0.079      337.600        9.685      861.697
01/08/2014  15:24:00       13.108      118.516      -18.143       33.937       30.846       26.419     1151.747      951.505      697.976        0.867        0.140      119.239       19.889        0.028      337.613        9.706      861.717
01/08/2014  15:25:00      -17.452      102.657      -16.680       20.478       29.603       18.479      419.346      876.344      341.466        0.638        0.082      104.130       11.160        0.011      337.613        9.705      861.738
01/08/2014  15:26:00      -12.645      104.880      -10.143       23.815       28.967       14.442      567.149      839.100      208.572        0.644        0.081      105.639       11.773        0.012      337.771        9.970      861.756
01/08/2014  15:27:00       15.125       88.944      -10.279       19.525       40.914       20.532      381.226     1673.928      421.575        0.536        0.124       90.221       23.849        0.070      337.625        9.724      861.763
01/08/2014  15:28:00        5.750       76.538       -6.024       24.053       56.862       23.319      578.541     3233.248      543.798        0.514        0.218       76.754       32.916        0.184      337.673        9.805      861.768
01/08/2014  15:29:00       34.319       48.806        2.738       31.053       31.791       16.800      964.318     1010.657      282.247        0.291        0.113       59.664       17.273        0.084      337.653        9.771      861.775
01/08/2014  15:30:00       39.861       51.039        9.973       49.199       29.782       23.679     2420.507      886.972      560.675        0.408        0.193       64.760       17.159        0.070      337.635        9.743      861.771
01/08/2014  15:31:00       88.522       52.918        8.709       50.133       34.306       25.728     2513.319     1176.909      661.936        0.753        0.218      103.133       15.215        0.022      337.610        9.702      861.752
01/08/2014  15:32:00       21.453      112.532      -10.678       48.956       71.795       38.620     2396.679     5154.531     1491.492        1.114        0.452      114.558       42.701        0.139      337.628        9.729      861.730
01/08/2014  15:33:00       27.998      162.552      -20.973       36.220       79.920       34.619     1311.863     6387.253     1198.474        1.827        0.445      164.945       42.300        0.066      337.589        9.663      861.719
01/08/2014  15:34:00       42.117       54.234        4.466       41.513       45.133       28.225     1723.348     2037.022      796.675        0.465        0.228       68.667       29.554        0.185      337.599        9.684      861.704
01/08/2014  15:35:00       94.164       65.260       13.711       55.639       35.528       31.915     3095.657     1262.213     1018.596        0.934        0.269      114.567       21.847        0.036      337.568        9.630      861.694
01/08/2014  15:36:00       66.476       71.405       -1.388       57.436       40.899       28.720     3298.914     1672.749      824.819        0.766        0.290       97.559       24.530        0.063      337.560        9.615      861.686
01/08/2014  15:37:00       91.688       73.049        3.597       32.603       32.005       32.402     1062.952     1024.321     1049.883        0.845        0.157      117.230       23.388        0.040      337.547        9.596      861.697
01/08/2014  15:38:00       21.885       56.893        0.059       43.677       37.938       25.081     1907.637     1439.323      629.065        0.385        0.199       60.957       20.348        0.111      337.571        9.635      861.712
01/08/2014  15:39:00       44.020       85.921       -8.698       37.202       48.456       25.139     1383.999     2347.952      631.976        0.688        0.218       96.541       24.903        0.067      337.586        9.661      861.730
01/08/2014  15:40:00       40.915      117.284      -10.300       35.239       49.336       27.357     1241.805     2434.032      748.398        0.998        0.221      124.216       29.101        0.055      337.584        9.657      861.719
01/08/2014  15:41:00       50.439       70.605        0.673       45.147       38.604       22.268     2038.218     1490.282      495.855        0.578        0.201       86.771       23.064        0.071      337.597        9.678      861.705
01/08/2014  15:42:00       99.552       51.641       19.014       47.275       42.966       33.122     2234.891     1846.101     1097.041        0.906        0.259      112.149       24.753        0.049      337.589        9.666      861.696
01/08/2014  15:43:00       72.762       55.867        6.010       36.198       32.731       28.913     1310.305     1071.287      835.987        0.583        0.161       91.735       16.379        0.032      337.589        9.664      861.680
01/08/2014  15:44:00      145.710       68.517       20.969       57.832       31.137       26.902     3344.510      969.484      723.744        1.570        0.252      161.015       15.193        0.009      337.605        9.692      861.644
01/08/2014  15:45:00      172.094       71.265       12.716       51.486       37.764       34.827     2650.814     1426.125     1212.900        2.007        0.264      186.266       25.697        0.019      337.610        9.698      861.600
01/08/2014  15:46:00      134.871       85.355       12.349       59.560       45.483       34.291     3547.350     2068.725     1175.872        1.621        0.340      159.611       14.073        0.008      337.573        9.637      861.569
01/08/2014  15:47:00      128.351       83.041       21.840       61.019       49.893       37.834     3723.355     2489.353     1431.404        1.574        0.382      152.872       32.539        0.045      337.585        9.657      861.552
01/08/2014  15:48:00      138.845       79.668       11.201       45.273       33.674       35.912     2049.635     1133.962     1289.676        1.511        0.224      160.078       22.699        0.020      337.580        9.649      861.549
01/08/2014  15:49:00      101.701       59.033       12.662       30.710       19.364       25.241      943.115      374.984      637.131        0.797        0.098      117.593        8.400        0.005      337.601        9.686      861.537
01/08/2014  15:50:00       60.795       26.995       28.015       37.863       31.998       21.692     1433.586     1023.900      470.526        0.407        0.146       66.519       19.157        0.083      337.648        9.764      861.508
01/08/2014  15:51:00       30.112       62.719       64.030       38.372       26.397       23.140     1472.433      696.819      535.440        0.582        0.135       69.573       17.931        0.066      337.665        9.793      861.461
01/08/2014  15:52:00       39.122       22.189       61.623       50.444       44.634       35.966     2544.639     1992.210     1293.568        0.582        0.292       44.976       35.752        0.632      337.693        9.839      861.428
01/08/2014  15:53:00       28.408      -37.175       22.509       53.190       52.948       25.500     2829.136     2803.530      650.266        0.449        0.314       46.787       15.839        0.115      337.744        9.924      861.447
01/08/2014  15:54:00       44.888      -83.430        6.910       48.182       79.212       35.335     2321.482     6274.596     1248.596        0.943        0.492       94.739       37.764        0.159      337.750        9.935      861.470
01/08/2014  15:55:00       74.861      -35.416       24.850       53.820       73.897       37.571     2896.619     5460.755     1411.563        0.862        0.488       82.816       47.046        0.323      337.660        9.786      861.485
01/08/2014  15:56:00       68.801      -81.064        0.215       43.955       54.843       44.401     1932.022     3007.714     1971.436        0.911        0.346      106.324       43.332        0.166      337.691        9.836      861.469
01/08/2014  15:57:00       40.046       13.759       51.306       45.607       68.037       54.253     2079.970     4629.027     2943.353        0.704        0.483       42.344       60.184        2.020      337.698        9.847      861.458
01/08/2014  15:58:00       85.647      115.645       89.199       59.377       42.129       47.081     3525.621     1774.885     2216.662        1.809        0.376      143.906       41.004        0.081      337.715        9.876      861.414
01/08/2014  15:59:00       62.178      112.700      116.703       63.281       47.384       33.049     4004.459     2245.217     1092.245        1.876        0.367      128.714       29.511        0.053      337.678        9.814      861.366
01/08/2014  16:00:00       85.984      114.077      112.875       59.918       64.193       42.184     3590.110     4120.760     1779.530        2.132        0.475      142.852       43.205        0.091      337.573        9.638      861.322
01/08/2014  16:01:00       54.388       40.106       71.401       44.351       40.570       26.511     1967.018     1645.907      702.834        0.699        0.216       67.576       23.985        0.126      337.660        9.784      861.305
01/08/2014  16:02:00       21.643       17.343       39.202       27.030       53.704       33.822      730.619     2884.160     1143.920        0.353        0.238       27.735       33.681        1.475      337.654        9.773      861.290
01/08/2014  16:03:00       57.338      -14.237       36.831       51.594       35.574       32.975     2661.965     1265.526     1087.344        0.493        0.251       59.079       31.348        0.282      337.686        9.828      861.265
01/08/2014  16:04:00       55.261      -40.755       15.366       41.280       43.787       27.434     1704.067     1917.312      752.619        0.466        0.219       68.665       27.710        0.163      337.717        9.879      861.253
01/08/2014  16:05:00       34.467       -9.684       28.629       32.088       34.484       27.241     1029.667     1189.157      742.070        0.253        0.148       35.801       21.386        0.357      337.674        9.807      861.265
01/08/2014  16:06:00       59.538       26.651       35.878       37.454       38.312       21.548     1402.821     1467.837      464.335        0.444        0.167       65.231       12.360        0.036      337.653        9.773      861.264
01/08/2014  16:07:00       60.576       60.603       50.367       47.309       43.334       39.258     2238.096     1877.816     1541.164        0.777        0.283       85.687       31.412        0.134      337.629        9.732      861.263
01/08/2014  16:08:00       67.456       70.102       73.783       60.436       45.884       39.094     3652.554     2105.346     1528.322        1.110        0.364       97.287       30.919        0.101      337.616        9.712      861.263
01/08/2014  16:09:00       64.724       57.100       36.882       38.362       36.484       30.028     1471.607     1331.085      901.682        0.626        0.185       86.311       23.028        0.071      337.579        9.650      861.277
01/08/2014  16:10:00        3.404      -35.487       -7.988       26.928       39.085       27.855      725.122     1527.602      775.904        0.218        0.151       35.650       26.611        0.557      337.693        9.840      861.311
01/08/2014  16:11:00      -16.225        1.931        0.838       26.653       24.173       21.887      710.391      584.344      479.045        0.102        0.089       16.340       18.167        1.236      337.724        9.892      861.353
01/08/2014  16:12:00       13.631      -24.957       12.590       20.913       20.617       19.714      437.364      425.061      388.642        0.111        0.063       28.437        7.931        0.078      337.763        9.957      861.365
01/08/2014  16:13:00       12.321        7.885        3.395       13.204       27.032       10.015      174.343      730.728      100.291        0.062        0.050       14.628        7.297        0.249      337.697        9.847      861.336
01/08/2014  16:14:00       60.843       23.977       16.600       31.342       23.031       18.572      982.345      530.407      344.926        0.320        0.093       65.397        2.956        0.002      337.613        9.705      861.294
01/08/2014  16:15:00      135.227       48.892       30.113       49.947       47.028       36.676     2494.695     2211.670     1345.138        1.382        0.303      143.794       20.053        0.019      337.587        9.662      861.239
01/08/2014  16:16:00      136.067      138.339       83.106       63.242       55.717       55.656     3999.609     3104.403     3097.592        2.738        0.510      194.041       45.004        0.054      337.525        9.554      861.154
01/08/2014  16:17:00        5.765      -35.221       32.237       70.664       82.236       42.659     4993.449     6762.737     1819.821        0.794        0.679       35.690       48.494        1.846      337.579        9.649      861.160
01/08/2014  16:18:00      -14.282      -59.414        1.556       20.159       35.111       23.999      406.376     1232.748      575.972        0.298        0.111       61.107       23.239        0.145      337.546        9.593      861.198
01/08/2014  16:19:00       -8.469       26.036       -5.348       17.387       21.823        9.452      302.314      476.241       89.337        0.082        0.043       27.378       11.053        0.163      337.580        9.650      861.234
01/08/2014  16:20:00       49.202      -72.563       -6.373       42.197       47.928       25.222     1780.581     2297.099      636.142        0.622        0.236       87.671       19.217        0.048      337.740        9.919      861.258
01/08/2014  16:21:00      103.433     -133.421      -18.509       28.161       36.572       19.142      793.024     1337.532      366.408        1.567        0.125      168.818       11.310        0.004      337.610        9.701      861.286
01/08/2014  16:22:00       68.387      -56.108       26.502       57.142       96.806       50.383     3265.247     9371.377     2538.481        1.185        0.759       88.459       66.908        0.572      337.593        9.673      861.311
01/08/2014  16:23:00       24.816       66.243      106.946       70.213      100.916       78.678     4929.882    10184.095     6190.280        1.887        1.065       70.739       89.097        1.586      337.565        9.624      861.282
01/08/2014  16:24:00       66.270       85.234       72.721       68.792       49.064       50.265     4732.286     2407.272     2526.553        1.330        0.483      107.965       48.651        0.203      337.502        9.519      861.275
01/08/2014  16:25:00       11.526       72.375       -5.144       51.254       77.500       31.340     2626.987     6006.230      982.200        0.750        0.481       73.288       34.165        0.217      337.441        9.417      861.308
01/08/2014  16:26:00       15.647      153.446      -25.210       34.803       46.006       18.515     1211.233     2116.529      342.823        1.405        0.184      154.242       18.195        0.014      337.460        9.449      861.351
01/08/2014  16:27:00       59.285       91.889       -5.130       59.414       62.865       35.227     3530.042     3952.005     1240.975        1.035        0.436      109.354       33.574        0.094      337.402        9.351      861.372
01/08/2014  16:28:00      174.505      111.508       18.722       39.995       38.733       31.069     1599.570     1500.246      965.306        2.365        0.203      207.089       23.803        0.013      337.416        9.374      861.362
01/08/2014  16:29:00      118.358      142.245       77.453       75.624       57.349       64.727     5719.043     3288.871     4189.630        2.672        0.660      185.047       53.040        0.082      337.381        9.315      861.345
01/08/2014  16:30:00       25.913      142.969      150.739       60.113       53.337       35.074     3613.581     2844.792     1230.189        2.576        0.384      145.298       33.196        0.052      337.420        9.380      861.352
01/08/2014  16:31:00       44.213       60.794       93.871       64.048       80.853       52.842     4102.130     6537.230     2792.321        1.394        0.672       75.171       56.836        0.572      337.426        9.392      861.369
01/08/2014  16:32:00       93.027       55.735       38.522       49.015       39.689       35.186     2402.484     1575.223     1238.056        0.923        0.261      108.445       28.595        0.070      337.398        9.345      861.418
01/08/2014  16:33:00      129.063       83.023       18.129       19.013       18.934       17.944      361.491      358.506      321.981        1.246        0.052      153.460        9.440        0.004      337.373        9.303      861.455
01/08/2014  16:34:00      151.040       89.324       24.347       45.071       36.695       25.123     2031.438     1346.493      631.166        1.770        0.200      175.476       22.028        0.016      337.390        9.331      861.448
01/08/2014  16:35:00      179.332       77.654        7.977       68.047       51.357       36.669     4630.394     2637.555     1344.633        2.343        0.431      195.423       28.003        0.021      337.401        9.348      861.413
01/08/2014  16:36:00       82.995       68.220       46.119       54.883       44.720       45.667     3012.178     1999.917     2085.487        1.038        0.355      107.435       28.420        0.070      337.372        9.301      861.395
01/08/2014  16:37:00       36.539       22.597       14.184       50.019       32.502       28.133     2501.921     1056.380      791.446        0.320        0.217       42.962       19.869        0.214      337.354        9.271      861.432
01/08/2014  16:38:00        6.728       67.589       -5.961       29.572       38.565       22.212      874.501     1487.251      493.382        0.375        0.143       67.923       23.337        0.118      337.351        9.266      861.469
01/08/2014  16:39:00      -23.584      148.302      -13.116       30.786       55.336       29.194      947.807     3062.039      852.286        1.379        0.243      150.166       30.925        0.042      337.401        9.348      861.462
01/08/2014  16:40:00       42.350      141.936      -19.909       26.925       61.038       26.548      724.974     3725.607      704.799        1.374        0.258      148.120       30.880        0.043      337.383        9.317      861.460
01/08/2014  16:41:00       41.610       62.617        4.078       29.944       42.951       27.866      896.639     1844.770      776.522        0.459        0.176       75.182       22.420        0.089      337.319        9.214      861.493
01/08/2014  16:42:00       25.968       50.934        3.569       27.252       26.575       18.489      742.675      706.220      341.825        0.254        0.090       57.172       18.084        0.100      337.344        9.255      861.497
01/08/2014  16:43:00       46.725       46.337        0.740       17.161       15.820       15.621      294.515      250.258      244.031        0.256        0.039       65.805        9.797        0.022      337.287        9.159      861.487
01/08/2014  16:44:00       26.039       62.673       -8.242       22.196       24.704       16.643      492.668      610.308      277.005        0.303        0.069       67.867       12.372        0.033      337.270        9.132      861.514
01/08/2014  16:45:00        8.222       79.692      -14.315       19.543       18.941        8.394      381.916      358.743       70.467        0.372        0.041       80.115        4.133        0.003      337.331        9.233      861.530
01/08/2014  16:46:00       18.608       51.335       -5.108       12.118       22.243       12.240      146.840      494.760      149.830        0.190        0.040       54.603       13.244        0.059      337.301        9.182      861.508
01/08/2014  16:47:00       13.758       78.140      -10.434       14.540       30.585       10.301      211.419      935.439      106.111        0.383        0.063       79.342        7.381        0.009      337.431        9.400      861.485
01/08/2014  16:48:00       -1.907       30.858      -13.735       29.823       33.590       14.738      889.406     1128.295      217.199        0.169        0.112       30.917       12.309        0.159      337.460        9.447      861.483
01/08/2014  16:49:00       94.322       25.858        0.441       24.900       33.828       25.913      620.025     1144.333      671.471        0.600        0.122       97.802       14.363        0.022      337.474        9.472      861.467
01/08/2014  16:50:00       33.121      -10.713        7.807       21.700       18.316       15.345      470.900      335.469      235.454        0.116        0.052       34.811       12.355        0.126      337.462        9.451      861.481
01/08/2014  16:51:00        5.497      -29.087       36.342       59.480       94.766       51.516     3537.901     8980.675     2653.927        0.868        0.759       29.602       61.814        4.360      337.449        9.430      861.465
01/08/2014  16:52:00       77.219      -85.581       -7.037       64.519       87.974       45.715     4162.662     7739.505     2089.834        1.366        0.700      115.269       51.794        0.202      337.449        9.429      861.467
01/08/2014  16:53:00      -14.073       45.218       45.452       33.244       49.283       27.140     1105.170     2428.862      736.561        0.429        0.214       47.357       27.724        0.343      337.251        9.101      861.449
01/08/2014  16:54:00     -104.788       76.449      -14.319       42.385       35.263       24.084     1796.519     1243.472      580.017        1.032        0.181      129.711       18.771        0.021      337.415        9.375      861.506
01/08/2014  16:55:00     -113.581      125.316      -25.326       49.872       56.296       30.183     2487.191     3169.256      911.040        1.791        0.328      169.130       25.881        0.023      337.301        9.182      861.530
01/08/2014  16:56:00      -39.430      155.341      -20.200       47.305       35.043       26.994     2237.794     1228.014      728.694        1.514        0.210      160.267       22.412        0.020      337.644        9.756      861.515
01/08/2014  16:57:00       -3.097      154.935      -22.025       58.759       84.586       35.403     3452.634     7154.751     1253.359        1.818        0.593      154.966       42.435        0.075      337.824       10.059      861.475
01/08/2014  16:58:00     -209.868       45.342      -18.815       85.761       59.950       34.888     7354.977     3593.961     1217.170        2.931        0.608      214.710       33.310        0.024      338.169       10.635      861.495
01/08/2014  16:59:00     -128.460      -44.983       -2.631       93.737       89.126       34.804     8786.564     7943.495     1211.333        1.823        0.897      136.109       33.344        0.060      338.189       10.670      861.501
01/08/2014  17:00:00     -108.550      -99.163        1.770       90.873       56.234       42.233     8257.897     3162.300     1783.615        1.741        0.660      147.025       33.535        0.052      338.086       10.497      861.511
01/08/2014  17:01:00       60.489     -101.032      -19.117       65.085       73.660       40.676     4236.044     5425.862     1654.536        1.277        0.566      117.756       43.774        0.138      337.608        9.696      861.495
01/08/2014  17:02:00       24.469      -12.677       38.575       32.189       53.541       30.688     1036.106     2866.610      941.742        0.355        0.242       27.557       22.204        0.649      337.475        9.475      861.469
01/08/2014  17:03:00     -110.325      -43.675       -5.790       95.538       37.428       30.126     9127.528     1400.837      907.556        1.277        0.572      118.655       34.401        0.084      337.595        9.674      861.488
01/08/2014  17:04:00     -133.754     -123.825        7.903       93.897       77.185       49.356     8816.631     5957.579     2436.038        2.524        0.861      182.271       45.121        0.061      337.445        9.420      861.526
01/08/2014  17:05:00     -156.401     -130.364       -2.967      101.862       73.080       51.297    10375.868     5340.697     2631.407        2.990        0.917      203.607       53.851        0.070      337.320        9.213      861.552
01/08/2014  17:06:00     -213.625     -125.439       -3.662       85.847       67.312       41.610     7369.669     4530.868     1731.367        3.751        0.682      247.731       41.861        0.029      337.250        9.092      861.574
01/08/2014  17:07:00     -152.502      -98.214        3.221       68.375       69.369       34.318     4675.089     4812.060     1177.744        2.179        0.533      181.392       32.751        0.033      337.206        9.022      861.581
01/08/2014  17:08:00      -98.466      -90.902        1.359       53.766       51.188       32.747     2890.754     2620.254     1072.371        1.227        0.329      134.010       31.160        0.054      337.206        9.025      861.606
01/08/2014  17:09:00      -82.125      -80.271      -13.396       43.822       21.733       18.777     1920.380      472.339      352.571        0.806        0.137      114.839        7.062        0.004      337.241        9.083      861.629
01/08/2014  17:10:00      -32.219     -101.145        0.244       40.119       17.090       17.352     1609.531      292.078      301.097        0.674        0.110      106.153        7.970        0.006      337.270        9.132      861.642
01/08/2014  17:11:00       -5.218       -3.318       17.234       34.479       35.087       23.496     1188.769     1231.124      552.039        0.165        0.149        6.184       21.674       12.284      337.209        9.029      861.657
01/08/2014  17:12:00        7.331       34.258       47.081       23.966       18.915       13.770      574.371      357.780      189.623        0.228        0.056       35.034       12.119        0.120      337.184        8.989      861.688
01/08/2014  17:13:00       15.852       34.200       15.164       16.343       12.213       13.770      267.097      149.157      189.625        0.113        0.030       37.695        5.782        0.024      337.311        9.200      861.717
01/08/2014  17:14:00      -31.015       36.994       -1.225       26.384       23.101       17.489      696.092      533.656      305.864        0.193        0.077       48.275       18.532        0.147      337.275        9.140      861.729
01/08/2014  17:15:00      -69.648       15.389        1.064       55.931       42.700       26.579     3128.278     1823.331      706.419        0.537        0.283       71.328       26.435        0.137      337.035        8.736      861.741
01/08/2014  17:16:00     -180.488       -8.233      -21.520       54.913       64.337       28.661     3015.416     4139.274      821.452        2.054        0.399      180.675       24.602        0.019      336.964        8.616      861.749
01/08/2014  17:17:00      -91.062      -36.645       -8.696       75.032       63.555       38.233     5629.822     4039.282     1461.768        1.042        0.557       98.159       35.850        0.133      336.904        8.517      861.710
01/08/2014  17:18:00       -0.614      -50.932       -9.143       34.336       32.406       15.214     1178.948     1050.128      231.464        0.257        0.123       50.936       12.259        0.058      336.960        8.610      861.627
01/08/2014  17:19:00      -91.127      -64.404       -5.359       28.080       18.023       12.439      788.470      324.840      154.730        0.687        0.063      111.589        7.467        0.004      336.947        8.588      861.578
01/08/2014  17:20:00     -165.533      -67.488       -7.131       38.520       33.965       18.879     1483.760     1153.649      356.414        1.750        0.150      178.762       14.983        0.007      336.893        8.499      861.587
01/08/2014  17:21:00     -100.876      -69.084        1.838       62.228       49.905       28.349     3872.374     2490.559      803.684        1.106        0.358      122.264       27.732        0.051      336.809        8.360      861.602
01/08/2014  17:22:00     -207.587     -151.613      -10.443       73.356       92.660       47.600     5381.077     8585.900     2265.787        4.121        0.812      257.058       46.784        0.033      336.825        8.382      861.597
01/08/2014  17:23:00     -137.913      -68.643       -6.454       58.336       60.959       37.015     3403.135     3716.014     1370.076        1.613        0.424      154.052       28.423        0.034      336.787        8.324      861.614
01/08/2014  17:24:00      -99.656      -86.077        1.342       90.169       66.226       48.144     8130.504     4385.915     2317.799        1.609        0.742      131.684       51.283        0.152      336.856        8.438      861.637
01/08/2014  17:25:00      -94.145      -51.840        3.472       64.364       48.182       28.504     4142.779     2321.506      812.477        0.942        0.364      107.474       25.432        0.056      336.912        8.531      861.631
01/08/2014  17:26:00       16.597       40.152       11.766       27.052       57.363       22.300      731.790     3290.507      497.286        0.327        0.226       43.447       10.416        0.057      336.865        8.453      861.606
01/08/2014  17:27:00      119.326       39.708       38.221       92.686       77.676       35.538     8590.685     6033.541     1262.942        1.658        0.794      125.760       29.362        0.055      337.099        8.843      861.533
01/08/2014  17:28:00       -8.499      -57.235       -1.813       67.502       33.476       24.558     4556.472     1120.659      603.108        0.481        0.314       57.863       21.396        0.137      337.259        9.113      861.538
01/08/2014  17:29:00      -61.465     -175.376        6.091       73.959       86.220       43.561     5469.861     7433.834     1897.552        2.468        0.740      185.835       30.715        0.027      337.623        9.720      861.507
01/08/2014  17:30:00      -40.082       82.939       -8.569       36.631       70.240       26.552     1341.815     4933.591      705.014        0.777        0.349       92.117       23.509        0.065      337.163        8.953      861.506
01/08/2014  17:31:00      -78.771       23.067       -0.767       23.685       23.453       14.148      560.988      550.054      200.180        0.402        0.066       82.079       10.616        0.017      337.378        9.312      861.467
01/08/2014  17:32:00     -116.883      -25.694        1.967       90.641       63.323       29.912     8215.752     4009.795      894.706        1.372        0.656      119.674       30.059        0.063      337.442        9.417      861.440
01/08/2014  17:33:00     -212.749       -5.441      -14.892       66.698       49.507       32.201     4448.623     2450.971     1036.885        2.672        0.397      212.819       25.633        0.015      337.886       10.161      861.425
01/08/2014  17:34:00     -123.537      -16.924       -1.402       83.587       71.732       32.747     6986.776     5145.422     1072.395        1.438        0.660      124.691       35.139        0.079      337.735        9.909      861.429
01/08/2014  17:35:00     -145.140      -45.178      -12.206       98.262       59.154       39.974     9655.376     3499.227     1597.947        1.900        0.738      152.009       43.434        0.082      337.614        9.707      861.410
01/08/2014  17:36:00     -198.057     -105.542       -2.997       99.251       69.789       41.484     9850.697     4870.516     1720.915        3.341        0.822      224.423       30.470        0.018      337.391        9.330      861.412
01/08/2014  17:37:00     -159.740     -118.809       -2.009       65.625       58.180       40.165     4306.620     3384.947     1613.264        2.447        0.465      199.079       40.559        0.042      337.211        9.029      861.431
01/08/2014  17:38:00      -95.296      -46.138        2.978       84.676       45.400       33.325     7170.101     2061.169     1110.582        1.078        0.517      105.877       40.692        0.148      337.165        8.955      861.401
01/08/2014  17:39:00       15.479      -38.766        6.835       37.409       24.775       23.974     1399.443      613.821      574.746        0.219        0.129       41.742       28.098        0.453      337.286        9.159      861.357
01/08/2014  17:40:00      -18.939        1.597       12.564       23.803       18.497       14.486      566.595      342.126      209.839        0.082        0.056       19.007       15.248        0.644      337.390        9.330      861.358
01/08/2014  17:41:00      -35.817      -10.533       -1.002       21.447       14.934       10.922      459.968      223.028      119.284        0.110        0.040       37.334       11.831        0.100      337.541        9.584      861.370
01/08/2014  17:42:00      -51.517      -32.144        4.165       40.497       32.977       23.277     1640.006     1087.464      541.825        0.349        0.163       60.723       24.219        0.159      337.397        9.342      861.428
01/08/2014  17:43:00      -59.844      -75.082       22.810       81.747       59.219       43.057     6682.543     3506.893     1853.947        1.089        0.602       96.014       39.836        0.172      337.318        9.212      861.509
01/08/2014  17:44:00     -131.178     -151.973        8.411      132.037       94.224       53.526    17433.834     8878.112     2864.999        3.477        1.459      200.757       60.808        0.092      337.060        8.777      861.576
01/08/2014  17:45:00      -40.796     -167.646       14.874       81.824      132.196       50.375     6695.117    17475.796     2537.669        2.835        1.335      172.538       60.900        0.125      336.861        8.443      861.548
01/08/2014  17:46:00      -16.761       -8.002        3.371       51.624       46.246       46.114     2665.016     2138.653     2126.458        0.364        0.347       18.573       23.350        1.581      336.875        8.470      861.459
01/08/2014  17:47:00      -26.599      -14.032        2.788       48.632       54.107       23.005     2365.050     2927.594      529.231        0.337        0.291       30.073       28.855        0.921      336.802        8.349      861.451
01/08/2014  17:48:00     -145.624     -142.424        0.712       71.404       68.714       35.358     5098.534     4721.566     1250.158        2.628        0.554      203.693       30.442        0.022      336.742        8.245      861.463
01/08/2014  17:49:00      -91.319     -147.004        2.926       60.084       66.104       34.831     3610.074     4369.786     1213.210        1.957        0.460      173.059       28.330        0.027      336.690        8.159      861.471
01/08/2014  17:50:00      -53.515      -98.360       -2.605       81.997       73.971       35.960     6723.470     5471.664     1293.131        1.301        0.674      111.975       38.934        0.121      337.074        8.802      861.476
01/08/2014  17:51:00       48.894      -79.766       -7.387       59.033       36.439       30.047     3484.902     1327.774      902.845        0.726        0.286       93.559       23.613        0.064      337.239        9.080      861.454
01/08/2014  17:52:00      -53.684      -69.225        9.365      100.719       54.906       31.887    10144.275     3014.679     1016.811        1.097        0.709       87.602       28.140        0.103      336.941        8.581      861.488
01/08/2014  17:53:00     -104.677      -94.704        4.748       71.838       43.046       32.504     5160.752     1852.951     1056.517        1.401        0.404      141.159       37.198        0.069      336.672        8.133      861.545
01/08/2014  17:54:00     -127.124     -103.618       -4.196       66.627       47.363       32.962     4439.128     2243.218     1086.472        1.734        0.388      164.003       27.332        0.028      336.578        7.975      861.582
01/08/2014  17:55:00     -156.013     -150.307       -1.875       96.328       72.362       44.386     9279.010     5236.244     1970.136        3.171        0.824      216.639       43.665        0.041      336.615        8.035      861.637
01/08/2014  17:56:00       26.999      -30.178       57.001       76.635      127.849       53.124     5872.954    16345.251     2822.112        1.496        1.252       40.492       65.989        2.656      336.836        8.405      861.623
01/08/2014  17:57:00       20.235     -113.325        1.931       59.211       74.733       52.790     3505.949     5585.004     2786.761        1.256        0.594      115.117       47.806        0.172      336.953        8.600      861.591
01/08/2014  17:58:00       10.805     -106.210       -5.850       72.135       62.049       38.732     5203.504     3850.133     1500.135        1.099        0.528      106.759       30.140        0.080      336.900        8.511      861.635
01/08/2014  17:59:00        8.920     -189.654      -21.196       72.820      113.347       46.402     5302.743    12847.630     2153.142        2.840        1.015      189.864       34.120        0.032      337.889       10.167      861.611
01/08/2014  18:00:00      -12.830       -8.706       79.719       98.206       98.446       86.419     9644.496     9691.660     7468.252        1.670        1.340       15.505       83.319       28.877      337.787        9.996      861.549
01/08/2014  18:01:00     -126.851      -61.948       19.493      130.474       58.363       47.214    17023.435     3406.234     2229.139        2.148        1.133      141.169       61.409        0.189      337.143        8.917      861.592
01/08/2014  18:02:00     -182.127      -49.129       13.120       98.541       79.971       38.013     9710.353     6395.437     1444.998        2.665        0.878      188.637       47.698        0.064      336.626        8.052      861.620
01/08/2014  18:03:00     -250.030      -96.888      -16.551       72.541       47.329       31.912     5262.153     2240.077     1018.406        4.035        0.426      268.146       20.780        0.006      336.608        8.020      861.680
01/08/2014  18:04:00      -84.532      -58.274        0.987       76.919       46.713       33.383     5916.528     2182.069     1114.437        0.988        0.461      102.671       32.994        0.103      336.740        8.246      861.717
01/08/2014  18:05:00       32.774     -113.264      -11.038       73.527       81.445       53.004     5406.279     6633.297     2809.412        1.443        0.742      117.911       59.092        0.251      336.936        8.571      861.708
01/08/2014  18:06:00        4.422      -69.754       26.341       79.374       94.749       71.806     6300.275     8977.453     5156.076        1.300        1.022       69.894       60.307        0.744      336.980        8.645      861.664
01/08/2014  18:07:00     -101.211      -49.035       38.007       53.402      108.513       56.725     2851.771    11774.980     3217.687        1.597        0.892      112.464       33.760        0.090      337.214        9.036      861.683
01/08/2014  18:08:00      -43.934       -3.917        7.308       45.399       35.085       24.849     2061.032     1230.937      617.477        0.295        0.195       44.108       21.452        0.237      337.220        9.046      861.714
01/08/2014  18:09:00     -171.976      -73.403      -15.570       63.431       59.456       31.136     4023.501     3534.965      969.477        2.187        0.426      186.986       17.099        0.008      337.260        9.112      861.751
01/08/2014  18:10:00     -138.983       74.694      -15.017       65.325       73.423       42.013     4267.375     5390.938     1765.085        1.827        0.571      157.783       29.721        0.035      336.691        8.162      861.787
01/08/2014  18:11:00      -43.299      189.460      -21.917       62.934       54.097       29.513     3960.688     2926.533      871.007        2.300        0.388      194.345       22.244        0.013      336.696        8.171      861.816
01/08/2014  18:12:00        1.886      156.470      -19.652       39.316       53.825       22.116     1545.765     2897.132      489.109        1.490        0.247      156.481       17.349        0.012      336.590        7.996      861.814
01/08/2014  18:13:00       -2.486      172.391      -29.906       42.669       58.884       21.725     1820.646     3467.368      471.954        1.819        0.288      172.409       17.524        0.010      336.506        7.854      861.815
01/08/2014  18:14:00       -7.534      143.732      -11.642       44.110       71.396       33.599     1945.728     5097.398     1128.877        1.451        0.409      143.929       41.710        0.084      336.413        7.697      861.833
01/08/2014  18:15:00      -45.288      212.404      -25.311       33.917       41.750       25.552     1150.379     1743.031      652.892        2.568        0.177      217.178       22.223        0.010      336.593        7.997      861.838
01/08/2014  18:16:00      -17.210      184.574      -23.397       19.007       40.985       12.262      361.274     1679.764      150.345        1.855        0.110      185.375        7.671        0.002      336.853        8.432      861.828
01/08/2014  18:17:00       -3.328      126.992      -17.537       28.962       37.313       17.920      838.796     1392.270      321.116        0.950        0.128      127.035       13.258        0.011      336.831        8.398      861.809
01/08/2014  18:18:00       26.900       88.532      -12.501       21.135       26.745       14.514      446.667      715.292      210.644        0.504        0.069       92.529       13.842        0.022      336.679        8.143      861.785
01/08/2014  18:19:00       24.255       66.485       -7.765       21.827       29.156       15.206      476.424      850.092      231.210        0.331        0.078       70.771       11.283        0.025      336.713        8.199      861.744
01/08/2014  18:20:00        8.713       38.438       -9.330       17.910       14.022       11.958      320.762      196.609      142.991        0.115        0.033       39.413       10.395        0.070      336.909        8.527      861.715
01/08/2014  18:21:00       -7.826       33.169       -7.217       11.483       18.268        9.643      131.864      333.719       92.994        0.089        0.028       34.080       10.656        0.098      336.945        8.588      861.723
01/08/2014  18:22:00        5.589        1.414       -3.329       15.101       18.085        9.178      228.041      327.064       84.228        0.034        0.032        5.765        7.956        1.904      336.811        8.363      861.702
01/08/2014  18:23:00       -8.638      -35.672      -11.696       24.945       12.661        8.492      622.260      160.297       72.122        0.117        0.043       36.703       12.542        0.117      336.630        8.061      861.684
01/08/2014  18:24:00      -82.726      -40.675       -4.039       19.324       19.004       12.531      373.414      361.142      157.038        0.470        0.045       92.185        6.496        0.005      336.519        7.877      861.679
01/08/2014  18:25:00      -72.263      -42.219        1.832       33.109       27.654       14.590     1096.192      764.757      212.868        0.454        0.104       83.692       11.840        0.020      336.431        7.727      861.647
01/08/2014  18:26:00       -8.377      -14.005        6.369       24.853       18.575       13.814      617.653      345.040      190.816        0.073        0.058       16.319       10.866        0.443      336.442        7.746      861.615
01/08/2014  18:27:00        3.908      -20.882       -0.584       12.546       10.066        6.743      157.400      101.330       45.470        0.038        0.015       21.245        5.574        0.069      336.683        8.150      861.570
01/08/2014  18:28:00       -9.220      -27.973       -2.759       22.460       27.764        9.734      504.459      770.833       94.751        0.112        0.069       29.453        7.913        0.072      336.805        8.353      861.547
01/08/2014  18:29:00      -65.869      -20.201       -7.300       32.093       22.950       15.642     1029.939      526.724      244.659        0.330        0.090       68.897       19.612        0.081      336.513        7.866      861.519
01/08/2014  18:30:00     -147.647      -63.769        0.297       86.203       54.897       33.329     7430.963     3013.665     1110.825        1.871        0.578      160.830       30.783        0.037      336.382        7.646      861.482
01/08/2014  18:31:00      -55.449      -86.978        8.573       86.896       39.479       23.694     7550.871     1558.603      561.383        1.019        0.484      103.149       29.521        0.082      336.901        8.514      861.455
01/08/2014  18:32:00        2.407      -37.316       -4.896       36.811       48.718       16.310     1355.024     2373.395      266.030        0.271        0.200       37.393       13.805        0.136      337.036        8.739      861.411
01/08/2014  18:33:00       18.566        5.349      -10.837        9.246       11.890       10.643       85.483      141.363      113.274        0.042        0.017       19.321        9.951        0.265      336.840        8.412      861.367
01/08/2014  18:34:00        0.577      -14.882       -3.948       22.037       10.963       11.599      485.613      120.192      134.533        0.049        0.037       14.893        6.957        0.218      336.948        8.591      861.351
01/08/2014  18:35:00      -40.407       -4.471       -5.300       14.139       12.920        6.349      199.925      166.920       40.306        0.104        0.020       40.654        3.132        0.006      336.514        7.866      861.336
01/08/2014  18:36:00       32.401       28.521        2.867       21.105       32.254       14.653      445.402     1040.319      214.709        0.179        0.085       43.166       18.879        0.191      336.896        8.505      861.280
01/08/2014  18:37:00       29.557       83.640      -15.975       12.687       19.051        9.921      160.971      362.958       98.433        0.437        0.031       88.709        9.851        0.012      336.822        8.381      861.233
01/08/2014  18:38:00       -0.605       56.277      -12.192        9.805       15.624        6.360       96.143      244.119       40.445        0.185        0.019       56.280        6.166        0.012      336.881        8.479      861.235
01/08/2014  18:39:00        3.605       35.254       -2.479        5.410        7.919        4.228       29.268       62.712       17.872        0.069        0.005       35.438        3.154        0.008      336.964        8.622      861.223
01/08/2014  18:40:00      -30.545       33.377       -4.672       18.793       10.167        6.829      353.174      103.372       46.634        0.129        0.025       45.244        7.531        0.028      337.020        8.712      861.209
01/08/2014  18:41:00      -79.111        5.285       -4.940       17.217       17.699        7.092      296.415      313.261       50.296        0.349        0.033       79.287        6.884        0.008      337.001        8.681      861.207
01/08/2014  18:42:00     -113.430      -29.955        1.738       47.579       20.217       17.080     2263.730      408.724      291.737        0.836        0.148      117.319       17.641        0.023      336.363        7.614      861.227
01/08/2014  18:43:00     -133.599      -33.996       -9.236       23.794       20.259       12.194      566.147      410.437      148.702        1.011        0.056      137.857        5.492        0.002      336.306        7.519      861.271
01/08/2014  18:44:00      -75.881      -40.550       -0.798       53.745       22.199       16.610     2888.551      492.814      275.876        0.553        0.183       86.036       21.452        0.062      336.575        7.968      861.333
01/08/2014  18:45:00     -131.069      -19.533      -16.498       79.928       36.933       26.432     6388.530     1364.046      698.631        1.314        0.423      132.516       31.711        0.057      336.912        8.531      861.352
01/08/2014  18:46:00     -127.628       -2.531       -7.225       72.081       53.249       34.125     5195.605     2835.496     1164.498        1.277        0.460      127.653       25.975        0.041      337.357        9.277      861.367
01/08/2014  18:47:00     -109.263      -19.237       -2.029       55.492       37.852       30.783     3079.408     1432.802      947.604        0.889        0.273      110.944       32.932        0.088      337.600        9.684      861.375
01/08/2014  18:48:00      -76.735        1.483        1.564       32.851       28.110       21.041     1079.196      790.179      442.713        0.410        0.116       76.749       18.424        0.058      337.482        9.485      861.394
01/08/2014  18:49:00      -33.218        9.475       10.955       42.579       23.188       16.981     1812.938      537.682      288.359        0.198        0.132       34.543       12.961        0.141      337.746        9.928      861.398
01/08/2014  18:50:00       -2.216      -48.359       -0.404       32.070       24.306       16.373     1028.499      590.789      268.089        0.212        0.094       48.410       14.322        0.088      337.649        9.767      861.413
01/08/2014  18:51:00       -8.989      -50.917       11.282       40.218       47.848       20.489     1617.453     2289.447      419.813        0.356        0.216       51.704       24.388        0.222      337.209        9.028      861.451
01/08/2014  18:52:00      -37.332      -71.285       -1.880       37.108       40.602       24.713     1376.996     1648.488      610.752        0.506        0.182       80.469       20.993        0.068      337.295        9.173      861.474
01/08/2014  18:53:00      -15.142      -62.343      -23.532       28.463       22.703       23.256      810.170      515.408      540.856        0.327        0.093       64.156       15.844        0.061      337.017        8.707      861.481
01/08/2014  18:54:00       25.357      -12.265        0.629       43.762       32.079       25.524     1915.127     1029.059      651.497        0.219        0.180       28.168       11.491        0.166      336.777        8.306      861.486
01/08/2014  18:55:00        6.347       39.649       58.835       36.786       40.181       34.996     1353.236     1614.507     1224.696        0.463        0.210       40.153       36.416        0.823      336.672        8.131      861.478
01/08/2014  18:56:00      -21.547      -28.237        5.548       45.996       50.968       28.054     2115.648     2597.787      786.999        0.340        0.275       35.519       13.145        0.137      336.844        8.419      861.491
01/08/2014  18:57:00      -96.874      -68.425       -0.205       57.522       50.972       26.743     3308.753     2598.172      715.204        1.034        0.331      118.603       23.503        0.039      336.633        8.066      861.488
01/08/2014  18:58:00      -64.656      -59.279       -9.897       41.231       43.397       17.463     1699.957     1883.271      304.942        0.584        0.194       87.718        8.771        0.010      336.900        8.513      861.440
01/08/2014  18:59:00      -24.350      -33.473       -6.319       27.094       18.003       10.341      734.081      324.126      106.946        0.146        0.058       41.393        5.343        0.017      337.524        9.556      861.391
01/08/2014  19:00:00       -8.470      -24.753       -3.909       51.724       24.879       12.309     2675.356      618.965      151.507        0.207        0.172       26.162       11.096        0.180      337.498        9.512      861.390
01/08/2014  19:01:00     -193.091       11.406      -16.871       85.430       64.034       48.314     7298.254     4100.299     2334.240        2.571        0.687      193.428       38.442        0.039      336.438        7.737      861.444
01/08/2014  19:02:00     -235.865      -59.119      -10.327       78.309       74.679       36.899     6132.223     5576.879     1361.511        3.615        0.654      243.161       41.221        0.029      336.188        7.319      861.474
01/08/2014  19:03:00      -85.804       -8.272       -2.422       49.828       35.902       28.172     2482.856     1288.927      793.649        0.600        0.228       86.202       20.830        0.058      336.115        7.201      861.463
01/08/2014  19:04:00        6.674      -27.625        5.270       15.065       21.345       14.294      226.954      455.627      204.315        0.086        0.044       28.419        7.863        0.077      336.283        7.479      861.425
01/08/2014  19:05:00      -35.839      -12.901       -3.424       23.763        7.615        7.073      564.680       57.984       50.024        0.107        0.034       38.090        9.473        0.062      336.510        7.861      861.419
01/08/2014  19:06:00     -131.946      -38.169      -13.132       27.991       35.337       15.732      783.500     1248.714      247.481        1.066        0.114      137.356       10.680        0.006      336.389        7.656      861.454
01/08/2014  19:07:00      -87.425      -45.212       -5.788       61.992       31.883       21.559     3843.017     1016.541      464.781        0.752        0.266       98.424        5.200        0.003      336.184        7.314      861.511
01/08/2014  19:08:00       -3.527      -27.890       14.247       34.114       25.909       19.464     1163.768      671.302      378.837        0.160        0.111       28.112       18.150        0.417      336.369        7.625      861.512
01/08/2014  19:09:00       -4.010      -92.367      -14.086       53.094       70.477       32.509     2818.959     4966.950     1056.833        0.879        0.442       92.454       41.823        0.205      336.352        7.597      861.493
01/08/2014  19:10:00     -108.437     -100.389        2.972       87.765       63.903       49.631     7702.730     4083.620     2463.213        1.805        0.712      147.772       42.791        0.084      336.590        7.992      861.541
01/08/2014  19:11:00      -31.071     -150.323       -7.392       68.775       62.594       37.475     4729.989     3918.069     1404.388        1.683        0.503      153.500       21.461        0.020      336.702        8.181      861.529
01/08/2014  19:12:00       26.073      -48.652        1.723       43.340       50.906       43.030     1878.389     2591.407     1851.607        0.468        0.316       55.198       33.867        0.376      336.595        8.003      861.480
01/08/2014  19:13:00      -31.774      -54.410        5.040       57.289       39.056       21.837     3282.071     1525.353      476.860        0.464        0.264       63.008       17.304        0.075      336.827        8.390      861.485
01/08/2014  19:14:00      -82.808      -82.868      -12.732       28.233       27.116       23.356      797.088      735.260      545.497        0.798        0.104      117.150       16.200        0.019      336.975        8.636      861.499
01/08/2014  19:15:00     -128.770      -49.106       -6.051       25.867       18.166       12.065      669.097      330.008      145.568        1.009        0.057      137.816        4.463        0.001      336.759        8.275      861.500
01/08/2014  19:16:00     -149.064      -38.735        0.577       70.325       46.315       26.406     4945.564     2145.115      697.275        1.575        0.389      154.015       32.606        0.045      336.326        7.551      861.522
01/08/2014  19:17:00     -239.157       41.332      -21.555      114.852       44.172       40.012    13190.921     1951.181     1600.948        3.805        0.837      242.702       49.237        0.041      336.356        7.600      861.542
01/08/2014  19:18:00     -121.221       40.054       -6.583       44.529       46.980       29.122     1982.857     2207.118      848.096        1.069        0.252      127.667       33.355        0.068      336.552        7.931      861.535
01/08/2014  19:19:00      -74.257      111.602      -23.307       41.254       46.851       24.840     1701.873     2194.977      617.034        1.151        0.226      134.049       18.840        0.020      337.063        8.785      861.512
01/08/2014  19:20:00      -35.910       23.589       -1.454       36.551       39.651       17.975     1335.956     1572.235      323.110        0.254        0.162       42.965       18.006        0.176      337.035        8.738      861.496
01/08/2014  19:21:00      -93.824       -5.974      -15.386       31.881       21.603       10.967     1016.378      466.703      120.275        0.534        0.080       94.014       10.452        0.012      336.834        8.401      861.523
01/08/2014  19:22:00     -149.367      -33.600      -13.800       51.230       38.754       23.341     2624.560     1501.852      544.795        1.415        0.234      153.100       27.021        0.031      336.361        7.610      861.587
01/08/2014  19:23:00      -91.306      -62.178        8.709       66.540       58.604       32.130     4427.522     3434.384     1032.350        1.058        0.445      110.466       28.679        0.067      336.437        7.737      861.631
01/08/2014  19:24:00     -180.711      -68.571       -9.028       75.089       64.674       36.907     5638.314     4182.756     1362.133        2.431        0.559      193.284       28.214        0.021      336.545        7.916      861.661
01/08/2014  19:25:00      -94.859      -66.411        9.526       55.754       58.923       35.104     3108.520     3471.958     1232.272        1.065        0.391      115.796       33.551        0.084      336.438        7.740      861.675
01/08/2014  19:26:00     -159.572      -42.246      -13.531       60.087       58.685       29.365     3610.442     3443.966      862.325        1.767        0.396      165.069       30.275        0.034      336.523        7.881      861.676
01/08/2014  19:27:00     -142.489      -46.598       -2.499       59.256       38.972       23.470     3511.250     1518.853      550.857        1.403        0.279      149.915       26.132        0.030      336.652        8.098      861.666
01/08/2014  19:28:00      -90.341       -0.065       -6.010       50.934       26.491       18.664     2594.263      701.751      348.348        0.592        0.182       90.341       22.332        0.061      336.733        8.233      861.642
01/08/2014  19:29:00      -85.934        2.549       -4.041       32.375       19.750       17.072     1048.125      390.071      291.465        0.457        0.086       85.971       14.408        0.028      336.908        8.524      861.635
01/08/2014  19:30:00      -73.199      -10.217       -8.063       26.604       17.862       15.450      707.784      319.036      238.694        0.340        0.063       73.909       14.478        0.038      336.933        8.567      861.628
01/08/2014  19:31:00     -101.978       -1.384      -17.443       21.429       31.054        9.416      459.195      964.330       88.652        0.611        0.076      101.988        9.639        0.009      336.876        8.471      861.650
01/08/2014  19:32:00      -35.609      -56.443        9.534       36.640       18.906       20.710     1342.513      357.421      428.907        0.334        0.106       66.737       20.763        0.097      337.185        8.987      861.692
01/08/2014  19:33:00      -59.427      -15.831        7.836       47.670       45.014       27.270     2272.412     2026.263      743.637        0.444        0.252       61.500       27.638        0.202      336.905        8.522      861.738
01/08/2014  19:34:00      -24.189      -64.997       -0.848       47.861       29.143       28.878     2290.642      849.306      833.942        0.439        0.199       69.352       21.901        0.100      336.658        8.107      861.758
01/08/2014  19:35:00      -45.422      -46.941        5.725       47.509       27.410       16.843     2257.077      751.298      283.679        0.380        0.165       65.319       21.376        0.107      336.934        8.567      861.754
01/08/2014  19:36:00      -49.025      -70.042       -4.503       34.358       29.247       16.018     1180.471      855.381      256.582        0.481        0.115       85.495       14.701        0.030      336.855        8.437      861.752
01/08/2014  19:37:00     -111.963       17.881      -15.942       26.422       47.265       24.713      698.143     2233.934      610.730        0.833        0.177      113.382       22.323        0.039      337.434        9.408      861.735
01/08/2014  19:38:00      -84.017       26.933      -22.815       29.858       34.764       19.682      891.478     1208.523      387.389        0.540        0.124       88.228       19.271        0.048      337.929       10.238      861.719
01/08/2014  19:39:00      -25.456       33.947       -4.894       27.252       25.445       14.152      742.679      647.431      200.265        0.171        0.080       42.431       19.605        0.213      337.835       10.080      861.708
01/08/2014  19:40:00      -41.522      -29.075       -8.681       77.280       45.700       15.781     5972.205     2088.471      249.049        0.548        0.415       50.689       11.423        0.051      337.154        8.937      861.701
01/08/2014  19:41:00      -66.975     -127.438       -6.014       53.946       64.906       30.373     2910.172     4212.847      922.503        1.440        0.402      143.966       25.523        0.031      336.498        7.841      861.694
01/08/2014  19:42:00      -88.465     -131.028       -9.479       47.826       62.567       26.327     2287.373     3914.662      693.110        1.599        0.345      158.096       20.452        0.017      336.552        7.929      861.682
01/08/2014  19:43:00      -71.623      -88.205        0.251       46.413       50.305       26.785     2154.151     2530.633      717.413        0.916        0.270      113.622       24.279        0.046      337.038        8.744      861.675
01/08/2014  19:44:00      -96.388      -53.802        2.241       65.880       28.077       24.467     4340.127      788.303      598.611        0.896        0.286      110.387       20.164        0.033      336.656        8.104      861.667
01/08/2014  19:45:00      -69.423      -50.319       -1.144       42.624       29.585       21.288     1816.811      875.266      453.183        0.525        0.157       85.741       16.948        0.039      336.743        8.250      861.679
01/08/2014  19:46:00      -72.702       33.910       -2.233       34.593       47.600       21.979     1196.680     2265.730      483.078        0.519        0.197       80.221       23.431        0.085      336.451        7.762      861.710
01/08/2014  19:47:00      -40.215      163.458      -23.036       54.586       50.543       28.441     2979.654     2554.571      808.864        1.760        0.317      168.332       21.261        0.016      336.407        7.688      861.729
01/08/2014  19:48:00       76.852      145.633      -22.829       49.119       57.419       39.465     2412.720     3296.887     1557.465        1.745        0.363      164.667       31.380        0.036      336.442        7.746      861.690
01/08/2014  19:49:00      145.228       87.983        5.324       51.867       47.209       40.997     2690.223     2228.679     1680.770        1.773        0.330      169.800       15.287        0.008      336.412        7.694      861.642
01/08/2014  19:50:00       58.131       80.842        7.244       77.697       42.752       33.714     6036.807     1827.714     1136.602        0.948        0.450       99.572       19.697        0.039      336.067        7.119      861.677
01/08/2014  19:51:00       54.964       21.921      -12.917       34.642       29.636       16.161     1200.082      878.276      261.184        0.300        0.117       59.174       11.739        0.039      336.197        7.338      861.776
01/08/2014  19:52:00      -64.056       39.365      -13.982       43.728       48.904       21.173     1912.113     2391.611      448.304        0.530        0.238       75.185       21.699        0.083      336.422        7.713      861.878
01/08/2014  19:53:00      -68.029      -14.791      -13.804       55.331       34.379       25.003     3061.511     1181.919      625.172        0.495        0.243       69.618       21.684        0.097      336.530        7.893      861.941
01/08/2014  19:54:00      -67.587       27.086      -25.011       59.237       43.463       22.076     3508.969     1889.053      487.329        0.591        0.294       72.812       23.916        0.108      336.586        7.989      861.958
01/08/2014  19:55:00       48.256       35.863       27.494       28.662       41.812       28.456      821.515     1748.211      809.749        0.387        0.169       60.123       27.827        0.214      336.459        7.775      861.925
01/08/2014  19:56:00       36.477       61.560       12.391       68.374       30.015       24.254     4674.994      900.885      588.274        0.572        0.308       71.555       30.124        0.177      336.442        7.745      861.908
01/08/2014  19:57:00      -10.572        3.853       -3.342       51.375       37.127       24.643     2639.388     1378.446      607.272        0.238        0.231       11.252       16.941        2.267      336.580        7.979      861.941
01/08/2014  19:58:00      -34.176       13.664       18.288       54.064       37.923       25.405     2922.919     1438.126      645.391        0.335        0.250       36.806       25.087        0.465      336.351        7.594      861.993
01/08/2014  19:59:00     -142.026      -94.165       -6.687       82.805       77.025       36.184     6856.667     5932.879     1309.278        2.159        0.705      170.407       39.533        0.054      336.445        7.749      862.024
01/08/2014  20:00:00      -84.692      -47.656       21.732      117.833       92.737       56.917    13884.707     8600.162     3239.520        1.782        1.286       97.179       49.059        0.255      336.373        7.630      862.003
01/08/2014  20:01:00        7.953       25.493       27.415       50.770       34.138       31.429     2577.642     1165.409      987.808        0.310        0.237       26.704       13.985        0.274      336.294        7.499      861.983
01/08/2014  20:02:00      -72.158       40.536       -6.618       25.841       41.117       20.699      667.744     1690.596      428.456        0.484        0.139       82.764       12.899        0.024      336.278        7.472      861.946
01/08/2014  20:03:00      -39.931      168.771      -10.803       80.346       74.178       39.260     6455.441     5502.365     1541.357        2.184        0.675      173.431       36.058        0.043      336.282        7.477      861.920
01/08/2014  20:04:00       19.715       84.316      -19.904       61.221       72.747       29.154     3748.064     5292.067      849.937        0.889        0.495       86.590       23.966        0.077      336.154        7.263      861.947
01/08/2014  20:05:00      -95.281      116.969      -20.778       78.388       83.322       37.196     6144.699     6942.518     1383.567        1.883        0.724      150.864       35.671        0.056      336.363        7.612      862.020
01/08/2014  20:06:00      -55.015       -5.526       -1.431       55.210       48.069       27.621     3048.106     2310.642      762.941        0.459        0.306       55.292       27.950        0.256      336.299        7.508      862.036
01/08/2014  20:07:00     -186.390      183.683      -42.341      124.881       89.768       61.443    15595.221     8058.263     3775.212        4.885        1.371      261.688       57.536        0.048      336.362        7.608      862.043
01/08/2014  20:08:00     -100.757      166.096      -19.491       51.998       99.010       43.863     2703.807     9803.012     1923.945        2.627        0.722      194.268       44.650        0.053      336.395        7.666      862.083
01/08/2014  20:09:00      -90.896      117.161      -17.700       67.965       92.520       43.084     4619.234     8559.983     1856.218        1.867        0.752      148.287       41.132        0.077      336.381        7.641      862.093
01/08/2014  20:10:00      -69.324      129.130       -8.010       87.888       88.247       42.314     7724.300     7787.480     1790.446        1.942        0.865      146.562       40.945        0.078      336.461        7.776      862.049
01/08/2014  20:11:00     -132.443      209.192      -27.588       70.604       97.282       54.449     4984.946     9463.749     2964.649        3.974        0.871      247.594       60.481        0.060      336.485        7.816      862.071
01/08/2014  20:12:00     -154.832      348.242      -43.813       93.109      157.542       58.041     8669.330    24819.456     3368.770        9.201        1.843      381.111       62.504        0.027      336.618        8.038      862.083
01/08/2014  20:13:00      -66.426      281.601      -20.465      111.661      142.294       67.879    12468.170    20247.548     4607.512        6.072        1.866      289.330       77.147        0.071      336.527        7.884      862.060
01/08/2014  20:14:00     -119.850      234.024      -27.084       98.723      117.485       63.352     9746.165    13802.822     4013.497        4.871        1.378      262.928       55.701        0.045      336.441        7.741      862.099
01/08/2014  20:15:00     -150.921      192.861      -24.705      102.881      105.277       54.961    10584.586    11083.329     3020.742        4.263        1.234      244.893       53.934        0.049      336.438        7.735      862.174
01/08/2014  20:16:00      -84.735      263.638      -27.085       68.400      105.398       53.819     4678.539    11108.676     2896.512        4.805        0.934      276.921       57.242        0.043      336.438        7.736      862.200
01/08/2014  20:17:00     -193.681      360.142      -45.325      100.157      115.787       69.696    10031.495    13406.633     4857.587        9.878        1.415      408.919       69.445        0.029      336.439        7.736      862.212
01/08/2014  20:18:00     -145.750      313.600      -56.234       84.412      126.450       51.500     7125.395    15989.646     2652.259        7.425        1.288      345.815       44.426        0.017      336.484        7.813      862.248
01/08/2014  20:19:00     -143.047      270.243      -34.564       81.025      113.439       55.418     6564.975    12868.515     3071.210        5.859        1.125      305.768       51.778        0.029      336.440        7.738      862.292
01/08/2014  20:20:00      -69.168      291.920      -23.913       84.780      126.646       47.911     7187.591    16039.262     2295.499        5.804        1.276      300.002       50.025        0.028      336.409        7.687      862.268
01/08/2014  20:21:00     -132.004      252.945      -22.263      109.250      116.447       69.483    11935.538    13559.884     4827.905        5.611        1.516      285.318       68.306        0.057      336.423        7.711      862.260
01/08/2014  20:22:00      -85.940      273.528      -14.203       87.907      153.625       55.213     7727.653    23600.670     3048.492        5.839        1.719      286.711       69.490        0.059      336.422        7.708      862.238
01/08/2014  20:23:00     -102.681      292.561      -30.286       74.036      124.394       57.374     5481.358    15473.765     3291.799        6.065        1.212      310.056       62.283        0.040      336.489        7.822      862.239
01/08/2014  20:24:00     -123.326      254.400      -31.842       68.327      152.677       60.354     4668.621    23310.388     3642.546        5.628        1.581      282.717       60.076        0.045      336.522        7.878      862.231
01/08/2014  20:25:00     -118.896       77.914      -17.074       82.810       80.777       45.565     6857.505     6524.977     2076.175        1.798        0.773      142.150       55.031        0.150      336.465        7.782      862.240
01/08/2014  20:26:00     -221.953       51.457      -37.374       85.654      157.999       53.389     7336.529    24963.569     2850.382        4.422        1.758      227.839       67.122        0.087      336.428        7.718      862.258
01/08/2014  20:27:00     -241.148        9.151      -17.884      102.934       97.890       51.888    10595.310     9582.526     2692.407        4.071        1.144      241.321       46.621        0.037      336.351        7.591      862.270
01/08/2014  20:28:00     -137.771      -59.018      -21.886       90.460       63.948       40.252     8182.924     4089.303     1620.233        1.842        0.695      149.880       24.100        0.026      336.345        7.582      862.282
01/08/2014  20:29:00     -172.250      -16.934       -7.997       92.315       80.098       38.699     8522.140     6415.766     1497.594        2.323        0.822      173.080       17.503        0.010      336.321        7.541      862.311
01/08/2014  20:30:00     -135.478       76.556      -38.418       64.900      101.350       44.840     4212.017    10271.897     2010.606        2.109        0.825      155.612       43.553        0.078      336.301        7.511      862.322
01/08/2014  20:31:00     -207.052      201.858      -38.182      116.482      150.959       65.234    13568.054    22788.521     4255.472        6.284        2.031      289.166       76.758        0.070      336.286        7.481      862.319
01/08/2014  20:32:00     -247.100      195.740      -34.361      133.794      112.822       72.366    17900.761    12728.853     5236.770        6.820        1.793      315.234       63.349        0.040      336.270        7.455      862.376
01/08/2014  20:33:00     -209.923      174.369      -32.927       97.815      115.265       60.237     9567.759    13285.906     3628.478        5.101        1.324      272.896       58.637        0.046      336.268        7.452      862.365
01/08/2014  20:34:00     -195.319      164.329      -29.677      100.634       89.764       47.667    10127.265     8057.532     2272.111        4.324        1.023      255.252       57.273        0.050      336.214        7.364      862.368
01/08/2014  20:35:00     -239.670       92.159      -35.016       97.959       77.148       49.366     9595.899     5951.885     2437.029        4.257        0.899      256.778       46.537        0.033      336.164        7.278      862.388
01/08/2014  20:36:00     -257.067      128.324      -46.624       99.720       95.573       57.841     9944.160     9134.293     3345.629        5.357        1.121      287.315       61.084        0.045      336.150        7.254      862.419
01/08/2014  20:37:00     -265.829       28.400      -40.348      148.560      113.811       64.234    22070.173    12952.830     4126.052        5.612        1.957      267.342       68.136        0.065      336.153        7.262      862.425
01/08/2014  20:38:00     -352.776      -56.846      -44.392      134.061      122.752       70.822    17972.453    15068.085     5015.790        8.385        1.903      357.327       65.261        0.033      336.219        7.372      862.432
01/08/2014  20:39:00     -152.692      192.884      -26.567       99.213       85.818       64.738     9843.283     7364.797     4191.034        4.131        1.070      246.007       60.453        0.060      336.208        7.352      862.438
01/08/2014  20:40:00     -187.727      224.356      -41.457       94.144       76.101       53.070     8863.185     5791.407     2816.376        5.238        0.874      292.536       46.670        0.025      336.187        7.317      862.428
01/08/2014  20:41:00     -257.803      112.924      -40.674      100.356       85.139       50.144    10071.238     7248.593     2514.434        5.035        0.992      281.450       46.895        0.028      336.341        7.574      862.418
01/08/2014  20:42:00     -267.415       42.808      -41.950       81.129       78.274       46.575     6581.887     6126.842     2169.275        4.499        0.744      270.820       34.456        0.016      336.310        7.521      862.431
01/08/2014  20:43:00     -266.427       85.820      -37.926      111.112       63.423       53.662    12345.967     4022.451     2879.564        4.951        0.962      279.908       45.895        0.027      336.247        7.418      862.457
01/08/2014  20:44:00     -158.034      147.771      -37.274       75.299       93.296       48.506     5669.969     8704.108     2352.875        3.246        0.836      216.358       37.551        0.030      336.241        7.409      862.464
01/08/2014  20:45:00     -177.691      115.964      -26.471       75.612       89.953       52.422     5717.148     8091.623     2748.043        3.114        0.828      212.183       36.880        0.030      336.297        7.500      862.480
01/08/2014  20:46:00     -150.905       69.228      -27.083       77.907       87.842       33.371     6069.475     7716.158     1113.602        2.160        0.745      166.026       26.246        0.025      336.277        7.470      862.503
01/08/2014  20:47:00     -314.387       94.816      -52.107      111.799       84.553       58.872    12499.016     7149.226     3465.895        6.683        1.156      328.374       51.185        0.024      336.318        7.535      862.527
01/08/2014  20:48:00     -239.344      121.338      -31.180      107.028       85.041       50.843    11454.919     7231.955     2584.983        4.712        1.064      268.344       52.688        0.039      336.261        7.439      862.526
01/08/2014  20:49:00     -113.871      258.988      -30.069       98.503      117.429       50.965     9702.745    13789.595     2597.435        5.351        1.304      282.916       51.508        0.033      336.307        7.518      862.515
01/08/2014  20:50:00     -240.150      268.471      -56.139       77.601      121.068       54.195     6021.939    14657.393     2937.117        7.825        1.181      360.206       46.354        0.017      336.295        7.497      862.528
01/08/2014  20:51:00     -230.925      246.534      -37.169      124.215      176.257       74.256    15429.477    31066.354     5513.994        8.374        2.600      337.795       83.500        0.061      336.435        7.732      862.512
01/08/2014  20:52:00     -252.127      160.741      -34.903      106.214      109.255       56.578    11281.426    11936.748     3201.084        5.852        1.321      299.007       48.542        0.026      336.365        7.613      862.500
01/08/2014  20:53:00     -258.429      332.419      -77.229      120.812       86.603       58.337    14595.493     7500.093     3403.184       10.437        1.275      421.056       66.891        0.025      336.420        7.707      862.511
01/08/2014  20:54:00     -169.106      292.493      -38.836       97.270       84.672       49.505     9461.483     7169.383     2450.762        6.737        0.954      337.860       39.710        0.014      336.394        7.661      862.464
01/08/2014  20:55:00     -237.856      265.802      -56.897       94.237       90.657       54.402     8880.568     8218.621     2959.531        7.526        1.003      356.688       49.281        0.019      336.426        7.716      862.457
01/08/2014  20:56:00     -249.988      294.690      -67.583      100.058       98.837       56.138    10011.550     9768.832     3151.451        8.841        1.147      386.441       60.828        0.025      336.347        7.583      862.468
01/08/2014  20:57:00     -203.315      315.599      -58.247      100.663      100.520       59.218    10133.052    10104.276     3506.741        8.403        1.187      375.420       63.164        0.028      336.296        7.498      862.492
01/08/2014  20:58:00     -119.228      323.138      -38.590       85.364       90.062       47.942     7286.987     8111.208     2298.478        6.891        0.885      344.432       43.753        0.016      336.313        7.526      862.470
01/08/2014  20:59:00     -208.057      342.752      -67.647      107.528      109.283       59.607    11562.321    11942.673     3552.984        9.620        1.353      400.957       59.277        0.022      336.486        7.817      862.484
01/08/2014  21:00:00     -249.563      327.716      -66.751       94.143      111.626       56.996     8862.914    12460.341     3248.568        9.935        1.229      411.921       41.774        0.010      336.637        8.070      862.485
01/08/2014  21:01:00     -222.611      328.052      -54.565       86.912      112.970       53.920     7553.752    12762.133     2907.335        9.168        1.161      396.451       56.698        0.020      336.508        7.855      862.501
01/08/2014  21:02:00     -265.751      168.338      -52.660       74.480      138.435       50.527     5547.289    19164.342     2552.970        6.449        1.363      314.581       53.078        0.028      336.519        7.872      862.541
01/08/2014  21:03:00     -240.816      103.514      -33.381       77.656       59.011       44.894     6030.396     3482.330     2015.431        4.067        0.576      262.121       36.260        0.019      336.379        7.636      862.590
01/08/2014  21:04:00     -205.909     -109.777       -6.549      114.089      111.682       65.686    13016.413    12472.840     4314.590        4.214        1.490      233.344       66.078        0.080      336.219        7.369      862.601
01/08/2014  21:05:00     -128.122      105.247      -34.269       96.082      152.761       56.596     9231.796    23335.930     3203.127        3.221        1.789      165.808       41.120        0.062      336.198        7.335      862.580
01/08/2014  21:06:00     -176.541      303.703      -48.061       81.991      133.566       51.827     6722.470    17839.962     2686.014        7.648        1.362      351.287       49.236        0.020      336.267        7.450      862.541
01/08/2014  21:07:00     -109.728      246.479      -36.235      102.674      142.890       56.419    10541.869    20417.472     3183.101        5.412        1.707      269.800       47.352        0.031      336.322        7.542      862.475
01/08/2014  21:08:00      -94.709      291.342      -23.597       82.523      109.930       61.809     6810.088    12084.583     3820.323        5.856        1.136      306.349       49.804        0.026      336.342        7.576      862.447
01/08/2014  21:09:00     -174.016      248.647      -42.878       87.582       99.215       58.674     7670.689     9843.571     3442.593        5.745        1.048      303.491       52.160        0.030      336.355        7.596      862.457
01/08/2014  21:10:00     -130.474      208.461      -24.512       63.558       82.208       57.364     4039.575     6758.083     3290.654        3.758        0.704      245.925       44.324        0.032      336.372        7.626      862.469
01/08/2014  21:11:00      -80.238      344.031      -44.106       68.701       99.517       43.881     4719.780     9903.681     1925.573        7.164        0.827      353.264       40.495        0.013      336.350        7.588      862.441
01/08/2014  21:12:00     -161.530      242.313      -39.539       88.270      100.249       54.357     7791.632    10049.813     2954.655        5.358        1.040      291.217       56.708        0.038      336.393        7.659      862.463
01/08/2014  21:13:00     -139.252      224.704      -37.612       63.611       50.781       40.640     4046.358     2578.751     1651.578        3.979        0.414      264.354       35.343        0.018      336.368        7.617      862.464
01/08/2014  21:14:00     -179.420      146.590      -38.512       71.013       68.348       37.678     5042.900     4671.446     1419.597        3.315        0.557      231.690       38.723        0.028      336.314        7.529      862.504
01/08/2014  21:15:00     -196.401      206.685      -52.194       70.317       85.714       37.636     4944.507     7346.846     1416.444        4.886        0.685      285.117       30.838        0.012      336.297        7.500      862.559
01/08/2014  21:16:00     -140.041      192.153      -31.808       71.130       93.359       44.004     5059.464     8715.970     1936.374        3.663        0.786      237.770       43.872        0.034      336.310        7.522      862.594
01/08/2014  21:17:00     -134.639      202.231      -20.627       66.305       89.638       43.711     4396.391     8035.049     1910.661        3.689        0.717      242.950       35.706        0.022      336.241        7.408      862.567
01/08/2014  21:18:00     -153.519      200.457      -32.896       77.305       84.015       47.239     5976.093     7058.480     2231.516        4.005        0.763      252.490       42.495        0.028      336.195        7.332      862.548
01/08/2014  21:19:00     -137.890      202.108      -31.220       90.362       72.006       44.860     8165.246     5184.934     2012.376        3.810        0.768      244.665       43.044        0.031      336.174        7.294      862.522
01/08/2014  21:20:00     -105.826      223.546      -30.007       66.798       65.516       30.792     4462.028     4292.317      948.162        3.589        0.485      247.330       32.837        0.018      336.164        7.278      862.486
01/08/2014  21:21:00      -88.622      386.344      -46.388       64.614       79.097       43.823     4175.018     6256.352     1920.455        8.581        0.618      396.378       35.926        0.008      336.304        7.513      862.444
01/08/2014  21:22:00      -89.872      235.666      -35.096       52.045       80.076       38.028     2708.674     6412.104     1446.107        3.771        0.528      252.221       40.522        0.026      336.272        7.458      862.437
01/08/2014  21:23:00     -109.998      159.775      -26.466       63.623       56.473       37.491     4047.826     3189.226     1405.542        2.348        0.432      193.979       30.378        0.025      336.272        7.459      862.439
01/08/2014  21:24:00     -162.214      215.875      -34.898       89.749       80.392       47.294     8054.927     6462.820     2236.697        4.544        0.838      270.028       55.307        0.042      336.261        7.441      862.442
01/08/2014  21:25:00     -157.977      197.381      -39.829       56.293      100.184       37.240     3168.951    10036.931     1386.822        4.005        0.730      252.816       36.564        0.021      336.224        7.379      862.430
01/08/2014  21:26:00     -113.036       69.618       -7.658       47.474       46.295       27.960     2253.806     2143.229      781.750        1.143        0.259      132.754       17.052        0.016      336.285        7.483      862.401
01/08/2014  21:27:00      -85.884       47.253      -14.355       47.689       32.709       30.529     2274.273     1069.881      932.001        0.704        0.214       98.025       28.120        0.082      336.237        7.404      862.388
01/08/2014  21:28:00     -101.897      124.034      -14.852       79.881       94.589       46.238     6381.038     8947.122     2137.973        2.172        0.873      160.522       57.414        0.128      336.282        7.478      862.368
01/08/2014  21:29:00     -137.893       56.873        3.343       63.665       83.767       44.916     4053.265     7016.957     2017.408        1.767        0.654      149.161       28.991        0.038      336.255        7.433      862.364
01/08/2014  21:30:00      -90.515      131.544      -20.015       68.378       75.918       38.744     4675.575     5763.613     1501.109        1.892        0.597      159.677       35.102        0.048      336.325        7.549      862.361
01/08/2014  21:31:00     -138.853      150.256      -23.999       78.232       57.064       37.998     6120.306     3256.290     1443.865        2.662        0.541      204.590       34.026        0.028      336.322        7.542      862.353
01/08/2014  21:32:00     -114.141      165.684      -26.146       51.163       58.804       32.441     2617.628     3457.889     1052.448        2.414        0.356      201.195       23.114        0.013      336.277        7.468      862.330
01/08/2014  21:33:00      -70.283      147.506      -17.614       53.569       71.448       35.278     2869.652     5104.796     1244.543        1.811        0.461      163.394       37.438        0.052      336.291        7.493      862.297
01/08/2014  21:34:00     -102.410       70.359      -15.673       34.967       55.545       28.277     1222.691     3085.202      799.588        1.039        0.255      124.251       24.154        0.038      336.230        7.393      862.282
01/08/2014  21:35:00      -94.973      103.798      -19.897       62.491       50.612       35.268     3905.083     2561.597     1243.844        1.395        0.386      140.691       30.158        0.046      336.306        7.518      862.244
01/08/2014  21:36:00      -70.099       46.976      -10.864       30.745       28.858       20.582      945.238      832.756      423.630        0.472        0.110       84.384       17.915        0.045      336.254        7.432      862.216
01/08/2014  21:37:00       -7.954        9.587        7.673       32.710       33.357       19.974     1069.915     1112.659      398.960        0.140        0.129       12.457        6.354        0.260      336.203        7.346      862.163
01/08/2014  21:38:00      -62.025      -79.449        5.206       74.700       58.184       37.354     5580.099     3385.434     1395.324        1.027        0.518      100.793       35.037        0.121      336.180        7.309      862.157
01/08/2014  21:39:00     -152.555      -99.654       -0.892       88.282       50.711       35.040     7793.635     2571.557     1227.817        2.240        0.580      182.219       29.962        0.027      336.037        7.068      862.175
01/08/2014  21:40:00     -119.760     -111.725       -1.792       67.674       61.468       34.514     4579.718     3778.320     1191.191        1.819        0.477      163.784       18.124        0.012      335.946        6.917      862.188
01/08/2014  21:41:00      -98.066      -68.074        4.304       58.254       36.950       26.864     3393.526     1365.279      721.661        0.987        0.274      119.377       22.384        0.035      335.842        6.745      862.186
01/08/2014  21:42:00     -194.871      -93.644      -14.214       54.297       38.364       31.248     2948.200     1471.783      976.456        2.617        0.270      216.204       26.712        0.015      335.730        6.557      862.210
01/08/2014  21:43:00      -92.008      -15.512       14.497       64.682       58.633       40.013     4183.757     3437.785     1601.035        0.907        0.461       93.307       33.532        0.129      335.585        6.317      862.210
01/08/2014  21:44:00     -102.685      -66.300       -2.689       39.819       50.893       22.334     1585.577     2590.072      498.826        0.981        0.234      122.228       20.287        0.028      335.457        6.102      862.193
01/08/2014  21:45:00      -48.946      -41.267       -3.419       36.340       30.138       26.153     1320.602      908.290      683.981        0.351        0.146       64.021       26.348        0.169      335.426        6.051      862.156
01/08/2014  21:46:00      -41.266       15.737       12.149       24.579       18.546       14.304      604.140      343.967      204.615        0.163        0.058       44.165       10.308        0.054      335.342        5.911      862.137
01/08/2014  21:47:00      -68.665        8.617       -2.117       61.014       31.331       19.008     3722.724      981.603      361.305        0.493        0.253       69.204       24.927        0.130      335.307        5.853      862.138
01/08/2014  21:48:00     -176.844       13.892      -12.484       36.007       41.829       22.788     1296.519     1749.645      519.282        1.759        0.178      177.389       18.236        0.011      335.206        5.685      862.167
01/08/2014  21:49:00     -181.278      -74.391       -9.564       40.461       34.921       19.670     1637.082     1219.482      386.919        2.086        0.162      195.948       13.504        0.005      335.200        5.674      862.192
01/08/2014  21:50:00     -207.873      -89.503       -4.912       58.503       49.935       31.496     3422.644     2493.545      991.973        2.908        0.345      226.323       30.276        0.018      335.203        5.678      862.223
01/08/2014  21:51:00     -198.425     -144.113       -6.568       77.367       48.390       36.872     5985.613     2341.612     1359.554        3.493        0.484      245.236       38.570        0.025      335.175        5.632      862.244
01/08/2014  21:52:00     -127.438      -98.512        1.674       70.834       42.626       31.550     5017.398     1816.981      995.373        1.689        0.391      161.074       36.199        0.051      335.250        5.757      862.259
01/08/2014  21:53:00      -38.554      -23.457       11.823       54.947       44.825       24.990     3019.139     2009.295      624.488        0.391        0.283       45.129       35.186        0.608      335.271        5.792      862.220
01/08/2014  21:54:00       25.790       -7.930        5.156       25.577       30.738       24.226      654.204      944.831      586.903        0.147        0.109       26.982       15.530        0.331      335.436        6.068      862.203
01/08/2014  21:55:00     -123.284      -66.260        0.082       92.319       54.199       30.000     8522.829     2937.484      900.021        1.597        0.618      139.962        9.249        0.004      335.334        5.896      862.263
01/08/2014  21:56:00     -142.022      -50.962        0.050       82.822       49.228       30.898     6859.544     2423.398      954.674        1.650        0.512      150.889       38.976        0.067      335.228        5.721      862.308
01/08/2014  21:57:00     -198.759      -44.466       -4.773       62.930       63.586       38.191     3960.168     4043.157     1458.573        2.548        0.473      203.672       31.532        0.024      335.198        5.669      862.311
01/08/2014  21:58:00     -144.336      -49.390       -3.324       79.033       56.754       32.609     6246.223     3221.031     1063.327        1.691        0.527      152.552       34.187        0.050      335.197        5.669      862.327
01/08/2014  21:59:00      -52.307        4.093       -1.877       31.300       32.141       23.903      979.682     1033.070      571.335        0.267        0.129       52.466       19.768        0.142      335.194        5.665      862.329
01/08/2014  22:00:00       -1.326        1.592       16.591       11.990       19.241       16.046      143.765      370.231      257.483        0.053        0.039        2.072       12.986       39.278      335.236        5.734      862.318
01/08/2014  22:01:00      -42.818      -47.321       20.056       33.945       21.950       29.674     1152.277      481.791      880.551        0.349        0.126       63.817       14.220        0.050      335.334        5.897      862.289
01/08/2014  22:02:00      -13.237      -13.823       -3.236       10.020       15.785        9.263      100.407      249.171       85.811        0.041        0.022       19.139        9.435        0.243      335.325        5.883      862.285
01/08/2014  22:03:00        6.420      -15.452        4.291       16.686       12.428       10.303      278.423      154.461      106.152        0.042        0.027       16.733        8.518        0.259      335.327        5.886      862.282
01/08/2014  22:04:00        4.502        5.771       -6.807       25.432       15.594       19.366      646.803      243.183      375.024        0.068        0.063        7.319       12.216        2.786      335.362        5.944      862.266
01/08/2014  22:05:00       23.095       21.170       -2.644       10.462       13.523       14.458      109.449      182.867      209.022        0.074        0.025       31.330       11.733        0.140      335.297        5.836      862.271
01/08/2014  22:06:00       22.423       84.246      -11.917       13.372       16.882       12.079      178.809      285.015      145.890        0.418        0.030       87.179       12.881        0.022      335.261        5.776      862.254
01/08/2014  22:07:00       -4.201       62.126       -6.353       17.155       22.745       10.005      294.293      517.352      100.092        0.241        0.046       62.268       10.459        0.028      335.378        5.972      862.253
01/08/2014  22:08:00       39.138       33.809      -14.800       23.190       17.163       18.503      537.770      294.575      342.366        0.203        0.059       51.719       11.017        0.045      335.233        5.728      862.244
01/08/2014  22:09:00       32.864       43.432       26.096       36.873       27.293       16.443     1359.644      744.934      270.384        0.301        0.119       54.464       16.890        0.096      335.186        5.652      862.220
01/08/2014  22:10:00      -53.380      -29.584       -4.457       62.427       28.158       13.498     3897.096      792.870      182.183        0.431        0.244       61.029       15.050        0.061      335.204        5.682      862.234
01/08/2014  22:11:00      -99.608      -51.987       -8.580       37.322       19.846       17.146     1392.933      393.855      293.971        0.739        0.104      112.358        7.762        0.005      335.145        5.584      862.184
01/08/2014  22:12:00      -30.206       -5.078        8.959       22.942       19.567       11.945      526.341      382.878      142.677        0.103        0.053       30.629       11.247        0.135      335.138        5.573      862.101
01/08/2014  22:13:00       -4.150       22.404        3.882       11.263       10.759        9.191      126.853      115.747       84.470        0.043        0.016       22.785        7.957        0.122      335.147        5.588      862.048
01/08/2014  22:14:00      -53.410        5.797      -10.166       28.459       19.165        5.213      809.924      367.297       27.175        0.210        0.060       53.724        4.806        0.008      335.161        5.610      862.067
01/08/2014  22:15:00     -107.675      -39.046       -6.250       37.553       25.060       15.740     1410.215      627.987      247.756        0.772        0.114      114.536       12.701        0.012      335.117        5.538      862.124
01/08/2014  22:16:00      -55.736      -34.771       -3.242       55.010       21.343       16.223     3026.078      455.542      263.198        0.403        0.187       65.693        6.479        0.010      335.072        5.464      862.144
01/08/2014  22:17:00        8.892      -23.935        7.725       13.062       21.807       13.160      170.604      475.527      173.185        0.077        0.041       25.534       12.675        0.246      335.177        5.638      862.088
01/08/2014  22:18:00       17.426       32.921       12.004       19.632       11.810       14.226      385.400      139.478      202.369        0.113        0.036       37.248       10.892        0.086      335.125        5.552      862.035
01/08/2014  22:19:00       -7.528       57.698        3.181       15.967       21.311       15.422      254.956      454.161      237.823        0.217        0.047       58.187       11.784        0.041      335.352        5.928      862.029
01/08/2014  22:20:00      -14.013       79.450       -0.880       12.764       18.996       14.040      162.930      360.831      197.135        0.362        0.036       80.677       10.799        0.018      335.430        6.059      862.043
01/08/2014  22:21:00       -1.943       56.467       -2.881        9.059       15.256        7.314       82.068      232.736       53.498        0.178        0.018       56.500        4.955        0.008      335.430        6.059      862.056
01/08/2014  22:22:00      -38.993       -5.024       -1.946       32.873       17.412        9.376     1080.640      303.184       87.917        0.151        0.074       39.316       14.468        0.135      335.243        5.746      862.080
01/08/2014  22:23:00      -60.569      -26.581       -5.574       15.651       12.649       10.217      244.965      160.007      104.386        0.246        0.025       66.145        5.916        0.008      335.021        5.379      862.078
01/08/2014  22:24:00      -57.649      -26.687       -5.310       14.386       16.501        7.575      206.945      272.291       57.386        0.230        0.027       63.527        7.536        0.014      335.051        5.429      862.050
01/08/2014  22:25:00      -89.323      -38.066        2.703       23.224       26.785       15.747      539.368      717.419      247.976        0.547        0.075       97.096       10.085        0.011      335.253        5.764      862.049
01/08/2014  22:26:00       -0.848      -22.157        0.991       24.327       19.500       13.855      591.822      380.239      191.964        0.083        0.058       22.173        6.753        0.093      335.254        5.764      862.028
01/08/2014  22:27:00       14.871       15.266        5.287       15.150       17.035       10.497      229.521      290.206      110.195        0.056        0.031       21.312        4.439        0.043      335.169        5.624      862.008
01/08/2014  22:28:00      -29.107       14.718       -4.652       29.333       15.590       10.156      860.406      243.040      103.147        0.115        0.060       32.616        5.377        0.027      335.281        5.810      862.010
01/08/2014  22:29:00      -86.589       15.857       -8.738        8.971       12.174        9.784       80.474      148.205       95.725        0.407        0.016       88.029        2.784        0.001      335.251        5.758      862.023
01/08/2014  22:30:00      -47.501       20.753       -5.021       21.022        8.165        5.699      441.944       66.669       32.479        0.163        0.027       51.837        6.353        0.015      335.219        5.705      862.026
01/08/2014  22:31:00      -16.542       15.731        2.750       11.412        7.617        9.091      130.232       58.020       82.640        0.040        0.014       22.828        7.254        0.101      335.338        5.904      862.011
01/08/2014  22:32:00      -89.347      -15.906      -10.743       28.000       33.422       14.422      783.974     1117.033      208.004        0.523        0.105       90.752       13.542        0.022      335.260        5.776      862.020
01/08/2014  22:33:00      -59.686      -49.529        1.046       55.530       25.960       25.277     3083.636      673.926      638.910        0.521        0.220       77.560       25.595        0.109      335.039        5.409      862.046
01/08/2014  22:34:00      -22.120      -16.134        2.722       30.096       29.517       19.506      905.774      871.241      380.488        0.146        0.108       27.379       16.731        0.373      335.247        5.753      862.039
01/08/2014  22:35:00      -41.815      -47.107        3.937       27.545       26.154       16.002      758.747      684.015      256.068        0.284        0.085       62.988       16.042        0.065      335.445        6.084      862.043
01/08/2014  22:36:00      -14.194       -0.370        3.679       40.257       26.001       10.705     1620.656      676.027      114.606        0.131        0.121       14.199       12.223        0.741      335.408        6.021      862.064
01/08/2014  22:37:00       21.341       18.301       10.510       12.926        8.792        8.552      167.073       77.305       73.143        0.061        0.016       28.113        6.888        0.060      335.338        5.903      862.075
01/08/2014  22:38:00       -7.361       13.080        7.061       17.044        6.441        8.870      290.509       41.482       78.681        0.034        0.021       15.010        9.763        0.423      335.480        6.143      862.100
01/08/2014  22:39:00      -49.030       -1.804       -3.236       16.883       13.833        8.752      285.023      191.355       76.598        0.149        0.028       49.063       10.364        0.045      335.399        6.008      862.136
01/08/2014  22:40:00      -79.369      -38.499       -5.940       15.742       11.763        8.527      247.795      138.377       72.703        0.414        0.023       88.214        7.337        0.007      335.274        5.798      862.160
01/08/2014  22:41:00      -80.124      -20.163       -9.813       13.097       15.868        9.045      171.544      251.808       81.804        0.371        0.025       82.622        7.141        0.007      335.195        5.666      862.151
01/08/2014  22:42:00      -99.852        0.054       -3.171       23.786       14.928       11.975      565.779      222.852      143.393        0.546        0.047       99.852       10.896        0.012      335.084        5.483      862.163
01/08/2014  22:43:00      -59.122      -21.693       -2.677       19.867       16.284       12.990      394.689      265.183      168.729        0.240        0.041       62.976       10.878        0.030      335.024        5.384      862.168
01/08/2014  22:44:00      -49.273      -28.305        0.033       19.813       11.476       10.896      392.551      131.705      118.721        0.194        0.032       56.825        9.236        0.026      335.152        5.596      862.152
01/08/2014  22:45:00      -35.289      -47.349        0.649       26.045       14.788       10.310      678.330      218.681      106.289        0.225        0.050       59.052        6.583        0.012      335.342        5.911      862.145
01/08/2014  22:46:00      -76.253      -40.968        5.270       52.512       27.569       22.560     2757.546      760.039      508.944        0.577        0.201       86.562       24.112        0.078      335.249        5.755      862.144
01/08/2014  22:47:00      -23.969      -30.271        7.250       27.965       31.383       15.624      782.026      984.884      244.103        0.178        0.101       38.611       10.489        0.074      335.216        5.703      862.146
01/08/2014  22:48:00        9.747       12.338        8.452       17.299       16.530       10.520      299.269      273.233      110.673        0.050        0.034       15.724        7.274        0.214      335.232        5.728      862.121
01/08/2014  22:49:00      -16.167       10.359       -5.789       12.834        6.367       10.638      164.702       40.545      113.157        0.036        0.016       19.201        3.777        0.039      335.431        6.060      862.138
01/08/2014  22:50:00       27.537       19.828        2.033       18.798       15.310       11.529      353.362      234.384      132.923        0.094        0.036       33.933       12.507        0.136      335.807        6.685      862.146
01/08/2014  22:51:00       76.470       41.234       11.672       29.431       22.443       17.643      866.174      503.708      311.292        0.468        0.084       86.879       18.898        0.047      335.469        6.123      862.158
01/08/2014  22:52:00       24.539       30.209       32.284       32.165       29.031       19.868     1034.576      842.827      394.742        0.241        0.114       38.920       17.558        0.204      335.201        5.677      862.179
01/08/2014  22:53:00       25.805       32.695        3.155       21.609       11.683       14.102      466.943      136.482      198.856        0.127        0.040       41.651        9.433        0.051      335.023        5.382      862.192
01/08/2014  22:54:00       -0.482       51.447       -6.447        8.819       21.267        4.984       77.770      452.289       24.842        0.162        0.028       51.449        4.658        0.008      335.205        5.684      862.202
01/08/2014  22:55:00       22.952       98.673       -8.074       19.622       23.986       17.113      385.019      575.348      292.871        0.579        0.063      101.308       14.576        0.021      335.202        5.680      862.186
01/08/2014  22:56:00       23.234       70.226       -8.244       22.465       24.932       16.505      504.663      621.609      272.416        0.347        0.070       73.970       14.768        0.040      335.229        5.724      862.211
01/08/2014  22:57:00       26.821       60.918       -4.679       10.404       19.556       12.972      108.244      382.437      168.269        0.256        0.033       66.561       12.226        0.034      335.278        5.804      862.255
01/08/2014  22:58:00       87.516       41.735       11.265       17.696       14.488       16.673      313.151      209.898      277.974        0.516        0.040       96.958        8.204        0.007      335.086        5.488      862.259
01/08/2014  22:59:00       60.564       38.482       12.386       31.723       27.212       20.466     1006.354      740.506      418.866        0.373        0.108       71.755       20.408        0.081      335.023        5.383      862.249
01/08/2014  23:00:00      -17.173       29.337       -9.124       34.014       18.891       18.312     1156.938      356.851      335.331        0.154        0.092       33.994       15.593        0.210      334.962        5.280      862.268
01/08/2014  23:01:00      -73.110        5.813      -12.157       23.915       21.308       11.267      571.950      454.028      126.947        0.334        0.058       73.341       11.792        0.026      334.888        5.159      862.316
01/08/2014  23:02:00      -52.805       40.350      -12.521       26.919       36.206       14.412      724.651     1310.909      207.716        0.341        0.112       66.457       13.144        0.039      335.063        5.447      862.326
01/08/2014  23:03:00        8.902      124.060      -12.014       23.482       39.781       21.408      551.386     1582.510      458.306        0.910        0.130      124.379       24.027        0.037      335.554        6.265      862.322
01/08/2014  23:04:00       21.834      152.826      -22.685       14.719       16.418        8.297      216.663      269.549       68.840        1.245        0.028      154.378        5.647        0.001      335.588        6.322      862.303
01/08/2014  23:05:00       17.189       64.317       -4.363       26.014       55.886       28.307      676.750     3123.286      801.271        0.453        0.230       66.574       29.598        0.198      335.458        6.106      862.283
01/08/2014  23:06:00       46.042       52.561        0.012       38.250       32.886       22.691     1463.062     1081.510      514.887        0.397        0.153       69.875       17.592        0.063      335.291        5.825      862.267
01/08/2014  23:07:00       20.023       20.805        7.251       35.147       26.799       16.028     1235.336      718.181      256.907        0.155        0.111       28.875       11.692        0.164      335.193        5.664      862.284
01/08/2014  23:08:00      -28.438       14.487      -13.694       14.682       25.353       13.408      215.567      642.766      179.775        0.112        0.052       31.915       14.300        0.201      335.371        5.961      862.340
01/08/2014  23:09:00      -90.773      -15.899      -15.766       19.705       13.180       12.293      388.270      173.706      151.129        0.473        0.036       92.155       12.992        0.020      334.993        5.333      862.363
01/08/2014  23:10:00     -105.768      -21.560      -15.895       10.546       14.102       10.719      111.210      198.873      114.898        0.616        0.021      107.944        5.404        0.003      335.054        5.433      862.392
01/08/2014  23:11:00      -59.563       -4.152       -6.016       22.343        7.797        9.367      499.191       60.795       87.748        0.212        0.032       59.707       12.244        0.042      335.214        5.699      862.408
01/08/2014  23:12:00       19.237       11.537        7.832       21.522       12.316        8.151      463.177      151.676       66.440        0.062        0.034       22.431        4.418        0.039      335.175        5.634      862.406
01/08/2014  23:13:00       70.431       38.692       13.286       26.757       13.632       15.240      715.943      185.842      232.260        0.388        0.057       80.359        8.378        0.011      335.254        5.764      862.398
01/08/2014  23:14:00       96.046       51.222        1.661       26.096       28.666       24.401      680.977      821.753      595.386        0.697        0.105      108.851       17.027        0.024      335.226        5.718      862.354
01/08/2014  23:15:00        1.058       -6.252       16.582       39.290       28.129       21.589     1543.690      791.219      466.101        0.156        0.140        6.341       22.431       12.512      335.139        5.575      862.319
01/08/2014  23:16:00      -58.843      -19.843       -4.764       21.932       19.242       12.282      481.016      370.242      150.851        0.244        0.050       62.098        8.627        0.019      335.170        5.626      862.314
01/08/2014  23:17:00      -47.161       -9.364       -2.693       21.339       20.486       14.577      455.355      419.694      212.477        0.170        0.054       48.081       13.181        0.075      334.967        5.289      862.332
01/08/2014  23:18:00      -25.577      -55.655       -4.450       16.955       20.727        9.604      287.461      429.614       92.236        0.229        0.040       61.251        4.923        0.006      335.055        5.436      862.351
01/08/2014  23:19:00        5.102      -16.083       14.336       30.561       36.551       15.875      933.972     1335.939      252.027        0.151        0.126       16.873       18.430        1.193      335.279        5.807      862.326
01/08/2014  23:20:00       44.999      115.710       91.624       41.800       39.607       32.754     1747.242     1568.721     1072.807        1.410        0.219      124.152       31.443        0.064      335.370        5.957      862.278
01/08/2014  23:21:00       50.621       78.302       78.879       43.791       42.633       28.574     1917.693     1817.613      816.478        0.973        0.228       93.241       27.673        0.088      335.448        6.088      862.261
01/08/2014  23:22:00        6.962       -0.357       30.581       26.313       31.983       20.065      692.381     1022.916      402.617        0.155        0.106        6.971       22.321       10.252      335.656        6.435      862.306
01/08/2014  23:23:00      -19.649      -36.731       13.592       15.793       25.790       16.769      249.407      665.128      281.189        0.156        0.060       41.656       15.277        0.135      335.627        6.387      862.352
01/08/2014  23:24:00      -52.599        0.674       -0.801       13.782       24.112       15.636      189.934      581.381      244.497        0.189        0.051       52.603       13.019        0.061      335.393        5.996      862.377
01/08/2014  23:25:00      -79.153      -15.385      -11.776       17.135       30.404        9.109      293.593      924.391       82.973        0.397        0.065       80.634        7.011        0.008      335.362        5.945      862.382
01/08/2014  23:26:00      -50.727      -53.651       -6.622       36.326       13.982        9.657     1319.548      195.493       93.256        0.355        0.080       73.835        5.637        0.006      335.623        6.379      862.366
01/08/2014  23:27:00       11.128      -61.187       -2.693       22.738       16.564       17.410      517.018      274.377      303.108        0.248        0.055       62.191        7.139        0.013      335.834        6.732      862.334
01/08/2014  23:28:00      -45.059      -16.777       -3.309       50.681       35.716       22.003     2568.516     1275.660      484.121        0.332        0.216       48.081       12.419        0.067      335.573        6.296      862.337
01/08/2014  23:29:00     -100.888      -50.797       10.058       55.998       40.691       28.623     3135.777     1655.740      819.277        0.923        0.281      112.955       29.355        0.068      335.401        6.009      862.340
01/08/2014  23:30:00      -85.088      -19.104       -8.777       31.861       25.374       14.048     1015.092      643.827      197.350        0.477        0.093       87.206        8.984        0.011      335.330        5.890      862.294
01/08/2014  23:31:00      -77.458       -9.955       -6.794       24.280       29.429       13.208      589.525      866.092      174.461        0.389        0.082       78.095        8.250        0.011      335.225        5.716      862.267
01/08/2014  23:32:00      -46.237      -30.865       -2.714       20.820       19.986        9.473      433.469      399.444       89.745        0.201        0.046       55.592       11.661        0.044      335.331        5.893      862.243
01/08/2014  23:33:00      -37.492      -34.955        3.551       22.729       20.460       15.346      516.616      418.619      235.497        0.191        0.059       51.259       11.811        0.053      335.496        6.170      862.221
01/08/2014  23:34:00      -73.166      -13.053       -3.489       20.680       13.814       11.690      427.656      190.838      136.665        0.315        0.038       74.322       10.509        0.020      335.283        5.813      862.219
01/08/2014  23:35:00      -42.400      -16.631       -4.139        8.922       11.992        5.606       79.608      143.806       31.429        0.117        0.013       45.545        5.526        0.015      335.514        6.197      862.208
01/08/2014  23:36:00     -112.945      -50.376       -0.168       56.483       24.145       16.837     3190.288      582.977      283.494        0.967        0.203      123.670       24.727        0.040      335.266        5.785      862.219
01/08/2014  23:37:00     -101.382      -30.027       -2.547       44.480       29.518       17.735     1978.429      871.314      314.547        0.717        0.158      105.735       22.244        0.044      335.036        5.405      862.248
01/08/2014  23:38:00      -25.024      -42.959        1.682       16.853       22.399       14.781      284.034      501.726      218.471        0.174        0.050       49.716       14.780        0.088      335.314        5.864      862.240
01/08/2014  23:39:00       -2.202      -32.761       -0.044       10.176       20.706       17.091      103.550      428.733      292.093        0.095        0.041       32.835       14.121        0.185      335.702        6.511      862.218
01/08/2014  23:40:00       -9.389      -49.238        4.232       16.856       16.555       15.775      284.126      274.055      248.860        0.167        0.040       50.125        9.928        0.039      335.806        6.684      862.191
01/08/2014  23:41:00       15.995       10.057       13.945       17.667       21.641       12.693      312.117      468.352      161.121        0.075        0.047       18.894       11.486        0.370      335.507        6.187      862.164
01/08/2014  23:42:00       39.222       42.921       -1.841       18.045       12.094        8.086      325.611      146.262       65.386        0.196        0.027       58.142        7.055        0.015      335.476        6.135      862.136
01/08/2014  23:43:00       49.048       43.688       -3.397       14.624       15.171        9.331      213.852      230.169       87.071        0.243        0.027       65.684        5.624        0.007      335.583        6.314      862.109
01/08/2014  23:44:00       37.685       51.633       -8.999       17.766       23.554       13.878      315.640      554.812      192.588        0.261        0.053       63.923       16.046        0.063      335.493        6.164      862.116
01/08/2014  23:45:00        9.487       53.724       -5.914       19.839       34.842       14.248      393.579     1213.980      203.002        0.241        0.091       54.555       19.485        0.128      335.354        5.931      862.150
01/08/2014  23:46:00       16.820       79.219      -11.171       10.755        8.335        5.711      115.679       69.480       32.621        0.345        0.011       80.985        3.238        0.002      335.471        6.127      862.205
01/08/2014  23:47:00       32.363       62.115      -10.435       18.292       37.902       17.648      334.581     1436.585      311.435        0.355        0.104       70.040       18.384        0.069      335.425        6.050      862.243
01/08/2014  23:48:00       21.204       59.784       -4.509       22.665       29.871       19.261      513.717      892.254      370.967        0.291        0.089       63.433       18.954        0.089      335.382        5.978      862.259
01/08/2014  23:49:00        9.516       96.379      -14.569       10.580       15.661        6.849      111.927      245.261       46.903        0.500        0.020       96.847        4.128        0.002      335.373        5.962      862.282
01/08/2014  23:50:00       31.061       44.966       -3.011       24.678       26.464       13.086      608.994      700.319      171.255        0.224        0.074       54.651        9.098        0.028      335.344        5.914      862.275
01/08/2014  23:51:00       19.580       17.664       18.392       25.211       20.533       11.561      635.581      421.588      133.651        0.111        0.060       26.370       10.021        0.144      335.268        5.787      862.261
01/08/2014  23:52:00      -45.945      -14.888       -4.089       21.669       11.309       11.098      469.542      127.885      123.157        0.153        0.036       48.297        9.588        0.039      335.128        5.557      862.290
01/08/2014  23:53:00      -51.110      -19.282       -6.814       25.855       12.823        8.270      668.463      164.437       68.392        0.197        0.045       54.627        8.123        0.022      334.956        5.270      862.291
01/08/2014  23:54:00      -34.429      -66.653       -7.415       26.249       24.056       12.658      689.033      578.674      160.228        0.356        0.071       75.020        6.178        0.007      335.148        5.590      862.262
01/08/2014  23:55:00      -92.634      -72.681       -4.657       27.576       25.708       22.604      760.426      660.919      510.940        0.791        0.097      117.744       18.343        0.024      335.390        5.991      862.261
01/08/2014  23:56:00      -22.733      -29.416       -0.286       40.139       21.455       15.646     1611.142      460.308      244.808        0.185        0.116       37.176       20.598        0.307      335.548        6.254      862.244
01/08/2014  23:57:00       26.398       14.676       10.845       15.714       17.177       15.191      246.915      295.052      230.758        0.090        0.039       30.203        6.079        0.041      335.551        6.260      862.185
01/08/2014  23:58:00       26.596       30.408       26.516       27.307       22.881       20.230      745.675      523.544      409.252        0.201        0.084       40.398       17.232        0.182      335.502        6.180      862.138
01/08/2014  23:59:00       18.044       14.849        7.306       20.527       18.010       12.020      421.364      324.354      144.484        0.074        0.045       23.369       11.150        0.228      335.599        6.340      862.122
